Darstellungsparameter: Aktuell verwendete Einstellungen:
Skalierung der Graphiken ... ?
xyx+y,   Skalierungsfaktor:      Skalierung: Modus: x, Faktor: 1
Darstellungszeitraum ... ?
Vom - - bis: - -   Zeitraum: 27.11.2019 - 25.12.2019
Min/Max/Avg-Anzeige ... ?
Zeige MMA aktuell
Zeige MMA Monat
Zeige MMA alles
Zeige --A aktuell
Zeige --A Monat
Zeige --A alles
Keine MMA-Anzeige
MMA:
Average (ber die Originaldaten)
MMA-Basis: 27.11.2019 - 25.12.2019
Quicknavigation für Darstellung... ?
Tage:      1T, 2T, 3T, 5T -1T -2T -3T -5T +1T +2T +3T +5T
Wochen: 1W, 2W, 3W -1W -2W -3W +1W +2W +3W
Monate: 1M, 3M, 6M -1M -3M -6M +1M +3M +6M
Jahre:    1J, 3J, 5J, 10J -1J -3J -5J -10J +1J +3J +5J +10J
Nutze für die Darstellung ... ?
Originaldaten oder Mittelwerte auf ...
Stundenbasis Tagesbasis Wochenbasis
Monatsbasis Jahresbasis      Datenbasis: Original-Daten
Darstellen als:
Statistik (Auto) Statistik J:M      Darstellung:
Zur Graphik,    zurück zur Übersicht aller Sensoren.
 
Tabellarische Datenbersicht: ?
 
Sensor: Nr:Datum:Temp:Feuchte:
Aussen-T/F 1 27-11-2019 00:00:17 7.6 C 39 %
2 27-11-2019 00:10:17 7.5 C 39 %
3 27-11-2019 00:20:17 7.6 C 40 %
4 27-11-2019 00:30:17 7.6 C 39 %
5 27-11-2019 00:40:17 7.9 C 40 %
6 27-11-2019 00:50:17 7.7 C 39 %
7 27-11-2019 01:00:17 7.4 C 39 %
8 27-11-2019 01:10:17 7.6 C 40 %
9 27-11-2019 01:20:17 7.6 C 40 %
10 27-11-2019 01:30:17 7.8 C 40 %
11 27-11-2019 01:40:17 7.8 C 40 %
12 27-11-2019 01:50:17 8 C 39 %
13 27-11-2019 02:00:17 8.1 C 39 %
14 27-11-2019 02:10:17 8.1 C 38 %
15 27-11-2019 02:20:17 8.1 C 38 %
16 27-11-2019 02:30:17 8 C 39 %
17 27-11-2019 02:40:17 7.8 C 40 %
18 27-11-2019 02:50:17 7.7 C 40 %
19 27-11-2019 03:00:17 7.8 C 40 %
20 27-11-2019 03:10:17 7.6 C 41 %
21 27-11-2019 03:20:17 7.5 C 40 %
22 27-11-2019 03:30:17 7.2 C 40 %
23 27-11-2019 03:40:17 7.1 C 40 %
24 27-11-2019 03:50:17 7 C 40 %
25 27-11-2019 04:00:17 7.1 C 40 %
Sensor: Nr:Datum:Temp:Feuchte:
Aussen-T/F 26 27-11-2019 04:10:17 7.3 C 40 %
27 27-11-2019 04:20:17 7.5 C 40 %
28 27-11-2019 04:30:17 7.6 C 40 %
29 27-11-2019 04:40:17 7.6 C 40 %
30 27-11-2019 04:50:17 7.4 C 39 %
31 27-11-2019 05:00:17 7.1 C 38 %
32 27-11-2019 05:10:17 7.4 C 39 %
33 27-11-2019 05:20:17 7.8 C 37 %
34 27-11-2019 05:30:17 7.7 C 37 %
35 27-11-2019 05:40:17 8 C 35 %
36 27-11-2019 05:50:17 8 C 35 %
37 27-11-2019 06:00:18 8 C 34 %
38 27-11-2019 06:10:18 7.8 C 35 %
39 27-11-2019 06:20:17 7.8 C 36 %
40 27-11-2019 06:30:17 7.6 C 37 %
41 27-11-2019 06:40:17 7.7 C 39 %
42 27-11-2019 06:50:17 7.6 C 39 %
43 27-11-2019 07:00:17 7.8 C 37 %
44 27-11-2019 07:10:17 7.8 C 35 %
45 27-11-2019 07:20:17 7.9 C 35 %
46 27-11-2019 07:30:17 8.1 C 34 %
47 27-11-2019 07:40:17 8 C 32 %
48 27-11-2019 07:50:17 8 C 34 %
49 27-11-2019 08:00:17 8.2 C 33 %
50 27-11-2019 08:10:17 8.2 C 33 %
Sensor: Nr:Datum:Temp:Feuchte:
Aussen-T/F 51 27-11-2019 08:20:17 8.3 C 34 %
52 27-11-2019 08:30:17 8.4 C 33 %
53 27-11-2019 08:40:17 8.4 C 33 %
54 27-11-2019 08:50:17 8.4 C 35 %
55 27-11-2019 09:00:17 8.6 C 35 %
56 27-11-2019 09:10:17 8.6 C 36 %
57 27-11-2019 09:20:17 8.8 C 36 %
58 27-11-2019 09:30:17 9.1 C 33 %
59 27-11-2019 09:40:17 9 C 34 %
60 27-11-2019 09:50:17 9 C 34 %
61 27-11-2019 10:00:17 9.1 C 35 %
62 27-11-2019 10:10:17 9.2 C 35 %
63 27-11-2019 10:20:17 9.3 C 35 %
64 27-11-2019 10:30:17 9.7 C 31 %
65 27-11-2019 10:40:17 10 C 29 %
66 27-11-2019 10:50:17 10.4 C 27 %
67 27-11-2019 11:00:17 11 C 25 %
68 27-11-2019 11:10:17 11.3 C 24 %
69 27-11-2019 11:20:17 11.6 C 22 %
70 27-11-2019 11:30:17 11.7 C 22 %
71 27-11-2019 11:40:17 12.1 C 20 %
72 27-11-2019 11:50:17 12.4 C 20 %
73 27-11-2019 12:00:17 12.7 C 20 %
74 27-11-2019 12:10:17 12.7 C 20 %
75 27-11-2019 12:20:18 12.7 C 20 %
Sensor: Nr:Datum:Temp:Feuchte:
Aussen-T/F 76 27-11-2019 12:30:17 12.7 C 20 %
77 27-11-2019 12:40:17 12.8 C 20 %
78 27-11-2019 12:50:17 12.8 C 20 %
79 27-11-2019 13:00:17 12.7 C 20 %
80 27-11-2019 13:10:17 12.8 C 20 %
81 27-11-2019 13:20:17 12.8 C 20 %
82 27-11-2019 13:30:17 12.6 C 20 %
83 27-11-2019 13:40:17 12.7 C 20 %
84 27-11-2019 13:50:17 12.9 C 20 %
85 27-11-2019 14:00:17 13.1 C 20 %
86 27-11-2019 14:10:17 13 C 20 %
87 27-11-2019 14:20:17 12.9 C 20 %
88 27-11-2019 14:30:17 12.9 C 20 %
89 27-11-2019 14:40:17 12.9 C 20 %
90 27-11-2019 14:50:17 12.9 C 20 %
91 27-11-2019 15:00:17 12.7 C 20 %
92 27-11-2019 15:10:17 12.8 C 20 %
93 27-11-2019 15:20:17 12.8 C 20 %
94 27-11-2019 15:30:17 12.8 C 20 %
95 27-11-2019 15:40:17 12.5 C 20 %
96 27-11-2019 15:50:17 12.2 C 20 %
97 27-11-2019 16:00:17 11.5 C 20 %
98 27-11-2019 16:10:17 11.1 C 20 %
99 27-11-2019 16:20:17 10.8 C 25 %
100 27-11-2019 16:30:17 10.3 C 26 %
Sensor: Nr:Datum:Temp:Feuchte:
Aussen-T/F 101 27-11-2019 16:40:17 9.9 C 29 %
102 27-11-2019 16:50:18 9.7 C 30 %
103 27-11-2019 17:00:17 9.5 C 31 %
104 27-11-2019 17:10:17 9.8 C 31 %
105 27-11-2019 17:20:17 9.8 C 31 %
106 27-11-2019 17:30:17 9.8 C 31 %
107 27-11-2019 17:40:17 9.7 C 33 %
108 27-11-2019 17:50:17 9.6 C 33 %
109 27-11-2019 18:00:17 9.7 C 32 %
110 27-11-2019 18:10:17 9.7 C 32 %
111 27-11-2019 18:20:17 9.9 C 31 %
112 27-11-2019 18:30:17 9.9 C 31 %
113 27-11-2019 18:40:17 9.8 C 32 %
114 27-11-2019 18:50:17 9.7 C 34 %
115 27-11-2019 19:00:17 9.7 C 36 %
116 27-11-2019 19:10:17 9.8 C 34 %
117 27-11-2019 19:20:17 9.7 C 33 %
118 27-11-2019 19:30:17 10 C 31 %
119 27-11-2019 19:40:17 10 C 31 %
120 27-11-2019 19:50:17 10.4 C 28 %
121 27-11-2019 20:00:17 10.8 C 26 %
122 27-11-2019 20:10:17 10.9 C 26 %
123 27-11-2019 20:20:17 11 C 25 %
124 27-11-2019 20:30:17 10.6 C 26 %
125 27-11-2019 20:40:17 9.9 C 30 %
Sensor: Nr:Datum:Temp:Feuchte:
Aussen-T/F 126 27-11-2019 20:50:17 9.7 C 31 %
127 27-11-2019 21:00:17 9.8 C 33 %
128 27-11-2019 21:10:17 9.8 C 32 %
129 27-11-2019 21:20:17 9.6 C 33 %
130 27-11-2019 21:30:17 9.8 C 32 %
131 27-11-2019 21:40:17 10.1 C 31 %
132 27-11-2019 21:50:17 10.2 C 29 %
133 27-11-2019 22:00:17 10.3 C 28 %
134 27-11-2019 22:10:17 10.6 C 27 %
135 27-11-2019 22:20:17 10.9 C 26 %
136 27-11-2019 22:30:17 10.9 C 26 %
137 27-11-2019 22:40:17 10.8 C 25 %
138 27-11-2019 22:50:17 10.7 C 25 %
139 27-11-2019 23:00:17 11.1 C 24 %
140 27-11-2019 23:10:17 11.3 C 23 %
141 27-11-2019 23:20:17 11.1 C 23 %
142 27-11-2019 23:30:17 11.5 C 21 %
143 27-11-2019 23:40:18 11.5 C 21 %
144 27-11-2019 23:50:17 11.2 C 21 %
145 28-11-2019 00:00:18 11.2 C 21 %
146 28-11-2019 00:10:18 11.3 C 20 %
147 28-11-2019 00:20:17 11.2 C 20 %
148 28-11-2019 00:30:17 11.2 C 20 %
149 28-11-2019 00:40:17 11.5 C 20 %
150 28-11-2019 00:50:17 11.3 C 20 %
Sensor: Nr:Datum:Temp:Feuchte:
Aussen-T/F 151 28-11-2019 01:00:17 11.4 C 20 %
152 28-11-2019 01:10:17 11.4 C 20 %
153 28-11-2019 01:20:17 11.4 C 20 %
154 28-11-2019 01:30:17 11.4 C 20 %
155 28-11-2019 01:40:17 11.1 C 20 %
156 28-11-2019 01:50:17 11.1 C 20 %
157 28-11-2019 02:00:18 10.8 C 20 %
158 28-11-2019 02:10:18 10.5 C 20 %
159 28-11-2019 02:20:17 10.7 C 20 %
160 28-11-2019 02:30:17 11 C 20 %
161 28-11-2019 02:40:17 10.5 C 21 %
162 28-11-2019 02:50:17 10.8 C 20 %
163 28-11-2019 03:00:17 10.9 C 20 %
164 28-11-2019 03:10:17 10.3 C 20 %
165 28-11-2019 03:20:18 10.8 C 20 %
166 28-11-2019 03:30:18 10.6 C 20 %
167 28-11-2019 03:40:18 10.9 C 20 %
168 28-11-2019 03:50:18 10.9 C 20 %
169 28-11-2019 04:00:18 10.7 C 20 %
170 28-11-2019 04:10:18 10.6 C 20 %
171 28-11-2019 04:20:17 10.6 C 20 %
172 28-11-2019 04:30:17 10.6 C 20 %
173 28-11-2019 04:40:17 10.5 C 20 %
174 28-11-2019 04:50:17 10.3 C 20 %
175 28-11-2019 05:00:17 10.5 C 20 %
Sensor: Nr:Datum:Temp:Feuchte:
Aussen-T/F 176 28-11-2019 05:10:17 10.2 C 20 %
177 28-11-2019 05:20:17 10.1 C 20 %
178 28-11-2019 05:30:17 10.4 C 20 %
179 28-11-2019 05:40:17 10.1 C 20 %
180 28-11-2019 05:50:17 10.2 C 20 %
181 28-11-2019 06:00:17 9.9 C 20 %
182 28-11-2019 06:10:17 10.1 C 20 %
183 28-11-2019 06:20:17 10.2 C 20 %
184 28-11-2019 06:30:17 10.5 C 20 %
185 28-11-2019 06:40:17 10.6 C 20 %
186 28-11-2019 06:50:17 10.5 C 20 %
187 28-11-2019 07:00:17 10.4 C 20 %
188 28-11-2019 07:10:17 10 C 20 %
189 28-11-2019 07:20:17 10 C 20 %
190 28-11-2019 07:30:17 10 C 20 %
191 28-11-2019 07:40:17 10.2 C 20 %
192 28-11-2019 07:50:17 10.3 C 20 %
193 28-11-2019 08:00:17 10.4 C 20 %
194 28-11-2019 08:10:17 10.2 C 20 %
195 28-11-2019 08:20:17 10.2 C 20 %
196 28-11-2019 08:30:17 10.1 C 20 %
197 28-11-2019 08:40:17 10.1 C 20 %
198 28-11-2019 08:50:17 10.1 C 20 %
199 28-11-2019 09:00:17 10.3 C 20 %
200 28-11-2019 09:10:17 10.7 C 20 %
Sensor: Nr:Datum:Temp:Feuchte:
Aussen-T/F 201 28-11-2019 09:20:17 11 C 20 %
202 28-11-2019 09:30:17 11 C 20 %
203 28-11-2019 09:40:17 11.1 C 20 %
204 28-11-2019 09:50:17 11.1 C 20 %
205 28-11-2019 10:00:17 11.3 C 20 %
206 28-11-2019 10:10:17 11.3 C 20 %
207 28-11-2019 10:20:17 11.5 C 20 %
208 28-11-2019 10:30:17 11.6 C 20 %
209 28-11-2019 10:40:17 11.7 C 20 %
210 28-11-2019 10:50:17 11.7 C 20 %
211 28-11-2019 11:00:17 11.7 C 20 %
212 28-11-2019 11:10:17 11.8 C 20 %
213 28-11-2019 11:20:17 11.9 C 20 %
214 28-11-2019 11:30:17 11.9 C 20 %
215 28-11-2019 11:40:17 12.2 C 20 %
216 28-11-2019 11:50:17 11.9 C 20 %
217 28-11-2019 12:00:17 11.6 C 20 %
218 28-11-2019 12:10:17 11.5 C 20 %
219 28-11-2019 12:20:17 11.1 C 20 %
220 28-11-2019 12:30:17 11.1 C 20 %
221 28-11-2019 12:40:17 10.9 C 20 %
222 28-11-2019 12:50:17 11.2 C 20 %
223 28-11-2019 13:00:17 11.2 C 20 %
224 28-11-2019 13:10:17 11.7 C 20 %
225 28-11-2019 13:20:17 11.8 C 20 %
Sensor: Nr:Datum:Temp:Feuchte:
Aussen-T/F 226 28-11-2019 13:30:17 12.1 C 20 %
227 28-11-2019 13:40:17 11.4 C 20 %
228 28-11-2019 13:50:17 11.4 C 20 %
229 28-11-2019 14:00:17 11.3 C 20 %
230 28-11-2019 14:10:17 11.4 C 20 %
231 28-11-2019 14:20:17 11.2 C 20 %
232 28-11-2019 14:30:17 11.1 C 20 %
233 28-11-2019 14:40:17 11.2 C 20 %
234 28-11-2019 14:50:17 11.2 C 20 %
235 28-11-2019 15:00:17 11.2 C 20 %
236 28-11-2019 15:10:17 11.1 C 20 %
237 28-11-2019 15:20:17 11 C 20 %
238 28-11-2019 15:30:17 10.2 C 23 %
239 28-11-2019 15:40:17 10.2 C 21 %
240 28-11-2019 15:50:17 10.3 C 21 %
241 28-11-2019 16:00:17 10.5 C 21 %
242 28-11-2019 16:10:17 10.3 C 22 %
243 28-11-2019 16:20:17 10.5 C 21 %
244 28-11-2019 16:30:17 10.6 C 21 %
245 28-11-2019 16:40:17 10.4 C 21 %
246 28-11-2019 16:50:17 10.4 C 21 %
247 28-11-2019 17:00:17 10.3 C 22 %
248 28-11-2019 17:10:17 9.7 C 27 %
249 28-11-2019 17:20:17 9.5 C 29 %
250 28-11-2019 17:30:17 9.4 C 30 %
Sensor: Nr:Datum:Temp:Feuchte:
Aussen-T/F 251 28-11-2019 17:40:17 9.3 C 30 %
252 28-11-2019 17:50:17 9.6 C 28 %
253 28-11-2019 18:00:17 9.8 C 27 %
254 28-11-2019 18:10:17 10.2 C 25 %
255 28-11-2019 18:20:17 10.3 C 25 %
256 28-11-2019 18:30:17 10.2 C 25 %
257 28-11-2019 18:40:17 10.2 C 25 %
258 28-11-2019 18:50:17 10.2 C 25 %
259 28-11-2019 19:00:17 10.1 C 25 %
260 28-11-2019 19:10:17 9.8 C 26 %
261 28-11-2019 19:20:17 9.8 C 26 %
262 28-11-2019 19:30:17 9.8 C 26 %
263 28-11-2019 19:40:17 9.9 C 26 %
264 28-11-2019 19:50:17 10.1 C 25 %
265 28-11-2019 20:00:17 10.1 C 26 %
266 28-11-2019 20:10:17 9.8 C 26 %
267 28-11-2019 20:20:17 9.8 C 26 %
268 28-11-2019 20:30:17 9.8 C 27 %
269 28-11-2019 20:40:17 10.1 C 26 %
270 28-11-2019 20:50:17 10 C 25 %
271 28-11-2019 21:00:17 10.1 C 25 %
272 28-11-2019 21:10:17 9.7 C 27 %
273 28-11-2019 21:20:17 9.9 C 27 %
274 28-11-2019 21:30:17 10.1 C 26 %
275 28-11-2019 21:40:17 10 C 26 %
Sensor: Nr:Datum:Temp:Feuchte:
Aussen-T/F 276 28-11-2019 21:50:17 10 C 25 %
277 28-11-2019 22:00:17 9.6 C 27 %
278 28-11-2019 22:10:17 9.6 C 28 %
279 28-11-2019 22:20:17 9.6 C 28 %
280 28-11-2019 22:30:17 9.5 C 28 %
281 28-11-2019 22:40:17 9.6 C 28 %
282 28-11-2019 22:50:17 9.5 C 28 %
283 28-11-2019 23:00:17 9.5 C 28 %
284 28-11-2019 23:10:17 9.5 C 29 %
285 28-11-2019 23:20:17 9.6 C 28 %
286 28-11-2019 23:30:17 9.2 C 30 %
287 28-11-2019 23:40:17 9.1 C 32 %
288 28-11-2019 23:50:17 8.9 C 35 %
289 29-11-2019 00:00:17 8.9 C 34 %
290 29-11-2019 00:10:17 8.7 C 36 %
291 29-11-2019 00:20:17 8.8 C 35 %
292 29-11-2019 00:30:17 8.7 C 36 %
293 29-11-2019 00:40:17 8.7 C 35 %
294 29-11-2019 00:50:17 8.6 C 35 %
295 29-11-2019 01:00:17 8.6 C 36 %
296 29-11-2019 01:10:17 8.5 C 37 %
297 29-11-2019 01:20:17 8.3 C 37 %
298 29-11-2019 01:30:17 8.3 C 36 %
299 29-11-2019 01:40:17 8.3 C 36 %
300 29-11-2019 01:50:17 8.1 C 39 %
Sensor: Nr:Datum:Temp:Feuchte:
Aussen-T/F 301 29-11-2019 02:00:17 8.1 C 40 %
302 29-11-2019 02:10:17 8.1 C 40 %
303 29-11-2019 02:20:17 8.1 C 40 %
304 29-11-2019 02:30:17 8.1 C 40 %
305 29-11-2019 02:40:17 8.1 C 40 %
306 29-11-2019 02:50:17 8 C 40 %
307 29-11-2019 03:00:17 8 C 40 %
308 29-11-2019 03:10:17 8 C 40 %
309 29-11-2019 03:20:17 7.9 C 40 %
310 29-11-2019 03:30:17 7.8 C 40 %
311 29-11-2019 03:40:17 7.7 C 40 %
312 29-11-2019 03:50:17 7.6 C 40 %
313 29-11-2019 04:00:17 7.6 C 40 %
314 29-11-2019 04:10:17 7.6 C 40 %
315 29-11-2019 04:20:17 7.6 C 40 %
316 29-11-2019 04:30:17 7.5 C 40 %
317 29-11-2019 04:40:17 7.5 C 40 %
318 29-11-2019 04:50:17 7.2 C 38 %
319 29-11-2019 05:00:17 6.8 C 34 %
320 29-11-2019 05:10:17 6.4 C 33 %
321 29-11-2019 05:20:17 6.2 C 34 %
322 29-11-2019 05:30:17 6.2 C 35 %
323 29-11-2019 05:40:18 6.1 C 36 %
324 29-11-2019 05:50:17 6 C 36 %
325 29-11-2019 06:00:17 6 C 38 %
Sensor: Nr:Datum:Temp:Feuchte:
Aussen-T/F 326 29-11-2019 06:10:17 5.9 C 38 %
327 29-11-2019 06:20:17 5.9 C 38 %
328 29-11-2019 06:30:17 5.9 C 40 %
329 29-11-2019 06:40:17 5.9 C 40 %
330 29-11-2019 06:50:17 5.8 C 36 %
331 29-11-2019 07:00:17 5.7 C 35 %
332 29-11-2019 07:10:17 5.6 C 37 %
333 29-11-2019 07:20:17 5.4 C 37 %
334 29-11-2019 07:30:17 5.4 C 40 %
335 29-11-2019 07:40:17 5.4 C 37 %
336 29-11-2019 07:50:17 5.4 C 39 %
337 29-11-2019 08:00:17 5.3 C 40 %
338 29-11-2019 08:10:17 5.2 C 40 %
339 29-11-2019 08:20:17 5.1 C 40 %
340 29-11-2019 08:30:17 5 C 40 %
341 29-11-2019 08:40:17 5 C 40 %
342 29-11-2019 08:50:17 5 C 39 %
343 29-11-2019 09:00:17 5 C 39 %
344 29-11-2019 09:10:17 5 C 39 %
345 29-11-2019 09:20:17 4.8 C 37 %
346 29-11-2019 09:30:17 4.6 C 37 %
347 29-11-2019 09:40:17 4.6 C 37 %
348 29-11-2019 09:50:17 4.7 C 36 %
349 29-11-2019 10:00:17 4.8 C 32 %
350 29-11-2019 10:10:17 5.1 C 31 %
Sensor: Nr:Datum:Temp:Feuchte:
Aussen-T/F 351 29-11-2019 10:20:17 5.8 C 27 %
352 29-11-2019 10:30:17 5.9 C 29 %
353 29-11-2019 10:40:17 5.7 C 27 %
354 29-11-2019 10:50:17 5.4 C 28 %
355 29-11-2019 11:00:17 5.6 C 30 %
356 29-11-2019 11:10:17 5.9 C 26 %
357 29-11-2019 11:20:17 6 C 27 %
358 29-11-2019 11:30:17 6.4 C 26 %
359 29-11-2019 11:40:17 7 C 23 %
360 29-11-2019 11:50:17 7.3 C 21 %
361 29-11-2019 12:00:17 7.2 C 20 %
362 29-11-2019 12:10:17 7.2 C 20 %
363 29-11-2019 12:20:17 7.1 C 20 %
364 29-11-2019 12:30:17 7.6 C 20 %
365 29-11-2019 12:40:17 7.2 C 20 %
366 29-11-2019 12:50:17 6.9 C 21 %
367 29-11-2019 13:00:17 6.6 C 21 %
368 29-11-2019 13:10:17 6.2 C 23 %
369 29-11-2019 13:20:17 5.9 C 25 %
370 29-11-2019 13:30:17 6.1 C 25 %
371 29-11-2019 13:40:17 6.1 C 25 %
372 29-11-2019 13:50:17 6.5 C 20 %
373 29-11-2019 14:00:17 6.5 C 20 %
374 29-11-2019 14:10:17 7 C 20 %
375 29-11-2019 14:20:17 7.3 C 20 %
Sensor: Nr:Datum:Temp:Feuchte:
Aussen-T/F 376 29-11-2019 14:30:17 7.3 C 20 %
377 29-11-2019 14:40:17 6.9 C 20 %
378 29-11-2019 14:50:17 6.5 C 20 %
379 29-11-2019 15:00:17 7.3 C 20 %
380 29-11-2019 15:10:17 7.3 C 20 %
381 29-11-2019 15:20:17 7.2 C 20 %
382 29-11-2019 15:30:17 7.2 C 20 %
383 29-11-2019 15:40:17 7.2 C 20 %
384 29-11-2019 15:50:17 6.7 C 20 %
385 29-11-2019 16:00:17 6.4 C 20 %
386 29-11-2019 16:10:17 5.6 C 20 %
387 29-11-2019 16:20:17 6.2 C 20 %
388 29-11-2019 16:30:17 6 C 20 %
389 29-11-2019 16:40:18 5.3 C 20 %
390 29-11-2019 16:50:17 5.3 C 20 %
391 29-11-2019 17:00:18 4.5 C 23 %
392 29-11-2019 17:10:18 4 C 26 %
393 29-11-2019 17:20:17 4 C 26 %
394 29-11-2019 17:30:18 3.9 C 27 %
395 29-11-2019 17:40:18 4 C 26 %
396 29-11-2019 17:50:17 3.8 C 27 %
397 29-11-2019 18:00:17 4.2 C 26 %
398 29-11-2019 18:10:18 4.6 C 25 %
399 29-11-2019 18:20:17 5 C 21 %
400 29-11-2019 18:30:17 5 C 21 %
Sensor: Nr:Datum:Temp:Feuchte:
Aussen-T/F 401 29-11-2019 18:40:17 4.8 C 23 %
402 29-11-2019 18:50:17 4.7 C 26 %
403 29-11-2019 19:00:17 4.8 C 21 %
404 29-11-2019 19:10:17 4.8 C 21 %
405 29-11-2019 19:20:17 4.8 C 21 %
406 29-11-2019 19:30:17 4.4 C 25 %
407 29-11-2019 19:40:17 4.6 C 21 %
408 29-11-2019 19:50:17 4.4 C 25 %
409 29-11-2019 20:00:17 4 C 26 %
410 29-11-2019 20:10:17 4 C 26 %
411 29-11-2019 20:20:17 4.3 C 25 %
412 29-11-2019 20:30:17 4.7 C 23 %
413 29-11-2019 20:40:17 4 C 25 %
414 29-11-2019 20:50:17 3.9 C 26 %
415 29-11-2019 21:00:17 3.8 C 28 %
416 29-11-2019 21:10:17 3.9 C 27 %
417 29-11-2019 21:20:17 3.8 C 27 %
418 29-11-2019 21:30:17 3.8 C 28 %
419 29-11-2019 21:40:17 3.9 C 28 %
420 29-11-2019 21:50:17 3.2 C 30 %
421 29-11-2019 22:00:17 3.3 C 29 %
422 29-11-2019 22:10:17 2.6 C 32 %
423 29-11-2019 22:20:17 2.1 C 35 %
424 29-11-2019 22:30:17 1.9 C 37 %
425 29-11-2019 22:40:17 1.7 C 40 %
Sensor: Nr:Datum:Temp:Feuchte:
Aussen-T/F 426 29-11-2019 22:50:17 1.8 C 41 %
427 29-11-2019 23:00:17 1.5 C 38 %
428 29-11-2019 23:10:17 1.1 C 39 %
429 29-11-2019 23:20:17 1.3 C 41 %
430 29-11-2019 23:30:17 1.5 C 42 %
431 29-11-2019 23:40:17 1.6 C 41 %
432 29-11-2019 23:50:17 1.7 C 41 %
433 30-11-2019 00:00:17 1.9 C 40 %
434 30-11-2019 00:10:17 1.8 C 40 %
435 30-11-2019 00:20:17 1.8 C 40 %
436 30-11-2019 00:30:17 2 C 37 %
437 30-11-2019 00:40:17 1.7 C 37 %
438 30-11-2019 00:50:17 1.6 C 40 %
439 30-11-2019 01:00:17 1.3 C 40 %
440 30-11-2019 01:10:17 1 C 40 %
441 30-11-2019 01:20:17 0.7 C 41 %
442 30-11-2019 01:30:17 0.5 C 42 %
443 30-11-2019 01:40:17 0.7 C 44 %
444 30-11-2019 01:50:17 0.5 C 43 %
445 30-11-2019 02:00:17 0.4 C 44 %
446 30-11-2019 02:10:17 0.9 C 45 %
447 30-11-2019 02:20:17 1.1 C 44 %
448 30-11-2019 02:30:17 1.2 C 44 %
449 30-11-2019 02:40:17 0.8 C 43 %
450 30-11-2019 02:50:17 0.8 C 43 %
Sensor: Nr:Datum:Temp:Feuchte:
Aussen-T/F 451 30-11-2019 03:00:17 0.9 C 43 %
452 30-11-2019 03:10:17 0.7 C 43 %
453 30-11-2019 03:20:17 0.3 C 41 %
454 30-11-2019 03:30:17 0.5 C 44 %
455 30-11-2019 03:40:17 0.2 C 43 %
456 30-11-2019 03:50:17 0.6 C 44 %
457 30-11-2019 04:00:17 1 C 44 %
458 30-11-2019 04:10:17 1.3 C 43 %
459 30-11-2019 04:20:17 1.3 C 41 %
460 30-11-2019 04:30:17 1.4 C 40 %
461 30-11-2019 04:40:17 1.3 C 40 %
462 30-11-2019 04:50:17 1 C 38 %
463 30-11-2019 05:00:17 0.6 C 40 %
464 30-11-2019 05:10:17 1.1 C 41 %
465 30-11-2019 05:20:17 0.8 C 40 %
466 30-11-2019 05:30:17 0.3 C 40 %
467 30-11-2019 05:40:17 -0.5 C 40 %
468 30-11-2019 05:50:17 -0.7 C 41 %
469 30-11-2019 06:00:17 -0.7 C 43 %
470 30-11-2019 06:10:17 -0.9 C 43 %
471 30-11-2019 06:20:17 -1 C 43 %
472 30-11-2019 06:30:17 -1.2 C 43 %
473 30-11-2019 06:40:17 -1.3 C 43 %
474 30-11-2019 06:50:17 -1.2 C 44 %
475 30-11-2019 07:00:17 -1.4 C 44 %
Sensor: Nr:Datum:Temp:Feuchte:
Aussen-T/F 476 30-11-2019 07:10:17 -1.4 C 43 %
477 30-11-2019 07:20:17 -1.4 C 43 %
478 30-11-2019 07:30:17 -1.5 C 43 %
479 30-11-2019 07:40:17 -1.2 C 44 %
480 30-11-2019 07:50:17 -1.1 C 44 %
481 30-11-2019 08:00:17 -1 C 44 %
482 30-11-2019 08:10:17 -0.7 C 44 %
483 30-11-2019 08:20:17 -0.6 C 44 %
484 30-11-2019 08:30:17 -0.7 C 44 %
485 30-11-2019 08:40:17 -0.6 C 44 %
486 30-11-2019 08:50:17 -0.7 C 44 %
487 30-11-2019 09:00:17 -0.7 C 44 %
488 30-11-2019 09:10:17 -0.6 C 44 %
489 30-11-2019 09:20:17 -0.7 C 44 %
490 30-11-2019 09:30:17 -0.7 C 44 %
491 30-11-2019 09:40:17 -0.6 C 44 %
492 30-11-2019 09:50:17 -0.3 C 44 %
493 30-11-2019 10:00:17 -0.3 C 44 %
494 30-11-2019 10:10:17 0 C 44 %
495 30-11-2019 10:20:17 0.1 C 43 %
496 30-11-2019 10:30:17 0.4 C 43 %
497 30-11-2019 10:40:17 0.5 C 43 %
498 30-11-2019 10:50:17 0.4 C 43 %
499 30-11-2019 11:00:18 0.5 C 42 %
500 30-11-2019 11:10:18 0.6 C 42 %
Sensor: Nr:Datum:Temp:Feuchte:
Aussen-T/F 501 30-11-2019 11:20:17 0.6 C 42 %
502 30-11-2019 11:30:17 0.4 C 41 %
503 30-11-2019 11:40:17 0.6 C 41 %
504 30-11-2019 11:50:17 0.9 C 41 %
505 30-11-2019 12:00:17 1.1 C 40 %
506 30-11-2019 12:10:17 0.9 C 38 %
507 30-11-2019 12:20:17 1.3 C 39 %
508 30-11-2019 12:30:17 1.4 C 37 %
509 30-11-2019 12:40:17 1.4 C 36 %
510 30-11-2019 12:50:17 2.3 C 36 %
511 30-11-2019 13:00:17 2.4 C 36 %
512 30-11-2019 13:10:17 1.8 C 36 %
513 30-11-2019 13:20:17 2.2 C 36 %
514 30-11-2019 13:30:17 2.1 C 36 %
515 30-11-2019 13:40:17 2.3 C 36 %
516 30-11-2019 13:50:17 2.3 C 36 %
517 30-11-2019 14:00:17 2 C 36 %
518 30-11-2019 14:10:17 2.1 C 38 %
519 30-11-2019 14:20:17 2.2 C 38 %
520 30-11-2019 14:30:17 2.2 C 38 %
521 30-11-2019 14:40:17 2.4 C 38 %
522 30-11-2019 14:50:17 2.2 C 37 %
523 30-11-2019 15:00:17 1.9 C 39 %
524 30-11-2019 15:10:17 1.8 C 40 %
525 30-11-2019 15:20:18 1.9 C 41 %
Sensor: Nr:Datum:Temp:Feuchte:
Aussen-T/F 526 30-11-2019 15:30:17 1.8 C 41 %
527 30-11-2019 15:40:17 1.6 C 41 %
528 30-11-2019 15:50:17 1.7 C 42 %
529 30-11-2019 16:00:17 1.5 C 42 %
530 30-11-2019 16:10:17 1.5 C 42 %
531 30-11-2019 16:20:17 1.4 C 43 %
532 30-11-2019 16:30:17 1.3 C 43 %
533 30-11-2019 16:40:17 1.3 C 43 %
534 30-11-2019 16:50:17 1.1 C 43 %
535 30-11-2019 17:00:17 0.9 C 44 %
536 30-11-2019 17:10:17 0.9 C 44 %
537 30-11-2019 17:20:17 0.6 C 44 %
538 30-11-2019 17:30:17 0.6 C 44 %
539 30-11-2019 17:40:17 0.6 C 44 %
540 30-11-2019 17:50:17 0.5 C 44 %
541 30-11-2019 18:00:17 0.4 C 44 %
542 30-11-2019 18:10:17 0.3 C 44 %
543 30-11-2019 18:20:17 0.3 C 44 %
544 30-11-2019 18:30:17 0.4 C 44 %
545 30-11-2019 18:40:17 0.4 C 44 %
546 30-11-2019 18:50:17 0.4 C 44 %
547 30-11-2019 19:00:17 0.2 C 44 %
548 30-11-2019 19:10:17 0 C 44 %
549 30-11-2019 19:20:17 0 C 44 %
550 30-11-2019 19:30:17 0 C 44 %
Sensor: Nr:Datum:Temp:Feuchte:
Aussen-T/F 551 30-11-2019 19:40:17 -0.1 C 44 %
552 30-11-2019 19:50:17 -0.1 C 44 %
553 30-11-2019 20:00:17 -0.2 C 44 %
554 30-11-2019 20:10:18 -0.2 C 44 %
555 30-11-2019 20:20:18 -0.2 C 44 %
556 30-11-2019 20:30:17 -0.2 C 44 %
557 30-11-2019 20:40:17 -0.4 C 44 %
558 30-11-2019 20:50:17 -0.3 C 44 %
559 30-11-2019 21:00:17 -0.2 C 44 %
560 30-11-2019 21:10:17 -0.3 C 44 %
561 30-11-2019 21:20:17 -0.3 C 44 %
562 30-11-2019 21:30:17 -0.4 C 44 %
563 30-11-2019 21:40:17 -0.2 C 44 %
564 30-11-2019 21:50:17 -0.3 C 44 %
565 30-11-2019 22:00:17 -0.3 C 44 %
566 30-11-2019 22:10:17 -0.3 C 44 %
567 30-11-2019 22:20:17 -0.3 C 44 %
568 30-11-2019 22:30:17 -0.1 C 44 %
569 30-11-2019 22:40:17 0 C 44 %
570 30-11-2019 22:50:17 0 C 44 %
571 30-11-2019 23:00:17 0 C 44 %
572 30-11-2019 23:10:17 0 C 44 %
573 30-11-2019 23:20:17 -0.1 C 44 %
574 30-11-2019 23:30:17 -0.4 C 43 %
575 30-11-2019 23:40:17 -0.5 C 43 %
Sensor: Nr:Datum:Temp:Feuchte:
Aussen-T/F 576 30-11-2019 23:50:17 -0.4 C 43 %
577 01-12-2019 00:00:17 -0.2 C 43 %
578 01-12-2019 00:10:17 -0.3 C 43 %
579 01-12-2019 00:20:17 -0.3 C 43 %
580 01-12-2019 00:30:17 -0.3 C 43 %
581 01-12-2019 00:40:17 -0.3 C 43 %
582 01-12-2019 00:50:18 -0.2 C 43 %
583 01-12-2019 01:00:17 0 C 44 %
584 01-12-2019 01:10:17 -0.1 C 43 %
585 01-12-2019 01:20:17 -0.1 C 43 %
586 01-12-2019 01:30:17 -0.1 C 43 %
587 01-12-2019 01:40:17 -0.1 C 43 %
588 01-12-2019 01:50:17 -0.2 C 43 %
589 01-12-2019 02:00:17 -0.1 C 43 %
590 01-12-2019 02:10:17 -0.2 C 43 %
591 01-12-2019 02:20:17 -0.2 C 43 %
592 01-12-2019 02:30:17 -0.2 C 43 %
593 01-12-2019 02:40:17 -0.3 C 43 %
594 01-12-2019 02:50:17 -0.2 C 43 %
595 01-12-2019 03:00:17 -0.3 C 43 %
596 01-12-2019 03:10:17 -0.3 C 43 %
597 01-12-2019 03:20:17 -0.4 C 43 %
598 01-12-2019 03:30:17 -0.4 C 43 %
599 01-12-2019 03:40:17 -0.4 C 43 %
600 01-12-2019 03:50:17 -0.4 C 43 %
Sensor: Nr:Datum:Temp:Feuchte:
Aussen-T/F 601 01-12-2019 04:00:17 -0.4 C 43 %
602 01-12-2019 04:10:17 -0.8 C 42 %
603 01-12-2019 04:20:17 -1.1 C 42 %
604 01-12-2019 04:30:17 -1.3 C 42 %
605 01-12-2019 04:40:17 -0.9 C 43 %
606 01-12-2019 04:50:17 -0.9 C 43 %
607 01-12-2019 05:00:17 -0.7 C 43 %
608 01-12-2019 05:10:17 -0.8 C 43 %
609 01-12-2019 05:20:17 -0.9 C 43 %
610 01-12-2019 05:30:17 -1.1 C 43 %
611 01-12-2019 05:40:17 -1 C 43 %
612 01-12-2019 05:50:17 -0.9 C 43 %
613 01-12-2019 06:00:17 -1 C 43 %
614 01-12-2019 06:10:17 -1.1 C 43 %
615 01-12-2019 06:20:17 -1.3 C 43 %
616 01-12-2019 06:30:17 -1 C 43 %
617 01-12-2019 06:40:17 -0.9 C 43 %
618 01-12-2019 06:50:17 -0.9 C 43 %
619 01-12-2019 07:00:17 -0.8 C 43 %
620 01-12-2019 07:10:17 -0.7 C 43 %
621 01-12-2019 07:20:17 -0.5 C 43 %
622 01-12-2019 07:30:17 -0.5 C 43 %
623 01-12-2019 07:40:17 -0.3 C 43 %
624 01-12-2019 07:50:17 -0.2 C 43 %
625 01-12-2019 08:00:17 -0.1 C 43 %
Sensor: Nr:Datum:Temp:Feuchte:
Aussen-T/F 626 01-12-2019 08:10:17 -0.1 C 43 %
627 01-12-2019 08:20:17 -0.2 C 43 %
628 01-12-2019 08:30:17 -0.2 C 43 %
629 01-12-2019 08:40:17 -0.2 C 43 %
630 01-12-2019 08:50:17 0 C 43 %
631 01-12-2019 09:00:17 0 C 42 %
632 01-12-2019 09:10:17 0.2 C 42 %
633 01-12-2019 09:20:17 0.1 C 42 %
634 01-12-2019 09:30:17 0.1 C 42 %
635 01-12-2019 09:40:17 0.2 C 41 %
636 01-12-2019 09:50:17 0.3 C 41 %
637 01-12-2019 10:00:17 0.5 C 41 %
638 01-12-2019 10:10:17 0.6 C 41 %
639 01-12-2019 10:20:17 0.7 C 40 %
640 01-12-2019 10:30:17 0.8 C 39 %
641 01-12-2019 10:40:17 1 C 38 %
642 01-12-2019 10:50:17 1.1 C 37 %
643 01-12-2019 11:00:17 1.4 C 36 %
644 01-12-2019 11:10:17 1.9 C 34 %
645 01-12-2019 11:20:17 2.1 C 32 %
646 01-12-2019 11:30:17 2.7 C 30 %
647 01-12-2019 11:40:17 3 C 27 %
648 01-12-2019 11:50:17 2.9 C 20 %
649 01-12-2019 12:00:17 3 C 21 %
650 01-12-2019 12:10:17 3.1 C 20 %
Sensor: Nr:Datum:Temp:Feuchte:
Aussen-T/F 651 01-12-2019 12:20:17 3.3 C 20 %
652 01-12-2019 12:30:18 3.3 C 20 %
653 01-12-2019 12:40:18 3.3 C 20 %
654 01-12-2019 12:50:18 3.4 C 20 %
655 01-12-2019 13:00:17 3.3 C 20 %
656 01-12-2019 13:10:17 3.4 C 20 %
657 01-12-2019 13:20:18 3.5 C 20 %
658 01-12-2019 13:30:18 3.5 C 20 %
659 01-12-2019 13:40:18 3.6 C 20 %
660 01-12-2019 13:50:17 3.8 C 20 %
661 01-12-2019 14:00:17 3.9 C 20 %
662 01-12-2019 14:10:18 3.9 C 20 %
663 01-12-2019 14:20:18 3.7 C 20 %
664 01-12-2019 14:30:17 3.7 C 20 %
665 01-12-2019 14:40:17 3.6 C 20 %
666 01-12-2019 14:50:17 3.6 C 20 %
667 01-12-2019 15:00:17 3.5 C 20 %
668 01-12-2019 15:10:17 3.3 C 20 %
669 01-12-2019 15:20:17 3.2 C 21 %
670 01-12-2019 15:30:17 3 C 20 %
671 01-12-2019 15:40:17 3 C 21 %
672 01-12-2019 15:50:17 2.7 C 25 %
673 01-12-2019 16:00:17 2.6 C 25 %
674 01-12-2019 16:10:17 2.5 C 25 %
675 01-12-2019 16:20:17 2.4 C 25 %
Sensor: Nr:Datum:Temp:Feuchte:
Aussen-T/F 676 01-12-2019 16:30:18 2.4 C 25 %
677 01-12-2019 16:40:18 2.2 C 25 %
678 01-12-2019 16:50:18 2.2 C 25 %
679 01-12-2019 17:00:18 2.2 C 25 %
680 01-12-2019 17:10:18 2.2 C 25 %
681 01-12-2019 17:20:17 2.3 C 25 %
682 01-12-2019 17:30:17 2.3 C 25 %
683 01-12-2019 17:40:17 2.3 C 25 %
684 01-12-2019 17:50:17 2.3 C 25 %
685 01-12-2019 18:00:17 2.3 C 25 %
686 01-12-2019 18:10:17 2.3 C 25 %
687 01-12-2019 18:20:17 2.3 C 25 %
688 01-12-2019 18:30:17 2.3 C 25 %
689 01-12-2019 18:40:17 2.3 C 25 %
690 01-12-2019 18:50:17 2.3 C 23 %
691 01-12-2019 19:00:17 2.3 C 23 %
692 01-12-2019 19:10:18 2.4 C 25 %
693 01-12-2019 19:20:17 2.3 C 25 %
694 01-12-2019 19:30:17 2.3 C 25 %
695 01-12-2019 19:40:17 2.3 C 25 %
696 01-12-2019 19:50:17 2.2 C 26 %
697 01-12-2019 20:00:17 2.5 C 25 %
698 01-12-2019 20:10:17 2.2 C 25 %
699 01-12-2019 20:20:17 2.1 C 25 %
700 01-12-2019 20:30:18 2.1 C 25 %
Sensor: Nr:Datum:Temp:Feuchte:
Aussen-T/F 701 01-12-2019 20:40:18 2.1 C 25 %
702 01-12-2019 20:50:17 2 C 27 %
703 01-12-2019 21:00:17 1.9 C 27 %
704 01-12-2019 21:10:17 1.8 C 28 %
705 01-12-2019 21:20:17 1.6 C 30 %
706 01-12-2019 21:30:18 1.5 C 29 %
707 01-12-2019 21:40:18 1.6 C 28 %
708 01-12-2019 21:50:17 1.6 C 28 %
709 01-12-2019 22:00:17 1.5 C 29 %
710 01-12-2019 22:10:17 1.4 C 29 %
711 01-12-2019 22:20:17 1.4 C 30 %
712 01-12-2019 22:30:18 1.3 C 28 %
713 01-12-2019 22:40:18 1.2 C 29 %
714 01-12-2019 22:50:17 1.1 C 29 %
715 01-12-2019 23:00:17 0.8 C 30 %
716 01-12-2019 23:10:17 0.8 C 30 %
717 01-12-2019 23:20:18 0.7 C 30 %
718 01-12-2019 23:30:17 0.5 C 32 %
719 01-12-2019 23:40:17 0.3 C 33 %
720 01-12-2019 23:50:17 0.2 C 33 %
721 02-12-2019 00:00:17 0.1 C 33 %
722 02-12-2019 00:10:17 0.2 C 33 %
723 02-12-2019 00:20:17 0.3 C 32 %
724 02-12-2019 00:30:17 0.3 C 32 %
725 02-12-2019 00:40:17 0.2 C 32 %
Sensor: Nr:Datum:Temp:Feuchte:
Aussen-T/F 726 02-12-2019 00:50:18 0.2 C 35 %
727 02-12-2019 01:00:17 0.1 C 36 %
728 02-12-2019 01:10:17 0 C 38 %
729 02-12-2019 01:20:17 -0.2 C 36 %
730 02-12-2019 01:30:17 0.2 C 34 %
731 02-12-2019 01:40:17 -0.2 C 35 %
732 02-12-2019 01:50:17 -0.9 C 35 %
733 02-12-2019 02:00:18 -0.9 C 37 %
734 02-12-2019 02:10:18 -0.9 C 37 %
735 02-12-2019 02:20:17 -0.5 C 37 %
736 02-12-2019 02:30:17 -1 C 36 %
737 02-12-2019 02:40:17 -1.1 C 37 %
738 02-12-2019 02:50:17 -1.1 C 36 %
739 02-12-2019 03:00:17 -1 C 37 %
740 02-12-2019 03:10:17 -1.2 C 38 %
741 02-12-2019 03:20:17 -1.3 C 37 %
742 02-12-2019 03:30:18 -1.3 C 38 %
743 02-12-2019 03:40:18 -1.4 C 37 %
744 02-12-2019 03:50:17 -1.4 C 37 %
745 02-12-2019 04:00:18 -1.7 C 39 %
746 02-12-2019 04:10:18 -1.4 C 40 %
747 02-12-2019 04:20:17 -1.1 C 40 %
748 02-12-2019 04:30:17 -1 C 40 %
749 02-12-2019 04:40:17 -0.8 C 36 %
750 02-12-2019 04:50:17 -1.1 C 37 %
Sensor: Nr:Datum:Temp:Feuchte:
Aussen-T/F 751 02-12-2019 05:00:17 -1.4 C 40 %
752 02-12-2019 05:10:17 -1.1 C 40 %
753 02-12-2019 05:20:17 -1.2 C 39 %
754 02-12-2019 05:30:17 -1.6 C 40 %
755 02-12-2019 05:40:17 -1.4 C 41 %
756 02-12-2019 05:50:17 -1.3 C 42 %
757 02-12-2019 06:00:17 -1.2 C 41 %
758 02-12-2019 06:10:17 -1.3 C 39 %
759 02-12-2019 06:20:17 -1.2 C 39 %
760 02-12-2019 06:30:17 -1.4 C 38 %
761 02-12-2019 06:40:17 -1.4 C 40 %
762 02-12-2019 06:50:17 -1.8 C 37 %
763 02-12-2019 07:00:17 -2.4 C 38 %
764 02-12-2019 07:10:17 -2.6 C 40 %
765 02-12-2019 07:20:17 -2.9 C 40 %
766 02-12-2019 07:30:17 -2.7 C 42 %
767 02-12-2019 07:40:17 -2.6 C 42 %
768 02-12-2019 07:50:17 -2.4 C 43 %
769 02-12-2019 08:00:17 -1.9 C 45 %
770 02-12-2019 08:10:18 -1.6 C 44 %
771 02-12-2019 08:20:17 -1.3 C 44 %
772 02-12-2019 08:30:17 -1 C 43 %
773 02-12-2019 08:40:17 -0.7 C 43 %
774 02-12-2019 08:50:17 -0.5 C 42 %
775 02-12-2019 09:00:17 -0.5 C 40 %
Sensor: Nr:Datum:Temp:Feuchte:
Aussen-T/F 776 02-12-2019 09:10:17 -0.4 C 38 %
777 02-12-2019 09:20:17 -0.4 C 36 %
778 02-12-2019 09:30:17 -0.4 C 36 %
779 02-12-2019 09:40:17 0 C 36 %
780 02-12-2019 09:50:17 0 C 35 %
781 02-12-2019 10:00:17 0.1 C 35 %
782 02-12-2019 10:10:17 0.1 C 34 %
783 02-12-2019 10:20:17 0.2 C 35 %
784 02-12-2019 10:30:17 0.5 C 36 %
785 02-12-2019 10:40:17 1 C 31 %
786 02-12-2019 10:50:17 0.8 C 31 %
787 02-12-2019 11:00:17 1.2 C 30 %
788 02-12-2019 11:10:17 1.1 C 30 %
789 02-12-2019 11:20:17 1.2 C 30 %
790 02-12-2019 11:30:17 0.9 C 31 %
791 02-12-2019 11:40:18 1 C 31 %
792 02-12-2019 11:50:17 0.8 C 32 %
793 02-12-2019 12:00:18 1.6 C 31 %
794 02-12-2019 12:10:18 2.3 C 27 %
795 02-12-2019 12:20:17 2.8 C 25 %
796 02-12-2019 12:30:17 3.1 C 26 %
797 02-12-2019 12:40:17 3 C 25 %
798 02-12-2019 12:50:18 3.2 C 26 %
799 02-12-2019 13:00:17 3.2 C 26 %
800 02-12-2019 13:10:17 3.5 C 25 %
Sensor: Nr:Datum:Temp:Feuchte:
Aussen-T/F 801 02-12-2019 13:20:17 3.9 C 25 %
802 02-12-2019 13:30:17 3.9 C 25 %
803 02-12-2019 13:40:17 3.8 C 25 %
804 02-12-2019 13:50:17 3.6 C 25 %
805 02-12-2019 14:00:17 4 C 26 %
806 02-12-2019 14:10:17 3.7 C 28 %
807 02-12-2019 14:20:17 3.7 C 30 %
808 02-12-2019 14:30:17 4.1 C 27 %
809 02-12-2019 14:40:17 4.3 C 27 %
810 02-12-2019 14:50:17 4.5 C 27 %
811 02-12-2019 15:00:18 4.3 C 28 %
812 02-12-2019 15:10:18 4.3 C 29 %
813 02-12-2019 15:20:17 4.7 C 27 %
814 02-12-2019 15:30:17 4.4 C 27 %
815 02-12-2019 15:40:17 4.1 C 31 %
816 02-12-2019 15:50:17 3.9 C 36 %
817 02-12-2019 16:00:18 3.7 C 37 %
818 02-12-2019 16:10:18 3.6 C 37 %
819 02-12-2019 16:20:17 3.5 C 40 %
820 02-12-2019 16:30:17 3.5 C 38 %
821 02-12-2019 16:40:17 3.5 C 35 %
822 02-12-2019 16:50:17 3.5 C 35 %
823 02-12-2019 17:00:17 3.3 C 36 %
824 02-12-2019 17:10:17 3.2 C 39 %
825 02-12-2019 17:20:17 3.2 C 36 %
Sensor: Nr:Datum:Temp:Feuchte:
Aussen-T/F 826 02-12-2019 17:30:18 3.3 C 36 %
827 02-12-2019 17:40:18 3.4 C 35 %
828 02-12-2019 17:50:17 3.3 C 35 %
829 02-12-2019 18:01:17 3.1 C 36 %
830 02-12-2019 18:11:17 3.2 C 37 %
831 02-12-2019 18:21:17 3.2 C 36 %
832 02-12-2019 18:30:17 3 C 36 %
833 02-12-2019 18:40:17 2.5 C 40 %
834 02-12-2019 18:50:17 2.2 C 40 %
835 02-12-2019 19:00:17 2.1 C 42 %
836 02-12-2019 19:10:17 2.7 C 43 %
837 02-12-2019 19:21:17 2.7 C 42 %
838 02-12-2019 19:30:17 2.7 C 41 %
839 02-12-2019 19:40:17 2.9 C 42 %
840 02-12-2019 19:51:17 2.9 C 42 %
841 02-12-2019 20:01:17 2.9 C 39 %
842 02-12-2019 20:11:17 2.8 C 38 %
843 02-12-2019 20:21:17 2.9 C 37 %
844 02-12-2019 20:31:17 2.9 C 38 %
845 02-12-2019 20:40:17 2.8 C 40 %
846 02-12-2019 20:51:17 2.7 C 42 %
847 02-12-2019 21:00:17 2.7 C 42 %
848 02-12-2019 21:10:17 2.7 C 42 %
849 02-12-2019 21:21:17 2.7 C 42 %
850 02-12-2019 21:30:18 2.7 C 42 %
Sensor: Nr:Datum:Temp:Feuchte:
Aussen-T/F 851 02-12-2019 21:40:18 2.6 C 41 %
852 02-12-2019 21:51:17 2.6 C 42 %
853 02-12-2019 22:01:17 2.6 C 41 %
854 02-12-2019 22:11:17 2.6 C 41 %
855 02-12-2019 22:21:17 2.6 C 41 %
856 02-12-2019 22:30:18 2.5 C 40 %
857 02-12-2019 22:40:18 2.5 C 41 %
858 02-12-2019 22:51:17 2.4 C 41 %
859 02-12-2019 23:01:17 2.5 C 41 %
860 02-12-2019 23:11:17 2.4 C 42 %
861 02-12-2019 23:21:17 2.5 C 42 %
862 02-12-2019 23:31:17 2.5 C 42 %
863 02-12-2019 23:41:17 2.5 C 42 %
864 02-12-2019 23:50:18 2.5 C 42 %
865 03-12-2019 00:01:17 2.5 C 42 %
866 03-12-2019 00:11:17 2.5 C 42 %
867 03-12-2019 00:21:17 2.5 C 41 %
868 03-12-2019 00:30:18 2.5 C 41 %
869 03-12-2019 00:40:18 2.6 C 41 %
870 03-12-2019 00:51:17 2.6 C 41 %
871 03-12-2019 01:01:18 2.6 C 41 %
872 03-12-2019 01:11:18 2.6 C 41 %
873 03-12-2019 01:21:17 2.7 C 41 %
874 03-12-2019 01:31:17 2.7 C 41 %
875 03-12-2019 01:41:17 2.7 C 42 %
Sensor: Nr:Datum:Temp:Feuchte:
Aussen-T/F 876 03-12-2019 01:51:17 2.7 C 42 %
877 03-12-2019 02:01:17 2.7 C 42 %
878 03-12-2019 02:11:17 2.8 C 42 %
879 03-12-2019 02:21:17 2.8 C 42 %
880 03-12-2019 02:31:17 2.8 C 42 %
881 03-12-2019 02:41:17 2.9 C 42 %
882 03-12-2019 02:51:17 2.8 C 42 %
883 03-12-2019 03:01:17 2.8 C 42 %
884 03-12-2019 03:11:17 2.8 C 42 %
885 03-12-2019 03:21:17 2.8 C 42 %
886 03-12-2019 03:31:17 2.9 C 42 %
887 03-12-2019 03:41:17 3 C 42 %
888 03-12-2019 03:51:17 3 C 42 %
889 03-12-2019 04:01:17 3 C 42 %
890 03-12-2019 04:11:17 3 C 42 %
891 03-12-2019 04:21:17 3 C 42 %
892 03-12-2019 04:31:17 3.1 C 42 %
893 03-12-2019 04:41:17 3.1 C 42 %
894 03-12-2019 04:51:17 3.1 C 42 %
895 03-12-2019 05:01:17 3.1 C 42 %
896 03-12-2019 05:11:17 3.1 C 42 %
897 03-12-2019 05:21:17 3.1 C 42 %
898 03-12-2019 05:31:17 3.2 C 42 %
899 03-12-2019 05:41:17 3.2 C 41 %
900 03-12-2019 05:51:17 3.2 C 41 %
Sensor: Nr:Datum:Temp:Feuchte:
Aussen-T/F 901 03-12-2019 06:01:18 3.2 C 41 %
902 03-12-2019 06:11:18 3.2 C 41 %
903 03-12-2019 06:21:17 3.2 C 41 %
904 03-12-2019 06:31:17 3.3 C 41 %
905 03-12-2019 06:41:17 3.3 C 41 %
906 03-12-2019 06:51:18 3.3 C 41 %
907 03-12-2019 07:01:17 3.3 C 41 %
908 03-12-2019 07:11:17 3.3 C 41 %
909 03-12-2019 07:21:17 3.3 C 41 %
910 03-12-2019 07:31:17 3.2 C 41 %
911 03-12-2019 07:41:17 3.3 C 41 %
912 03-12-2019 07:51:17 3.3 C 42 %
913 03-12-2019 08:01:17 3.3 C 42 %
914 03-12-2019 08:11:17 3.4 C 42 %
915 03-12-2019 08:21:17 3.3 C 42 %
916 03-12-2019 08:31:17 3.4 C 42 %
917 03-12-2019 08:41:17 3.4 C 41 %
918 03-12-2019 08:51:17 3.4 C 41 %
919 03-12-2019 09:01:17 3.5 C 42 %
920 03-12-2019 09:11:17 3.5 C 42 %
921 03-12-2019 09:21:17 3.5 C 41 %
922 03-12-2019 09:31:17 3.6 C 41 %
923 03-12-2019 09:41:17 3.6 C 41 %
924 03-12-2019 09:51:17 3.7 C 41 %
925 03-12-2019 10:01:17 3.7 C 41 %
Sensor: Nr:Datum:Temp:Feuchte:
Aussen-T/F 926 03-12-2019 10:11:17 3.8 C 41 %
927 03-12-2019 10:21:17 3.8 C 41 %
928 03-12-2019 10:31:17 3.8 C 41 %
929 03-12-2019 10:41:17 4.1 C 40 %
930 03-12-2019 10:51:17 4.1 C 40 %
931 03-12-2019 11:01:18 4.3 C 39 %
932 03-12-2019 11:11:18 4.3 C 37 %
933 03-12-2019 11:21:17 4.4 C 37 %
934 03-12-2019 11:31:17 4.6 C 37 %
935 03-12-2019 11:41:17 4.6 C 37 %
936 03-12-2019 11:51:17 4.7 C 37 %
937 03-12-2019 12:01:17 4.7 C 37 %
938 03-12-2019 12:11:17 4.9 C 35 %
939 03-12-2019 12:21:17 5 C 34 %
940 03-12-2019 12:31:17 5 C 35 %
941 03-12-2019 12:41:17 5.2 C 35 %
942 03-12-2019 12:51:18 5.3 C 34 %
943 03-12-2019 13:01:17 5.6 C 34 %
944 03-12-2019 13:11:17 5.8 C 33 %
945 03-12-2019 13:21:17 5.8 C 32 %
946 03-12-2019 13:31:17 5.7 C 32 %
947 03-12-2019 13:41:17 5.9 C 32 %
948 03-12-2019 13:51:18 6.1 C 31 %
949 03-12-2019 14:01:17 6.1 C 31 %
950 03-12-2019 14:11:17 6.2 C 31 %
Sensor: Nr:Datum:Temp:Feuchte:
Aussen-T/F 951 03-12-2019 14:21:17 6.1 C 31 %
952 03-12-2019 14:31:17 6.3 C 31 %
953 03-12-2019 14:41:17 6.2 C 30 %
954 03-12-2019 14:51:18 6.4 C 31 %
955 03-12-2019 15:01:17 6.2 C 30 %
956 03-12-2019 15:11:17 6.3 C 31 %
957 03-12-2019 15:21:17 6.3 C 31 %
958 03-12-2019 15:31:17 6.2 C 31 %
959 03-12-2019 15:41:17 6.1 C 32 %
960 03-12-2019 15:51:17 6 C 33 %
961 03-12-2019 16:01:17 5.7 C 36 %
962 03-12-2019 16:11:17 5.6 C 39 %
963 03-12-2019 16:21:17 5.4 C 40 %
964 03-12-2019 16:31:18 5.3 C 41 %
965 03-12-2019 16:41:18 5.2 C 41 %
966 03-12-2019 16:51:17 5.2 C 41 %
967 03-12-2019 17:01:18 5.1 C 41 %
968 03-12-2019 17:11:18 5.1 C 41 %
969 03-12-2019 17:21:17 5.1 C 41 %
970 03-12-2019 17:31:17 5 C 41 %
971 03-12-2019 17:41:17 5 C 41 %
972 03-12-2019 17:51:17 5 C 41 %
973 03-12-2019 18:01:18 4.8 C 41 %
974 03-12-2019 18:11:18 4.7 C 40 %
975 03-12-2019 18:21:17 4.7 C 40 %
Sensor: Nr:Datum:Temp:Feuchte:
Aussen-T/F 976 03-12-2019 18:31:18 4.7 C 40 %
977 03-12-2019 18:41:18 4.7 C 40 %
978 03-12-2019 18:51:17 4.7 C 40 %
979 03-12-2019 19:01:17 4.7 C 40 %
980 03-12-2019 19:11:17 4.6 C 39 %
981 03-12-2019 19:21:17 4.6 C 38 %
982 03-12-2019 19:31:17 4.6 C 38 %
983 03-12-2019 19:41:17 4.4 C 37 %
984 03-12-2019 19:51:17 4.3 C 38 %
985 03-12-2019 20:01:17 4.3 C 39 %
986 03-12-2019 20:11:17 4.3 C 38 %
987 03-12-2019 20:21:18 4.2 C 37 %
988 03-12-2019 20:31:17 4.2 C 38 %
989 03-12-2019 20:41:18 4.1 C 39 %
990 03-12-2019 20:51:17 3.9 C 40 %
991 03-12-2019 21:01:17 3.9 C 41 %
992 03-12-2019 21:11:17 4 C 40 %
993 03-12-2019 21:21:17 4 C 40 %
994 03-12-2019 21:31:17 3.8 C 40 %
995 03-12-2019 21:41:17 3.5 C 40 %
996 03-12-2019 21:51:17 3.3 C 40 %
997 03-12-2019 22:01:17 2.9 C 41 %
998 03-12-2019 22:11:17 2.8 C 42 %
999 03-12-2019 22:21:18 2.8 C 42 %
1000 03-12-2019 22:31:18 3.3 C 42 %
Sensor: Nr:Datum:Temp:Feuchte:
Aussen-T/F 1001 03-12-2019 22:41:18 3.5 C 40 %
1002 03-12-2019 22:51:17 3.2 C 38 %
1003 03-12-2019 23:01:18 2.6 C 39 %
1004 03-12-2019 23:11:18 2.5 C 41 %
1005 03-12-2019 23:21:17 2.5 C 41 %
1006 03-12-2019 23:31:17 2.2 C 40 %
1007 03-12-2019 23:41:17 2.8 C 40 %
1008 03-12-2019 23:51:17 2.6 C 38 %
1009 04-12-2019 00:01:18 2.3 C 39 %
1010 04-12-2019 00:11:18 1.7 C 41 %
1011 04-12-2019 00:21:17 1.3 C 42 %
1012 04-12-2019 00:31:17 0.9 C 43 %
1013 04-12-2019 00:41:17 0.4 C 43 %
1014 04-12-2019 00:51:17 0.6 C 45 %
1015 04-12-2019 01:01:18 0.2 C 44 %
1016 04-12-2019 01:11:18 0.2 C 45 %
1017 04-12-2019 01:21:17 0 C 44 %
1018 04-12-2019 01:31:17 -0.1 C 45 %
1019 04-12-2019 01:41:17 0.1 C 45 %
1020 04-12-2019 01:51:18 -0.3 C 45 %
1021 04-12-2019 02:01:17 -0.3 C 45 %
1022 04-12-2019 02:11:17 -0.2 C 45 %
1023 04-12-2019 02:21:17 -0.5 C 45 %
1024 04-12-2019 02:31:18 -0.4 C 45 %
1025 04-12-2019 02:41:18 0.1 C 45 %
Sensor: Nr:Datum:Temp:Feuchte:
Aussen-T/F 1026 04-12-2019 02:51:17 0.3 C 45 %
1027 04-12-2019 03:01:18 0.6 C 45 %
1028 04-12-2019 03:11:18 0.9 C 45 %
1029 04-12-2019 03:21:17 0.9 C 45 %
1030 04-12-2019 03:31:17 1 C 44 %
1031 04-12-2019 03:41:17 1 C 44 %
1032 04-12-2019 03:51:17 1 C 44 %
1033 04-12-2019 04:01:18 0.8 C 45 %
1034 04-12-2019 04:11:18 0.9 C 45 %
1035 04-12-2019 04:21:17 0.8 C 45 %
1036 04-12-2019 04:31:17 0.8 C 45 %
1037 04-12-2019 04:41:17 0.8 C 45 %
1038 04-12-2019 04:51:17 0.8 C 45 %
1039 04-12-2019 05:01:17 0.8 C 45 %
1040 04-12-2019 05:11:17 0.8 C 44 %
1041 04-12-2019 05:21:17 0.8 C 44 %
1042 04-12-2019 05:31:17 1 C 43 %
1043 04-12-2019 05:41:17 1 C 43 %
1044 04-12-2019 05:51:18 1 C 43 %
1045 04-12-2019 06:01:17 1 C 43 %
1046 04-12-2019 06:11:17 1.1 C 43 %
1047 04-12-2019 06:21:17 1.2 C 43 %
1048 04-12-2019 06:31:17 1.2 C 43 %
1049 04-12-2019 06:41:18 1.2 C 43 %
1050 04-12-2019 06:51:17 1.2 C 43 %
Sensor: Nr:Datum:Temp:Feuchte:
Aussen-T/F 1051 04-12-2019 07:01:17 1.1 C 43 %
1052 04-12-2019 07:11:17 1.1 C 43 %
1053 04-12-2019 07:21:18 1.1 C 43 %
1054 04-12-2019 07:31:17 1 C 43 %
1055 04-12-2019 07:41:17 0.9 C 44 %
1056 04-12-2019 07:51:17 1 C 43 %
1057 04-12-2019 08:01:17 0.9 C 44 %
1058 04-12-2019 08:11:17 0.9 C 44 %
1059 04-12-2019 08:21:17 0.9 C 44 %
1060 04-12-2019 08:31:17 0.9 C 44 %
1061 04-12-2019 08:41:17 1 C 42 %
1062 04-12-2019 08:51:17 1 C 42 %
1063 04-12-2019 09:01:18 1 C 42 %
1064 04-12-2019 09:11:18 1.2 C 42 %
1065 04-12-2019 09:21:18 1.2 C 42 %
1066 04-12-2019 09:31:17 1.2 C 41 %
1067 04-12-2019 09:41:17 1.2 C 41 %
1068 04-12-2019 09:51:17 1.4 C 41 %
1069 04-12-2019 10:01:17 1.5 C 41 %
1070 04-12-2019 10:11:18 1.4 C 39 %
1071 04-12-2019 10:21:17 1.3 C 38 %
1072 04-12-2019 10:31:17 1.1 C 37 %
1073 04-12-2019 10:41:17 1.1 C 37 %
1074 04-12-2019 10:51:18 1 C 38 %
1075 04-12-2019 11:01:17 1 C 38 %
Sensor: Nr:Datum:Temp:Feuchte:
Aussen-T/F 1076 04-12-2019 11:11:17 1.1 C 39 %
1077 04-12-2019 11:21:17 1.1 C 39 %
1078 04-12-2019 11:31:18 1.1 C 40 %
1079 04-12-2019 11:41:18 1 C 40 %
1080 04-12-2019 11:51:17 1.1 C 41 %
1081 04-12-2019 12:01:17 1.2 C 41 %
1082 04-12-2019 12:11:17 1.3 C 41 %
1083 04-12-2019 12:21:18 1.3 C 41 %
1084 04-12-2019 12:31:17 1.5 C 41 %
1085 04-12-2019 12:41:17 1.5 C 41 %
1086 04-12-2019 12:51:17 1.6 C 41 %
1087 04-12-2019 13:01:17 1.6 C 41 %
1088 04-12-2019 13:11:17 1.7 C 41 %
1089 04-12-2019 13:21:17 1.8 C 40 %
1090 04-12-2019 13:31:18 1.8 C 40 %
1091 04-12-2019 13:41:18 2.1 C 38 %
1092 04-12-2019 13:51:17 2.1 C 37 %
1093 04-12-2019 14:01:17 2.1 C 37 %
1094 04-12-2019 14:11:17 2.1 C 36 %
1095 04-12-2019 14:21:17 2.1 C 36 %
1096 04-12-2019 14:31:18 2 C 36 %
1097 04-12-2019 14:41:18 2.2 C 35 %
1098 04-12-2019 14:51:17 2.1 C 36 %
1099 04-12-2019 15:01:18 2 C 37 %
1100 04-12-2019 15:11:18 1.7 C 38 %
Sensor: Nr:Datum:Temp:Feuchte:
Aussen-T/F 1101 04-12-2019 15:21:17 1.7 C 40 %
1102 04-12-2019 15:31:17 1.7 C 40 %
1103 04-12-2019 15:41:17 1.8 C 39 %
1104 04-12-2019 15:51:18 1.8 C 39 %
1105 04-12-2019 16:01:17 1.6 C 37 %
1106 04-12-2019 16:11:17 1.5 C 37 %
1107 04-12-2019 16:21:17 1.4 C 37 %
1108 04-12-2019 16:31:17 1.4 C 37 %
1109 04-12-2019 16:41:17 1.2 C 37 %
1110 04-12-2019 16:51:17 1.1 C 36 %
1111 04-12-2019 17:01:17 1 C 37 %
1112 04-12-2019 17:11:17 1 C 37 %
1113 04-12-2019 17:21:18 1 C 36 %
1114 04-12-2019 17:31:17 0.9 C 38 %
1115 04-12-2019 17:41:17 0.6 C 38 %
1116 04-12-2019 17:51:18 0.7 C 39 %
1117 04-12-2019 18:01:17 0.8 C 38 %
1118 04-12-2019 18:11:17 0.3 C 39 %
1119 04-12-2019 18:21:17 0.4 C 40 %
1120 04-12-2019 18:31:17 0.6 C 40 %
1121 04-12-2019 18:41:17 -0.2 C 40 %
1122 04-12-2019 18:51:17 -0.5 C 41 %
1123 04-12-2019 19:01:17 -0.3 C 44 %
1124 04-12-2019 19:11:17 -0.7 C 42 %
1125 04-12-2019 19:21:17 -1.1 C 42 %
Sensor: Nr:Datum:Temp:Feuchte:
Aussen-T/F 1126 04-12-2019 19:31:17 -1 C 44 %
1127 04-12-2019 19:41:17 -1.2 C 44 %
1128 04-12-2019 19:51:17 -1.4 C 43 %
1129 04-12-2019 20:01:17 -1.3 C 44 %
1130 04-12-2019 20:11:17 -1.1 C 45 %
1131 04-12-2019 20:21:17 -1.5 C 44 %
1132 04-12-2019 20:31:17 -1.5 C 44 %
1133 04-12-2019 20:41:17 -1.8 C 43 %
1134 04-12-2019 20:51:18 -1.9 C 44 %
1135 04-12-2019 21:01:18 -1.9 C 44 %
1136 04-12-2019 21:11:18 -1.7 C 44 %
1137 04-12-2019 21:21:17 -2 C 43 %
1138 04-12-2019 21:31:17 -2 C 43 %
1139 04-12-2019 21:41:17 -2.4 C 43 %
1140 04-12-2019 21:51:17 -2.4 C 43 %
1141 04-12-2019 22:01:17 -2.5 C 43 %
1142 04-12-2019 22:11:17 -2.6 C 43 %
1143 04-12-2019 22:21:17 -2.7 C 44 %
1144 04-12-2019 22:31:18 -2.8 C 43 %
1145 04-12-2019 22:41:18 -2.7 C 43 %
1146 04-12-2019 22:51:17 -2.5 C 43 %
1147 04-12-2019 23:01:17 -2.6 C 42 %
1148 04-12-2019 23:11:17 -2.9 C 42 %
1149 04-12-2019 23:21:17 -2.7 C 42 %
1150 04-12-2019 23:31:17 -2.7 C 42 %
Sensor: Nr:Datum:Temp:Feuchte:
Aussen-T/F 1151 04-12-2019 23:41:17 -2.9 C 41 %
1152 04-12-2019 23:51:18 -2.9 C 42 %
1153 05-12-2019 00:01:17 -3 C 41 %
1154 05-12-2019 00:11:17 -3 C 41 %
1155 05-12-2019 00:21:17 -3.1 C 41 %
1156 05-12-2019 00:31:18 -2.8 C 41 %
1157 05-12-2019 00:41:18 -2.8 C 41 %
1158 05-12-2019 00:51:17 -2.9 C 41 %
1159 05-12-2019 01:01:17 -2.9 C 41 %
1160 05-12-2019 01:11:17 -3.2 C 41 %
1161 05-12-2019 01:21:17 -2.5 C 43 %
1162 05-12-2019 01:31:18 -2.6 C 43 %
1163 05-12-2019 01:41:18 -2.7 C 43 %
1164 05-12-2019 01:51:17 -2.6 C 43 %
1165 05-12-2019 02:01:17 -2.6 C 42 %
1166 05-12-2019 02:11:18 -2.8 C 41 %
1167 05-12-2019 02:21:17 -3 C 41 %
1168 05-12-2019 02:31:17 -3.2 C 41 %
1169 05-12-2019 02:41:17 -3.2 C 41 %
1170 05-12-2019 02:51:17 -3.2 C 41 %
1171 05-12-2019 03:01:17 -3.4 C 40 %
1172 05-12-2019 03:11:17 -3.5 C 40 %
1173 05-12-2019 03:21:17 -3.3 C 41 %
1174 05-12-2019 03:31:17 -3.2 C 41 %
1175 05-12-2019 03:41:17 -3.6 C 40 %
Sensor: Nr:Datum:Temp:Feuchte:
Aussen-T/F 1176 05-12-2019 03:51:17 -3 C 43 %
1177 05-12-2019 04:01:17 -2.7 C 43 %
1178 05-12-2019 04:11:17 -2.7 C 43 %
1179 05-12-2019 04:21:17 -2.7 C 43 %
1180 05-12-2019 04:31:18 -2.9 C 42 %
1181 05-12-2019 04:41:18 -3.3 C 40 %
1182 05-12-2019 04:51:17 -2.9 C 42 %
1183 05-12-2019 05:01:17 -2.8 C 43 %
1184 05-12-2019 05:11:17 -2.8 C 42 %
1185 05-12-2019 05:21:17 -2.7 C 43 %
1186 05-12-2019 05:31:17 -2.7 C 43 %
1187 05-12-2019 05:41:18 -2.5 C 43 %
1188 05-12-2019 05:51:17 -2.5 C 43 %
1189 05-12-2019 06:01:17 -2.6 C 43 %
1190 05-12-2019 06:11:17 -2.7 C 43 %
1191 05-12-2019 06:21:17 -2.9 C 43 %
1192 05-12-2019 06:31:17 -2.9 C 43 %
1193 05-12-2019 06:41:17 -3 C 42 %
1194 05-12-2019 06:51:17 -2.9 C 43 %
1195 05-12-2019 07:01:17 -2.9 C 42 %
1196 05-12-2019 07:11:17 -2.9 C 42 %
1197 05-12-2019 07:21:17 -3.2 C 42 %
1198 05-12-2019 07:31:17 -3.1 C 42 %
1199 05-12-2019 07:41:18 -2.9 C 42 %
1200 05-12-2019 07:51:17 -2.9 C 42 %
Sensor: Nr:Datum:Temp:Feuchte:
Aussen-T/F 1201 05-12-2019 08:01:17 -3 C 42 %
1202 05-12-2019 08:11:17 -2.8 C 43 %
1203 05-12-2019 08:21:18 -2.9 C 42 %
1204 05-12-2019 08:31:17 -2.8 C 42 %
1205 05-12-2019 08:41:17 -3 C 42 %
1206 05-12-2019 08:51:17 -3 C 42 %
1207 05-12-2019 09:01:18 -2.7 C 43 %
1208 05-12-2019 09:11:18 -2.6 C 43 %
1209 05-12-2019 09:21:17 -2.6 C 42 %
1210 05-12-2019 09:31:17 -2.6 C 42 %
1211 05-12-2019 09:41:17 -2.5 C 43 %
1212 05-12-2019 09:51:17 -2.4 C 42 %
1213 05-12-2019 10:01:18 -2.3 C 42 %
1214 05-12-2019 10:11:18 -2.4 C 42 %
1215 05-12-2019 10:21:17 -2.1 C 43 %
1216 05-12-2019 10:31:17 -1.7 C 43 %
1217 05-12-2019 10:41:17 -2 C 42 %
1218 05-12-2019 10:51:18 -1.7 C 42 %
1219 05-12-2019 11:01:17 -1.7 C 43 %
1220 05-12-2019 11:11:17 -1.4 C 42 %
1221 05-12-2019 11:21:17 -1.2 C 41 %
1222 05-12-2019 11:31:18 -1.2 C 41 %
1223 05-12-2019 11:41:18 -0.7 C 42 %
1224 05-12-2019 11:51:17 -0.9 C 42 %
1225 05-12-2019 12:01:18 -1 C 41 %
Sensor: Nr:Datum:Temp:Feuchte:
Aussen-T/F 1226 05-12-2019 12:11:18 -0.8 C 41 %
1227 05-12-2019 12:21:17 -0.6 C 41 %
1228 05-12-2019 12:31:17 -0.8 C 40 %
1229 05-12-2019 12:41:17 -0.9 C 40 %
1230 05-12-2019 12:51:18 -0.6 C 41 %
1231 05-12-2019 13:01:17 -0.5 C 40 %
1232 05-12-2019 13:11:17 -0.6 C 40 %
1233 05-12-2019 13:21:17 -0.4 C 41 %
1234 05-12-2019 13:31:17 -0.4 C 41 %
1235 05-12-2019 13:41:17 -0.2 C 41 %
1236 05-12-2019 13:51:17 0.1 C 40 %
1237 05-12-2019 14:01:18 0.1 C 40 %
1238 05-12-2019 14:11:18 0.2 C 40 %
1239 05-12-2019 14:21:17 0.2 C 40 %
1240 05-12-2019 14:31:17 0.2 C 40 %
1241 05-12-2019 14:41:17 0.2 C 40 %
1242 05-12-2019 14:51:17 0.2 C 41 %
1243 05-12-2019 15:01:17 0.1 C 41 %
1244 05-12-2019 15:11:17 0 C 41 %
1245 05-12-2019 15:21:17 -0.1 C 42 %
1246 05-12-2019 15:31:17 -0.1 C 43 %
1247 05-12-2019 15:41:17 -0.1 C 44 %
1248 05-12-2019 15:51:18 -0.1 C 44 %
1249 05-12-2019 16:01:17 -0.4 C 44 %
1250 05-12-2019 16:11:17 -0.5 C 44 %
Sensor: Nr:Datum:Temp:Feuchte:
Aussen-T/F 1251 05-12-2019 16:21:17 -0.7 C 45 %
1252 05-12-2019 16:31:18 -0.8 C 44 %
1253 05-12-2019 16:41:18 -1 C 44 %
1254 05-12-2019 16:51:17 -1 C 44 %
1255 05-12-2019 17:01:17 -1.2 C 44 %
1256 05-12-2019 17:11:17 -1.1 C 45 %
1257 05-12-2019 17:21:18 -1.2 C 45 %
1258 05-12-2019 17:31:17 -1.3 C 44 %
1259 05-12-2019 17:41:17 -1.7 C 44 %
1260 05-12-2019 17:51:17 -1.6 C 44 %
1261 05-12-2019 18:01:18 -1.8 C 43 %
1262 05-12-2019 18:11:18 -2 C 43 %
1263 05-12-2019 18:21:17 -2 C 43 %
1264 05-12-2019 18:31:17 -2 C 43 %
1265 05-12-2019 18:41:17 -2.2 C 43 %
1266 05-12-2019 18:51:18 -2.5 C 42 %
1267 05-12-2019 19:01:17 -2.1 C 43 %
1268 05-12-2019 19:11:17 -2.1 C 44 %
1269 05-12-2019 19:21:17 -2.6 C 42 %
1270 05-12-2019 19:31:17 -2.9 C 41 %
1271 05-12-2019 19:41:17 -2.6 C 42 %
1272 05-12-2019 19:51:18 -1.9 C 43 %
1273 05-12-2019 20:01:17 -1.5 C 44 %
1274 05-12-2019 20:11:17 -1.6 C 43 %
1275 05-12-2019 20:21:17 -1.5 C 43 %
Sensor: Nr:Datum:Temp:Feuchte:
Aussen-T/F 1276 05-12-2019 20:31:17 -1.9 C 42 %
1277 05-12-2019 20:41:17 -2 C 42 %
1278 05-12-2019 20:51:18 -2.1 C 42 %
1279 05-12-2019 21:01:17 -2.3 C 42 %
1280 05-12-2019 21:11:17 -2.6 C 42 %
1281 05-12-2019 21:21:17 -2.1 C 43 %
1282 05-12-2019 21:31:17 -2 C 43 %
1283 05-12-2019 21:41:17 -2 C 43 %
1284 05-12-2019 21:51:17 -2 C 43 %
1285 05-12-2019 22:01:17 -2.3 C 42 %
1286 05-12-2019 22:11:17 -2.3 C 42 %
1287 05-12-2019 22:21:18 -2.2 C 42 %
1288 05-12-2019 22:31:17 -2.4 C 42 %
1289 05-12-2019 22:41:17 -2.4 C 42 %
1290 05-12-2019 22:51:17 -2.3 C 42 %
1291 05-12-2019 23:01:17 -2.6 C 41 %
1292 05-12-2019 23:11:17 -2.7 C 41 %
1293 05-12-2019 23:21:18 -2.7 C 42 %
1294 05-12-2019 23:31:17 -3.1 C 41 %
1295 05-12-2019 23:41:17 -3.3 C 41 %
1296 05-12-2019 23:51:17 -3.2 C 42 %
1297 06-12-2019 00:01:18 -2.9 C 42 %
1298 06-12-2019 00:11:18 -3.4 C 40 %
1299 06-12-2019 00:21:17 -3.8 C 40 %
1300 06-12-2019 00:31:17 -3.4 C 42 %
Sensor: Nr:Datum:Temp:Feuchte:
Aussen-T/F 1301 06-12-2019 00:41:17 -3.2 C 42 %
1302 06-12-2019 00:51:17 -2.7 C 43 %
1303 06-12-2019 01:01:17 -2.4 C 43 %
1304 06-12-2019 01:11:17 -2.1 C 43 %
1305 06-12-2019 01:21:17 -2 C 41 %
1306 06-12-2019 01:31:18 -1.8 C 42 %
1307 06-12-2019 01:41:18 -1.6 C 43 %
1308 06-12-2019 01:51:17 -1.6 C 43 %
1309 06-12-2019 02:01:17 -1.4 C 42 %
1310 06-12-2019 02:11:17 -1.4 C 40 %
1311 06-12-2019 02:21:17 -1.6 C 40 %
1312 06-12-2019 02:31:17 -1.5 C 40 %
1313 06-12-2019 02:41:17 -1.7 C 39 %
1314 06-12-2019 02:51:17 -1.6 C 40 %
1315 06-12-2019 03:01:18 -1.4 C 39 %
1316 06-12-2019 03:11:18 -1.2 C 39 %
1317 06-12-2019 03:21:17 -1 C 38 %
1318 06-12-2019 03:31:17 -1 C 37 %
1319 06-12-2019 03:41:17 -1 C 38 %
1320 06-12-2019 03:51:17 -1.1 C 37 %
1321 06-12-2019 04:01:17 -1.2 C 38 %
1322 06-12-2019 04:11:17 -1.3 C 37 %
1323 06-12-2019 04:21:17 -1.3 C 38 %
1324 06-12-2019 04:31:17 -1.1 C 38 %
1325 06-12-2019 04:41:17 -1.1 C 38 %
Sensor: Nr:Datum:Temp:Feuchte:
Aussen-T/F 1326 06-12-2019 04:51:17 -0.8 C 38 %
1327 06-12-2019 05:01:17 -1 C 38 %
1328 06-12-2019 05:11:17 -0.8 C 37 %
1329 06-12-2019 05:21:17 -0.9 C 36 %
1330 06-12-2019 05:31:18 -1 C 37 %
1331 06-12-2019 05:41:18 -0.8 C 38 %
1332 06-12-2019 05:51:17 -0.6 C 36 %
1333 06-12-2019 06:01:17 -0.6 C 35 %
1334 06-12-2019 06:11:17 -0.6 C 36 %
1335 06-12-2019 06:21:17 -0.5 C 36 %
1336 06-12-2019 06:31:17 -0.5 C 35 %
1337 06-12-2019 06:41:17 -0.4 C 36 %
1338 06-12-2019 06:51:18 -0.4 C 37 %
1339 06-12-2019 07:01:17 -0.4 C 38 %
1340 06-12-2019 07:11:17 -0.4 C 38 %
1341 06-12-2019 07:21:17 -0.1 C 37 %
1342 06-12-2019 07:31:17 0 C 36 %
1343 06-12-2019 07:41:17 0.2 C 34 %
1344 06-12-2019 07:51:18 0.4 C 32 %
1345 06-12-2019 08:01:17 0.4 C 32 %
1346 06-12-2019 08:11:17 0.4 C 32 %
1347 06-12-2019 08:21:17 0.4 C 35 %
1348 06-12-2019 08:31:17 0.6 C 32 %
1349 06-12-2019 08:41:17 0.5 C 35 %
1350 06-12-2019 08:51:18 0.5 C 35 %
Sensor: Nr:Datum:Temp:Feuchte:
Aussen-T/F 1351 06-12-2019 09:01:17 0.6 C 36 %
1352 06-12-2019 09:11:17 0.8 C 36 %
1353 06-12-2019 09:21:17 1.2 C 33 %
1354 06-12-2019 09:31:17 1.4 C 33 %
1355 06-12-2019 09:41:17 1.5 C 33 %
1356 06-12-2019 09:51:17 1.7 C 34 %
1357 06-12-2019 10:01:17 1.8 C 33 %
1358 06-12-2019 10:11:17 1.8 C 35 %
1359 06-12-2019 10:21:18 1.9 C 36 %
1360 06-12-2019 10:31:17 1.9 C 36 %
1361 06-12-2019 10:41:17 2.4 C 35 %
1362 06-12-2019 10:51:17 2.5 C 35 %
1363 06-12-2019 11:01:18 2.7 C 35 %
1364 06-12-2019 11:11:18 3.2 C 32 %
1365 06-12-2019 11:21:17 3.3 C 32 %
1366 06-12-2019 11:31:17 3.5 C 32 %
1367 06-12-2019 11:41:17 3.5 C 32 %
1368 06-12-2019 11:51:17 3.5 C 33 %
1369 06-12-2019 12:01:17 3.6 C 33 %
1370 06-12-2019 12:11:17 3.6 C 33 %
1371 06-12-2019 12:21:17 3.6 C 35 %
1372 06-12-2019 12:31:18 3.7 C 37 %
1373 06-12-2019 12:41:18 3.7 C 39 %
1374 06-12-2019 12:51:17 3.7 C 40 %
1375 06-12-2019 13:01:17 3.8 C 39 %
Sensor: Nr:Datum:Temp:Feuchte:
Aussen-T/F 1376 06-12-2019 13:11:17 3.9 C 38 %
1377 06-12-2019 13:21:17 4 C 36 %
1378 06-12-2019 13:31:18 4.2 C 35 %
1379 06-12-2019 13:41:18 4.2 C 35 %
1380 06-12-2019 13:51:17 4.1 C 36 %
1381 06-12-2019 14:01:17 4.1 C 39 %
1382 06-12-2019 14:11:17 4.2 C 40 %
1383 06-12-2019 14:21:17 4.2 C 38 %
1384 06-12-2019 14:31:18 4.2 C 38 %
1385 06-12-2019 14:41:18 4.4 C 38 %
1386 06-12-2019 14:51:17 4.4 C 39 %
1387 06-12-2019 15:01:17 4.3 C 38 %
1388 06-12-2019 15:11:17 4.4 C 38 %
1389 06-12-2019 15:21:17 4.7 C 36 %
1390 06-12-2019 15:31:17 4.5 C 37 %
1391 06-12-2019 15:41:17 4.5 C 37 %
1392 06-12-2019 15:51:18 4.6 C 37 %
1393 06-12-2019 16:01:18 4.8 C 38 %
1394 06-12-2019 16:11:18 5 C 34 %
1395 06-12-2019 16:21:17 5.2 C 32 %
1396 06-12-2019 16:31:17 5.1 C 32 %
1397 06-12-2019 16:41:17 5.3 C 32 %
1398 06-12-2019 16:51:17 5.2 C 31 %
1399 06-12-2019 17:01:17 5.2 C 31 %
1400 06-12-2019 17:11:17 5.3 C 31 %
Sensor: Nr:Datum:Temp:Feuchte:
Aussen-T/F 1401 06-12-2019 17:21:17 5.3 C 30 %
1402 06-12-2019 17:31:18 5.5 C 30 %
1403 06-12-2019 17:41:18 5.6 C 29 %
1404 06-12-2019 17:51:17 5.5 C 30 %
1405 06-12-2019 18:01:17 5.9 C 29 %
1406 06-12-2019 18:11:17 6 C 28 %
1407 06-12-2019 18:21:18 6.2 C 29 %
1408 06-12-2019 18:31:17 6.1 C 28 %
1409 06-12-2019 18:41:17 6.1 C 29 %
1410 06-12-2019 18:51:17 5.9 C 30 %
1411 06-12-2019 19:01:17 5.6 C 31 %
1412 06-12-2019 19:11:17 5.8 C 32 %
1413 06-12-2019 19:21:17 5.9 C 31 %
1414 06-12-2019 19:31:17 6.2 C 30 %
1415 06-12-2019 19:41:17 6.5 C 28 %
1416 06-12-2019 19:51:17 6.5 C 28 %
1417 06-12-2019 20:01:17 6.8 C 28 %
1418 06-12-2019 20:11:17 6.7 C 28 %
1419 06-12-2019 20:21:17 6.8 C 28 %
1420 06-12-2019 20:31:17 6.7 C 28 %
1421 06-12-2019 20:41:17 6.7 C 28 %
1422 06-12-2019 20:51:18 6.7 C 28 %
1423 06-12-2019 21:01:17 6.8 C 27 %
1424 06-12-2019 21:11:17 6.7 C 28 %
1425 06-12-2019 21:21:17 6.7 C 28 %
Sensor: Nr:Datum:Temp:Feuchte:
Aussen-T/F 1426 06-12-2019 21:31:17 6.6 C 28 %
1427 06-12-2019 21:41:17 6.5 C 28 %
1428 06-12-2019 21:51:17 6.5 C 29 %
1429 06-12-2019 22:01:17 6.6 C 29 %
1430 06-12-2019 22:11:17 6.7 C 28 %
1431 06-12-2019 22:21:17 6.7 C 28 %
1432 06-12-2019 22:31:17 6.7 C 28 %
1433 06-12-2019 22:41:17 6.9 C 28 %
1434 06-12-2019 22:51:17 6.9 C 27 %
1435 06-12-2019 23:01:18 7 C 27 %
1436 06-12-2019 23:11:18 6.9 C 28 %
1437 06-12-2019 23:21:17 6.8 C 29 %
1438 06-12-2019 23:31:17 6.8 C 29 %
1439 06-12-2019 23:41:17 6.9 C 29 %
1440 06-12-2019 23:51:18 6.8 C 30 %
1441 07-12-2019 00:01:17 6.9 C 30 %
1442 07-12-2019 00:11:17 7 C 28 %
1443 07-12-2019 00:21:17 7.2 C 28 %
1444 07-12-2019 00:31:17 7.2 C 28 %
1445 07-12-2019 00:41:17 7.2 C 28 %
1446 07-12-2019 00:51:17 7.4 C 28 %
1447 07-12-2019 01:01:17 7.4 C 28 %
1448 07-12-2019 01:11:17 7.6 C 28 %
1449 07-12-2019 01:21:17 7.7 C 28 %
1450 07-12-2019 01:31:18 7.8 C 28 %
Sensor: Nr:Datum:Temp:Feuchte:
Aussen-T/F 1451 07-12-2019 01:41:18 7.6 C 29 %
1452 07-12-2019 01:51:17 7.6 C 29 %
1453 07-12-2019 02:01:17 7.5 C 30 %
1454 07-12-2019 02:11:17 7.7 C 31 %
1455 07-12-2019 02:21:17 7.5 C 31 %
1456 07-12-2019 02:31:17 7.1 C 35 %
1457 07-12-2019 02:41:17 7.2 C 38 %
1458 07-12-2019 02:51:17 7.3 C 35 %
1459 07-12-2019 03:01:17 7.4 C 35 %
1460 07-12-2019 03:11:17 7.6 C 33 %
1461 07-12-2019 03:21:17 8.4 C 30 %
1462 07-12-2019 03:31:17 8.5 C 29 %
1463 07-12-2019 03:41:17 8.7 C 28 %
1464 07-12-2019 03:51:17 9 C 27 %
1465 07-12-2019 04:01:18 8.4 C 29 %
1466 07-12-2019 04:11:18 8.5 C 29 %
1467 07-12-2019 04:21:17 8 C 30 %
1468 07-12-2019 04:31:17 7.9 C 30 %
1469 07-12-2019 04:41:17 8 C 30 %
1470 07-12-2019 04:51:17 8 C 30 %
1471 07-12-2019 05:01:17 7.7 C 30 %
1472 07-12-2019 05:11:17 8 C 30 %
1473 07-12-2019 05:21:17 8 C 30 %
1474 07-12-2019 05:31:17 7.8 C 31 %
1475 07-12-2019 05:41:17 8.2 C 30 %
Sensor: Nr:Datum:Temp:Feuchte:
Aussen-T/F 1476 07-12-2019 05:51:18 7.2 C 31 %
1477 07-12-2019 06:01:18 7.6 C 30 %
1478 07-12-2019 06:11:18 8.7 C 26 %
1479 07-12-2019 06:21:17 8.6 C 26 %
1480 07-12-2019 06:31:18 8.2 C 26 %
1481 07-12-2019 06:41:18 8.1 C 26 %
1482 07-12-2019 06:51:17 7.5 C 27 %
1483 07-12-2019 07:01:17 6.8 C 30 %
1484 07-12-2019 07:11:17 7.1 C 28 %
1485 07-12-2019 07:21:17 7.3 C 27 %
1486 07-12-2019 07:31:17 6.8 C 30 %
1487 07-12-2019 07:41:17 6.3 C 31 %
1488 07-12-2019 07:51:18 7.8 C 28 %
1489 07-12-2019 08:01:18 8 C 27 %
1490 07-12-2019 08:11:18 7.9 C 28 %
1491 07-12-2019 08:21:17 8.1 C 28 %
1492 07-12-2019 08:31:17 8.1 C 27 %
1493 07-12-2019 08:41:17 8.3 C 28 %
1494 07-12-2019 08:51:17 8.4 C 27 %
1495 07-12-2019 09:01:17 8.4 C 27 %
1496 07-12-2019 09:11:17 8.3 C 28 %
1497 07-12-2019 09:21:17 8.2 C 28 %
1498 07-12-2019 09:31:17 8.1 C 29 %
1499 07-12-2019 09:41:17 8.3 C 28 %
1500 07-12-2019 09:51:18 8.6 C 27 %
Sensor: Nr:Datum:Temp:Feuchte:
Aussen-T/F 1501 07-12-2019 10:01:17 8.6 C 27 %
1502 07-12-2019 10:11:17 8.8 C 27 %
1503 07-12-2019 10:21:17 9 C 26 %
1504 07-12-2019 10:31:17 9.1 C 25 %
1505 07-12-2019 10:41:17 9.1 C 26 %
1506 07-12-2019 10:51:18 9.2 C 25 %
1507 07-12-2019 11:01:18 9 C 26 %
1508 07-12-2019 11:11:18 8.4 C 29 %
1509 07-12-2019 11:21:17 8.3 C 30 %
1510 07-12-2019 11:31:17 8.4 C 30 %
1511 07-12-2019 11:41:17 8.5 C 30 %
1512 07-12-2019 11:51:17 8.6 C 28 %
1513 07-12-2019 12:01:17 8.8 C 27 %
1514 07-12-2019 12:11:17 8.9 C 27 %
1515 07-12-2019 12:21:17 9.2 C 25 %
1516 07-12-2019 12:31:18 9.4 C 25 %
1517 07-12-2019 12:41:18 9.5 C 25 %
1518 07-12-2019 12:51:17 9.5 C 25 %
1519 07-12-2019 13:01:17 9.7 C 23 %
1520 07-12-2019 13:11:17 10 C 20 %
1521 07-12-2019 13:21:17 9.8 C 20 %
1522 07-12-2019 13:31:17 9.8 C 20 %
1523 07-12-2019 13:41:17 9.9 C 20 %
1524 07-12-2019 13:51:17 9.9 C 20 %
1525 07-12-2019 14:01:17 9.8 C 20 %
Sensor: Nr:Datum:Temp:Feuchte:
Aussen-T/F 1526 07-12-2019 14:11:17 9.7 C 20 %
1527 07-12-2019 14:21:17 9.9 C 20 %
1528 07-12-2019 14:31:18 9.9 C 20 %
1529 07-12-2019 14:41:18 9.9 C 20 %
1530 07-12-2019 14:51:17 9.9 C 20 %
1531 07-12-2019 15:01:17 9.9 C 20 %
1532 07-12-2019 15:11:17 9.7 C 21 %
1533 07-12-2019 15:21:17 9.6 C 21 %
1534 07-12-2019 15:31:17 9.7 C 21 %
1535 07-12-2019 15:41:17 9.6 C 20 %
1536 07-12-2019 15:51:17 9.4 C 23 %
1537 07-12-2019 16:01:17 9 C 25 %
1538 07-12-2019 16:11:17 8.9 C 25 %
1539 07-12-2019 16:21:18 8.8 C 25 %
1540 07-12-2019 16:31:17 8.6 C 26 %
1541 07-12-2019 16:41:18 8.5 C 26 %
1542 07-12-2019 16:51:17 8.2 C 27 %
1543 07-12-2019 17:01:17 8.1 C 29 %
1544 07-12-2019 17:11:17 8.2 C 28 %
1545 07-12-2019 17:21:17 8.1 C 28 %
1546 07-12-2019 17:31:18 8.2 C 28 %
1547 07-12-2019 17:41:18 8.3 C 27 %
1548 07-12-2019 17:51:17 8.1 C 27 %
1549 07-12-2019 18:01:18 8 C 28 %
1550 07-12-2019 18:11:18 8 C 27 %
Sensor: Nr:Datum:Temp:Feuchte:
Aussen-T/F 1551 07-12-2019 18:21:17 7.8 C 28 %
1552 07-12-2019 18:31:17 7.7 C 29 %
1553 07-12-2019 18:41:17 7.6 C 30 %
1554 07-12-2019 18:51:17 7.6 C 30 %
1555 07-12-2019 19:01:17 7.5 C 31 %
1556 07-12-2019 19:11:17 7.5 C 31 %
1557 07-12-2019 19:21:17 7.5 C 32 %
1558 07-12-2019 19:31:17 7.7 C 31 %
1559 07-12-2019 19:41:17 7.6 C 30 %
1560 07-12-2019 19:51:17 7.7 C 30 %
1561 07-12-2019 20:01:18 7.4 C 30 %
1562 07-12-2019 20:11:18 7.3 C 31 %
1563 07-12-2019 20:21:17 7.3 C 31 %
1564 07-12-2019 20:31:17 7.4 C 30 %
1565 07-12-2019 20:41:17 7.6 C 30 %
1566 07-12-2019 20:51:17 7.6 C 30 %
1567 07-12-2019 21:01:17 7.5 C 30 %
1568 07-12-2019 21:11:17 7.6 C 30 %
1569 07-12-2019 21:21:17 8 C 28 %
1570 07-12-2019 21:31:17 8.1 C 28 %
1571 07-12-2019 21:41:17 8.2 C 28 %
1572 07-12-2019 21:51:17 7.9 C 28 %
1573 07-12-2019 22:01:17 8.2 C 28 %
1574 07-12-2019 22:11:17 8.1 C 27 %
1575 07-12-2019 22:21:17 7.8 C 28 %
Sensor: Nr:Datum:Temp:Feuchte:
Aussen-T/F 1576 07-12-2019 22:31:18 7.7 C 30 %
1577 07-12-2019 22:41:18 7.6 C 30 %
1578 07-12-2019 22:51:17 7.5 C 31 %
1579 07-12-2019 23:01:17 7.4 C 32 %
1580 07-12-2019 23:11:17 7.6 C 31 %
1581 07-12-2019 23:21:17 7.6 C 32 %
1582 07-12-2019 23:31:17 7.5 C 32 %
1583 07-12-2019 23:41:17 7.7 C 31 %
1584 07-12-2019 23:51:18 7.9 C 28 %
1585 08-12-2019 00:01:17 8.1 C 27 %
1586 08-12-2019 00:11:17 8.9 C 23 %
1587 08-12-2019 00:21:17 8.9 C 21 %
1588 08-12-2019 00:31:18 9 C 21 %
1589 08-12-2019 00:41:18 8.9 C 23 %
1590 08-12-2019 00:51:17 8.5 C 25 %
1591 08-12-2019 01:01:18 8.3 C 25 %
1592 08-12-2019 01:11:18 8.5 C 25 %
1593 08-12-2019 01:21:17 8.4 C 26 %
1594 08-12-2019 01:31:17 8.9 C 25 %
1595 08-12-2019 01:41:17 8.8 C 25 %
1596 08-12-2019 01:51:18 9.2 C 20 %
1597 08-12-2019 02:01:17 9.2 C 20 %
1598 08-12-2019 02:11:17 8.9 C 20 %
1599 08-12-2019 02:21:17 9 C 20 %
1600 08-12-2019 02:31:17 9.1 C 20 %
Sensor: Nr:Datum:Temp:Feuchte:
Aussen-T/F 1601 08-12-2019 02:41:18 9 C 20 %
1602 08-12-2019 02:51:17 9.1 C 20 %
1603 08-12-2019 03:01:17 9 C 20 %
1604 08-12-2019 03:11:17 9.1 C 20 %
1605 08-12-2019 03:21:17 9.1 C 20 %
1606 08-12-2019 03:31:17 9.3 C 20 %
1607 08-12-2019 03:41:17 9.3 C 20 %
1608 08-12-2019 03:51:17 9.4 C 20 %
1609 08-12-2019 04:01:17 9.7 C 20 %
1610 08-12-2019 04:11:18 9.6 C 20 %
1611 08-12-2019 04:21:17 9.5 C 20 %
1612 08-12-2019 04:31:17 9.6 C 20 %
1613 08-12-2019 04:41:17 9.6 C 20 %
1614 08-12-2019 04:51:17 9.5 C 20 %
1615 08-12-2019 05:01:17 9.6 C 20 %
1616 08-12-2019 05:11:17 9.5 C 21 %
1617 08-12-2019 05:21:17 9.5 C 21 %
1618 08-12-2019 05:31:17 9.4 C 23 %
1619 08-12-2019 05:41:17 9.5 C 23 %
1620 08-12-2019 05:51:17 9.2 C 25 %
1621 08-12-2019 06:01:17 9.3 C 25 %
1622 08-12-2019 06:11:18 9.5 C 25 %
1623 08-12-2019 06:21:17 9.9 C 21 %
1624 08-12-2019 06:31:17 9.8 C 23 %
1625 08-12-2019 06:41:17 9.7 C 25 %
Sensor: Nr:Datum:Temp:Feuchte:
Aussen-T/F 1626 08-12-2019 06:51:17 9.9 C 23 %
1627 08-12-2019 07:01:18 10 C 21 %
1628 08-12-2019 07:11:18 10.1 C 20 %
1629 08-12-2019 07:21:17 9.9 C 21 %
1630 08-12-2019 07:31:17 10 C 21 %
1631 08-12-2019 07:41:17 10.1 C 20 %
1632 08-12-2019 07:51:17 10 C 20 %
1633 08-12-2019 08:01:17 10 C 20 %
1634 08-12-2019 08:11:17 10.2 C 20 %
1635 08-12-2019 08:21:17 10.1 C 20 %
1636 08-12-2019 08:31:17 10.3 C 21 %
1637 08-12-2019 08:41:17 10.1 C 21 %
1638 08-12-2019 08:51:17 10.3 C 21 %
1639 08-12-2019 09:01:17 10.3 C 21 %
1640 08-12-2019 09:11:17 10.1 C 21 %
1641 08-12-2019 09:21:17 10.2 C 21 %
1642 08-12-2019 09:31:17 10.3 C 21 %
1643 08-12-2019 09:41:17 10.4 C 21 %
1644 08-12-2019 09:51:17 10.4 C 21 %
1645 08-12-2019 10:01:17 10.4 C 21 %
1646 08-12-2019 10:11:17 10.5 C 21 %
1647 08-12-2019 10:21:17 10.5 C 22 %
1648 08-12-2019 10:31:17 10.5 C 22 %
1649 08-12-2019 10:41:17 10.1 C 25 %
1650 08-12-2019 10:51:17 10.2 C 25 %
Sensor: Nr:Datum:Temp:Feuchte:
Aussen-T/F 1651 08-12-2019 11:01:17 10.5 C 25 %
1652 08-12-2019 11:11:17 10.6 C 23 %
1653 08-12-2019 11:21:17 10.8 C 23 %
1654 08-12-2019 11:31:17 10.8 C 23 %
1655 08-12-2019 11:41:17 10.8 C 22 %
1656 08-12-2019 11:51:17 11 C 22 %
1657 08-12-2019 12:01:18 11.1 C 22 %
1658 08-12-2019 12:11:18 11.3 C 22 %
1659 08-12-2019 12:21:17 11.4 C 22 %
1660 08-12-2019 12:31:17 11.4 C 22 %
1661 08-12-2019 12:41:17 11.4 C 23 %
1662 08-12-2019 12:51:17 11.3 C 24 %
1663 08-12-2019 13:01:18 11.5 C 24 %
1664 08-12-2019 13:11:18 11.5 C 22 %
1665 08-12-2019 13:21:17 11.3 C 25 %
1666 08-12-2019 13:31:17 11.1 C 25 %
1667 08-12-2019 13:41:17 11.4 C 25 %
1668 08-12-2019 13:51:17 11.4 C 25 %
1669 08-12-2019 14:01:17 11.5 C 25 %
1670 08-12-2019 14:11:17 11.5 C 25 %
1671 08-12-2019 14:21:17 11.5 C 25 %
1672 08-12-2019 14:31:18 11.7 C 25 %
1673 08-12-2019 14:41:18 11.7 C 25 %
1674 08-12-2019 14:51:17 11.7 C 25 %
1675 08-12-2019 15:01:18 11.8 C 25 %
Sensor: Nr:Datum:Temp:Feuchte:
Aussen-T/F 1676 08-12-2019 15:11:18 11.8 C 25 %
1677 08-12-2019 15:21:18 11.7 C 25 %
1678 08-12-2019 15:31:18 11.7 C 25 %
1679 08-12-2019 15:41:18 11.8 C 25 %
1680 08-12-2019 15:51:17 11.8 C 25 %
1681 08-12-2019 16:01:17 11.7 C 25 %
1682 08-12-2019 16:11:17 11.8 C 25 %
1683 08-12-2019 16:21:18 11.7 C 25 %
1684 08-12-2019 16:31:18 11.6 C 26 %
1685 08-12-2019 16:41:18 11.4 C 27 %
1686 08-12-2019 16:51:17 9.4 C 31 %
1687 08-12-2019 17:01:17 8.9 C 33 %
1688 08-12-2019 17:11:17 8.8 C 33 %
1689 08-12-2019 17:21:17 8.7 C 34 %
1690 08-12-2019 17:31:17 9.2 C 27 %
1691 08-12-2019 17:41:17 8.5 C 33 %
1692 08-12-2019 17:51:17 8.5 C 33 %
1693 08-12-2019 18:01:17 8.5 C 32 %
1694 08-12-2019 18:11:17 8.6 C 31 %
1695 08-12-2019 18:21:17 8.2 C 33 %
1696 08-12-2019 18:31:18 8.5 C 29 %
1697 08-12-2019 18:41:18 8.5 C 29 %
1698 08-12-2019 18:51:17 8.6 C 28 %
1699 08-12-2019 19:01:17 8.9 C 27 %
1700 08-12-2019 19:11:17 8.5 C 28 %
Sensor: Nr:Datum:Temp:Feuchte:
Aussen-T/F 1701 08-12-2019 19:21:17 8.5 C 28 %
1702 08-12-2019 19:31:17 8.6 C 27 %
1703 08-12-2019 19:41:17 8 C 31 %
1704 08-12-2019 19:51:18 7.8 C 33 %
1705 08-12-2019 20:01:17 7.5 C 36 %
1706 08-12-2019 20:11:17 8.1 C 33 %
1707 08-12-2019 20:21:17 8.2 C 30 %
1708 08-12-2019 20:31:17 8.3 C 29 %
1709 08-12-2019 20:41:17 8.5 C 28 %
1710 08-12-2019 20:51:17 8.6 C 26 %
1711 08-12-2019 21:01:18 8.8 C 26 %
1712 08-12-2019 21:11:18 8.9 C 25 %
1713 08-12-2019 21:21:17 8.4 C 26 %
1714 08-12-2019 21:31:17 8.7 C 26 %
1715 08-12-2019 21:41:17 8.4 C 26 %
1716 08-12-2019 21:51:18 8.4 C 26 %
1717 08-12-2019 22:01:17 8.5 C 26 %
1718 08-12-2019 22:11:17 7.9 C 27 %
1719 08-12-2019 22:21:17 8.1 C 26 %
1720 08-12-2019 22:31:17 8.6 C 26 %
1721 08-12-2019 22:41:17 8.8 C 26 %
1722 08-12-2019 22:51:17 8.7 C 25 %
1723 08-12-2019 23:01:17 8.8 C 25 %
1724 08-12-2019 23:11:17 8.7 C 26 %
1725 08-12-2019 23:21:17 8.8 C 25 %
Sensor: Nr:Datum:Temp:Feuchte:
Aussen-T/F 1726 08-12-2019 23:31:18 8.7 C 25 %
1727 08-12-2019 23:41:18 8.5 C 25 %
1728 08-12-2019 23:51:17 8.4 C 21 %
1729 09-12-2019 00:01:18 8.7 C 20 %
1730 09-12-2019 00:11:18 8.1 C 21 %
1731 09-12-2019 00:21:17 8.4 C 21 %
1732 09-12-2019 00:31:17 8.4 C 21 %
1733 09-12-2019 00:41:17 8.5 C 20 %
1734 09-12-2019 00:51:17 8.4 C 20 %
1735 09-12-2019 01:01:17 8.4 C 20 %
1736 09-12-2019 01:11:17 8.5 C 20 %
1737 09-12-2019 01:21:18 8.1 C 20 %
1738 09-12-2019 01:31:17 8 C 20 %
1739 09-12-2019 01:41:17 8.3 C 20 %
1740 09-12-2019 01:51:17 8.2 C 20 %
1741 09-12-2019 02:01:17 7.8 C 20 %
1742 09-12-2019 02:11:17 7.6 C 20 %
1743 09-12-2019 02:21:17 7.4 C 21 %
1744 09-12-2019 02:31:18 7.4 C 21 %
1745 09-12-2019 02:41:18 7.1 C 23 %
1746 09-12-2019 02:51:18 7.5 C 20 %
1747 09-12-2019 03:01:17 7.5 C 20 %
1748 09-12-2019 03:11:17 7.5 C 20 %
1749 09-12-2019 03:21:17 7.5 C 20 %
1750 09-12-2019 03:31:17 7.3 C 20 %
Sensor: Nr:Datum:Temp:Feuchte:
Aussen-T/F 1751 09-12-2019 03:41:17 6.8 C 23 %
1752 09-12-2019 03:51:17 7.3 C 21 %
1753 09-12-2019 04:01:17 7.3 C 20 %
1754 09-12-2019 04:11:17 7.9 C 20 %
1755 09-12-2019 04:21:18 8 C 20 %
1756 09-12-2019 04:31:18 7.6 C 20 %
1757 09-12-2019 04:41:18 7.4 C 21 %
1758 09-12-2019 04:51:17 6.9 C 25 %
1759 09-12-2019 05:01:17 6.9 C 25 %
1760 09-12-2019 05:11:17 7.4 C 20 %
1761 09-12-2019 05:21:17 7.5 C 20 %
1762 09-12-2019 05:31:17 7.4 C 20 %
1763 09-12-2019 05:41:18 7.1 C 20 %
1764 09-12-2019 05:51:17 7.2 C 20 %
1765 09-12-2019 06:01:17 7.4 C 20 %
1766 09-12-2019 06:11:17 7.4 C 20 %
1767 09-12-2019 06:21:17 7.4 C 20 %
1768 09-12-2019 06:31:17 7.6 C 20 %
1769 09-12-2019 06:41:17 7.8 C 20 %
1770 09-12-2019 06:51:18 7.7 C 20 %
1771 09-12-2019 07:01:17 7.6 C 20 %
1772 09-12-2019 07:11:18 7.5 C 20 %
1773 09-12-2019 07:21:17 7.2 C 20 %
1774 09-12-2019 07:31:17 7.2 C 20 %
1775 09-12-2019 07:41:17 7.6 C 20 %
Sensor: Nr:Datum:Temp:Feuchte:
Aussen-T/F 1776 09-12-2019 07:51:18 7.5 C 20 %
1777 09-12-2019 08:01:17 7.9 C 20 %
1778 09-12-2019 08:11:17 7.8 C 20 %
1779 09-12-2019 08:21:17 7.9 C 20 %
1780 09-12-2019 08:31:17 8 C 20 %
1781 09-12-2019 08:41:17 7.9 C 20 %
1782 09-12-2019 08:51:17 7.9 C 20 %
1783 09-12-2019 09:01:17 7.8 C 20 %
1784 09-12-2019 09:11:17 7.9 C 20 %
1785 09-12-2019 09:21:17 7.5 C 20 %
1786 09-12-2019 09:31:17 7.4 C 23 %
1787 09-12-2019 09:41:17 7.5 C 21 %
1788 09-12-2019 09:51:17 7.7 C 21 %
1789 09-12-2019 10:01:17 7.9 C 21 %
1790 09-12-2019 10:11:17 7.9 C 21 %
1791 09-12-2019 10:21:17 7.9 C 20 %
1792 09-12-2019 10:31:18 7.9 C 21 %
1793 09-12-2019 10:41:18 7.9 C 21 %
1794 09-12-2019 10:51:17 8.1 C 20 %
1795 09-12-2019 11:01:17 8 C 20 %
1796 09-12-2019 11:11:17 8.2 C 20 %
1797 09-12-2019 11:21:17 8.4 C 20 %
1798 09-12-2019 11:31:18 8.4 C 20 %
1799 09-12-2019 11:41:18 8.3 C 20 %
1800 09-12-2019 11:51:17 8.1 C 20 %
Sensor: Nr:Datum:Temp:Feuchte:
Aussen-T/F 1801 09-12-2019 12:01:17 8.2 C 20 %
1802 09-12-2019 12:11:17 8 C 20 %
1803 09-12-2019 12:21:18 8.1 C 20 %
1804 09-12-2019 12:31:17 8.3 C 20 %
1805 09-12-2019 12:41:17 8.2 C 20 %
1806 09-12-2019 12:51:17 8.3 C 20 %
1807 09-12-2019 13:01:18 8.3 C 20 %
1808 09-12-2019 13:11:18 8.3 C 20 %
1809 09-12-2019 13:21:17 8.2 C 20 %
1810 09-12-2019 13:31:17 8.1 C 20 %
1811 09-12-2019 13:41:17 8.5 C 20 %
1812 09-12-2019 13:51:17 8.8 C 20 %
1813 09-12-2019 14:01:17 8.6 C 20 %
1814 09-12-2019 14:11:17 8.5 C 20 %
1815 09-12-2019 14:21:17 8.6 C 20 %
1816 09-12-2019 14:31:17 8.4 C 20 %
1817 09-12-2019 14:41:17 7.9 C 20 %
1818 09-12-2019 14:51:18 8.4 C 20 %
1819 09-12-2019 15:01:17 7.9 C 20 %
1820 09-12-2019 15:11:17 7.3 C 25 %
1821 09-12-2019 15:21:17 7 C 27 %
1822 09-12-2019 15:31:18 7.1 C 26 %
1823 09-12-2019 15:41:18 7.1 C 25 %
1824 09-12-2019 15:51:17 7.4 C 23 %
1825 09-12-2019 16:01:18 7.5 C 20 %
Sensor: Nr:Datum:Temp:Feuchte:
Aussen-T/F 1826 09-12-2019 16:11:18 7.5 C 20 %
1827 09-12-2019 16:21:17 7.6 C 20 %
1828 09-12-2019 16:31:18 7.3 C 20 %
1829 09-12-2019 16:41:18 7.4 C 20 %
1830 09-12-2019 16:51:17 7.3 C 20 %
1831 09-12-2019 17:01:18 7.1 C 20 %
1832 09-12-2019 17:11:18 7.2 C 20 %
1833 09-12-2019 17:21:17 6.7 C 25 %
1834 09-12-2019 17:31:17 6.1 C 32 %
1835 09-12-2019 17:41:17 5.9 C 36 %
1836 09-12-2019 17:51:17 6 C 34 %
1837 09-12-2019 18:01:18 6 C 30 %
1838 09-12-2019 18:11:18 6.1 C 31 %
1839 09-12-2019 18:21:17 6 C 33 %
1840 09-12-2019 18:31:17 5.8 C 35 %
1841 09-12-2019 18:41:17 5.7 C 37 %
1842 09-12-2019 18:51:18 5.7 C 38 %
1843 09-12-2019 19:01:17 5.6 C 35 %
1844 09-12-2019 19:11:17 5.5 C 38 %
1845 09-12-2019 19:21:17 5.6 C 39 %
1846 09-12-2019 19:31:17 5.6 C 38 %
1847 09-12-2019 19:41:17 5.6 C 38 %
1848 09-12-2019 19:51:17 5.6 C 37 %
1849 09-12-2019 20:01:17 5.6 C 35 %
1850 09-12-2019 20:11:17 5.6 C 34 %
Sensor: Nr:Datum:Temp:Feuchte:
Aussen-T/F 1851 09-12-2019 20:21:17 5.6 C 35 %
1852 09-12-2019 20:31:17 5.6 C 32 %
1853 09-12-2019 20:41:17 5.4 C 33 %
1854 09-12-2019 20:51:17 5.3 C 34 %
1855 09-12-2019 21:01:17 5.2 C 33 %
1856 09-12-2019 21:11:18 5.1 C 34 %
1857 09-12-2019 21:21:17 5.2 C 35 %
1858 09-12-2019 21:31:17 5.3 C 32 %
1859 09-12-2019 21:41:17 5.1 C 31 %
1860 09-12-2019 21:51:17 5 C 31 %
1861 09-12-2019 22:01:17 4.8 C 32 %
1862 09-12-2019 22:11:17 4.7 C 31 %
1863 09-12-2019 22:21:17 4.9 C 30 %
1864 09-12-2019 22:31:17 4.9 C 30 %
1865 09-12-2019 22:41:17 4.9 C 30 %
1866 09-12-2019 22:51:18 4.7 C 30 %
1867 09-12-2019 23:01:17 4.6 C 29 %
1868 09-12-2019 23:11:17 4.5 C 29 %
1869 09-12-2019 23:21:17 4.1 C 30 %
1870 09-12-2019 23:31:18 4 C 30 %
1871 09-12-2019 23:41:18 4.1 C 29 %
1872 09-12-2019 23:51:17 4.1 C 29 %
1873 10-12-2019 00:01:17 3.7 C 30 %
1874 10-12-2019 00:11:17 4.1 C 28 %
1875 10-12-2019 00:21:17 3.4 C 30 %
Sensor: Nr:Datum:Temp:Feuchte:
Aussen-T/F 1876 10-12-2019 00:31:17 3.6 C 30 %
1877 10-12-2019 00:41:17 3.1 C 31 %
1878 10-12-2019 00:51:17 3 C 31 %
1879 10-12-2019 01:01:17 2.4 C 33 %
1880 10-12-2019 01:11:17 2.4 C 36 %
1881 10-12-2019 01:21:17 2.5 C 36 %
1882 10-12-2019 01:31:18 2.8 C 34 %
1883 10-12-2019 01:41:18 2.4 C 34 %
1884 10-12-2019 01:51:17 2.4 C 33 %
1885 10-12-2019 02:01:18 2.7 C 33 %
1886 10-12-2019 02:11:18 2.9 C 32 %
1887 10-12-2019 02:21:17 2.3 C 33 %
1888 10-12-2019 02:31:17 2.1 C 35 %
1889 10-12-2019 02:41:17 1.7 C 37 %
1890 10-12-2019 02:51:17 1.6 C 39 %
1891 10-12-2019 03:01:17 1.8 C 40 %
1892 10-12-2019 03:11:17 1.8 C 40 %
1893 10-12-2019 03:21:17 1.8 C 40 %
1894 10-12-2019 03:31:17 2 C 40 %
1895 10-12-2019 03:41:17 1.4 C 41 %
1896 10-12-2019 03:51:17 1.4 C 43 %
1897 10-12-2019 04:01:17 1.1 C 43 %
1898 10-12-2019 04:11:17 1.3 C 41 %
1899 10-12-2019 04:21:17 0.6 C 41 %
1900 10-12-2019 04:31:18 0.6 C 44 %
Sensor: Nr:Datum:Temp:Feuchte:
Aussen-T/F 1901 10-12-2019 04:41:18 0.7 C 45 %
1902 10-12-2019 04:51:17 0.9 C 46 %
1903 10-12-2019 05:01:17 1.1 C 44 %
1904 10-12-2019 05:11:17 1.8 C 41 %
1905 10-12-2019 05:21:18 2.2 C 35 %
1906 10-12-2019 05:31:18 2 C 35 %
1907 10-12-2019 05:41:18 2 C 35 %
1908 10-12-2019 05:51:17 1.8 C 36 %
1909 10-12-2019 06:01:17 1.5 C 36 %
1910 10-12-2019 06:11:17 1.6 C 37 %
1911 10-12-2019 06:21:18 1.4 C 36 %
1912 10-12-2019 06:31:17 1.1 C 38 %
1913 10-12-2019 06:41:17 0.9 C 42 %
1914 10-12-2019 06:51:17 1.2 C 42 %
1915 10-12-2019 07:01:18 1.3 C 40 %
1916 10-12-2019 07:11:18 1.5 C 40 %
1917 10-12-2019 07:21:17 1.7 C 36 %
1918 10-12-2019 07:31:17 1.2 C 37 %
1919 10-12-2019 07:41:17 0.8 C 41 %
1920 10-12-2019 07:51:17 0.8 C 41 %
1921 10-12-2019 08:01:17 0.7 C 41 %
1922 10-12-2019 08:11:17 0.8 C 41 %
1923 10-12-2019 08:21:17 0.4 C 42 %
1924 10-12-2019 08:31:18 0.6 C 42 %
1925 10-12-2019 08:41:18 0.4 C 42 %
Sensor: Nr:Datum:Temp:Feuchte:
Aussen-T/F 1926 10-12-2019 08:51:17 0.4 C 43 %
1927 10-12-2019 09:01:17 0.1 C 42 %
1928 10-12-2019 09:11:17 0.5 C 44 %
1929 10-12-2019 09:21:17 0.8 C 44 %
1930 10-12-2019 09:31:17 1.4 C 42 %
1931 10-12-2019 09:41:17 1.7 C 39 %
1932 10-12-2019 09:51:17 1.8 C 39 %
1933 10-12-2019 10:01:17 2.2 C 36 %
1934 10-12-2019 10:11:17 2.5 C 35 %
1935 10-12-2019 10:21:17 2.7 C 33 %
1936 10-12-2019 10:31:17 2.7 C 33 %
1937 10-12-2019 10:41:17 2.5 C 33 %
1938 10-12-2019 10:51:17 2.4 C 35 %
1939 10-12-2019 11:01:17 2.4 C 34 %
1940 10-12-2019 11:11:17 2.5 C 34 %
1941 10-12-2019 11:21:17 2.3 C 35 %
1942 10-12-2019 11:31:18 2.2 C 36 %
1943 10-12-2019 11:41:18 2.9 C 34 %
1944 10-12-2019 11:51:17 3.5 C 30 %
1945 10-12-2019 12:01:17 3.7 C 30 %
1946 10-12-2019 12:11:17 3.8 C 30 %
1947 10-12-2019 12:21:17 3.9 C 30 %
1948 10-12-2019 12:31:17 3.9 C 30 %
1949 10-12-2019 12:41:17 4.3 C 27 %
1950 10-12-2019 12:51:17 4.5 C 27 %
Sensor: Nr:Datum:Temp:Feuchte:
Aussen-T/F 1951 10-12-2019 13:01:17 4.6 C 27 %
1952 10-12-2019 13:11:17 4.7 C 27 %
1953 10-12-2019 13:21:17 4.7 C 27 %
1954 10-12-2019 13:31:17 4.9 C 27 %
1955 10-12-2019 13:41:17 5.1 C 25 %
1956 10-12-2019 13:51:17 5 C 25 %
1957 10-12-2019 14:01:17 4.6 C 27 %
1958 10-12-2019 14:11:17 4.2 C 28 %
1959 10-12-2019 14:21:17 3.8 C 30 %
1960 10-12-2019 14:31:18 3.9 C 30 %
1961 10-12-2019 14:41:18 3.8 C 30 %
1962 10-12-2019 14:51:17 3.5 C 30 %
1963 10-12-2019 15:01:17 3.5 C 30 %
1964 10-12-2019 15:11:17 3.3 C 31 %
1965 10-12-2019 15:21:17 3.2 C 31 %
1966 10-12-2019 15:31:17 3.1 C 31 %
1967 10-12-2019 15:41:18 3.2 C 31 %
1968 10-12-2019 15:51:17 2.9 C 31 %
1969 10-12-2019 16:01:17 2.4 C 32 %
1970 10-12-2019 16:11:17 3.1 C 31 %
1971 10-12-2019 16:21:17 3.4 C 30 %
1972 10-12-2019 16:31:17 3.5 C 28 %
1973 10-12-2019 16:41:17 3.3 C 28 %
1974 10-12-2019 16:51:17 3.3 C 26 %
1975 10-12-2019 17:01:17 2.8 C 27 %
Sensor: Nr:Datum:Temp:Feuchte:
Aussen-T/F 1976 10-12-2019 17:11:17 2.7 C 27 %
1977 10-12-2019 17:21:18 2.7 C 27 %
1978 10-12-2019 17:31:17 2.7 C 27 %
1979 10-12-2019 17:41:17 2.6 C 27 %
1980 10-12-2019 17:51:17 2.4 C 28 %
1981 10-12-2019 18:01:17 2.3 C 27 %
1982 10-12-2019 18:11:17 1.7 C 31 %
1983 10-12-2019 18:21:17 1.9 C 32 %
1984 10-12-2019 18:31:17 1.8 C 33 %
1985 10-12-2019 18:41:17 1.7 C 34 %
1986 10-12-2019 18:51:17 1.6 C 35 %
1987 10-12-2019 19:01:17 1.5 C 36 %
1988 10-12-2019 19:11:17 1.5 C 36 %
1989 10-12-2019 19:21:17 1.6 C 36 %
1990 10-12-2019 19:31:17 1.5 C 36 %
1991 10-12-2019 19:41:18 1.7 C 36 %
1992 10-12-2019 19:51:17 1.7 C 35 %
1993 10-12-2019 20:01:17 2.2 C 32 %
1994 10-12-2019 20:11:17 2.1 C 32 %
1995 10-12-2019 20:21:17 2.7 C 29 %
1996 10-12-2019 20:31:18 2.9 C 28 %
1997 10-12-2019 20:41:18 2.6 C 30 %
1998 10-12-2019 20:51:17 2.3 C 30 %
1999 10-12-2019 21:01:17 2.5 C 31 %
2000 10-12-2019 21:11:17 2.3 C 31 %
Sensor: Nr:Datum:Temp:Feuchte:
Aussen-T/F 2001 10-12-2019 21:21:17 2.1 C 32 %
2002 10-12-2019 21:31:17 2 C 33 %
2003 10-12-2019 21:41:18 1.8 C 35 %
2004 10-12-2019 21:51:17 1.8 C 36 %
2005 10-12-2019 22:01:17 1.8 C 36 %
2006 10-12-2019 22:11:17 2.1 C 35 %
2007 10-12-2019 22:21:17 2.2 C 34 %
2008 10-12-2019 22:31:17 2.4 C 32 %
2009 10-12-2019 22:41:17 2.5 C 33 %
2010 10-12-2019 22:51:18 2.8 C 31 %
2011 10-12-2019 23:01:17 2.9 C 30 %
2012 10-12-2019 23:11:17 3 C 30 %
2013 10-12-2019 23:21:17 3 C 30 %
2014 10-12-2019 23:31:17 2.9 C 31 %
2015 10-12-2019 23:41:17 3.3 C 28 %
2016 10-12-2019 23:51:17 3.3 C 30 %
2017 11-12-2019 00:01:18 3.2 C 30 %
2018 11-12-2019 00:11:18 3.3 C 29 %
2019 11-12-2019 00:21:17 3.4 C 28 %
2020 11-12-2019 00:31:17 3.4 C 29 %
2021 11-12-2019 00:41:17 3.5 C 27 %
2022 11-12-2019 00:51:17 3.4 C 27 %
2023 11-12-2019 01:01:17 3.5 C 25 %
2024 11-12-2019 01:11:17 3.4 C 27 %
2025 11-12-2019 01:21:18 3.4 C 28 %
Sensor: Nr:Datum:Temp:Feuchte:
Aussen-T/F 2026 11-12-2019 01:31:17 3.4 C 29 %
2027 11-12-2019 01:41:17 3.2 C 30 %
2028 11-12-2019 01:51:17 3.1 C 32 %
2029 11-12-2019 02:01:17 3 C 33 %
2030 11-12-2019 02:11:17 2.9 C 33 %
2031 11-12-2019 02:21:17 2.9 C 32 %
2032 11-12-2019 02:31:18 2.8 C 34 %
2033 11-12-2019 02:41:18 2.9 C 31 %
2034 11-12-2019 02:51:17 3 C 30 %
2035 11-12-2019 03:01:18 3.1 C 30 %
2036 11-12-2019 03:11:18 3 C 32 %
2037 11-12-2019 03:21:17 2.9 C 30 %
2038 11-12-2019 03:31:17 3 C 30 %
2039 11-12-2019 03:41:17 3 C 35 %
2040 11-12-2019 03:51:17 2.8 C 36 %
2041 11-12-2019 04:01:17 2.7 C 35 %
2042 11-12-2019 04:11:17 2.8 C 35 %
2043 11-12-2019 04:21:17 2.8 C 35 %
2044 11-12-2019 04:31:18 2.8 C 38 %
2045 11-12-2019 04:41:18 2.7 C 38 %
2046 11-12-2019 04:51:17 2.7 C 39 %
2047 11-12-2019 05:01:17 2.7 C 39 %
2048 11-12-2019 05:11:17 2.7 C 39 %
2049 11-12-2019 05:21:18 2.7 C 40 %
2050 11-12-2019 05:31:17 2.6 C 42 %
Sensor: Nr:Datum:Temp:Feuchte:
Aussen-T/F 2051 11-12-2019 05:41:17 2.6 C 43 %
2052 11-12-2019 05:51:17 2.5 C 44 %
2053 11-12-2019 06:01:18 2.5 C 44 %
2054 11-12-2019 06:11:18 2.5 C 44 %
2055 11-12-2019 06:21:17 2.5 C 44 %
2056 11-12-2019 06:31:17 2.5 C 44 %
2057 11-12-2019 06:41:17 2.5 C 44 %
2058 11-12-2019 06:51:17 2.5 C 44 %
2059 11-12-2019 07:01:17 2.4 C 44 %
2060 11-12-2019 07:11:17 2.5 C 44 %
2061 11-12-2019 07:21:17 2.4 C 44 %
2062 11-12-2019 07:31:17 2.4 C 44 %
2063 11-12-2019 07:41:18 2.4 C 43 %
2064 11-12-2019 07:51:17 2.4 C 43 %
2065 11-12-2019 08:01:17 2.4 C 43 %
2066 11-12-2019 08:11:17 2.4 C 43 %
2067 11-12-2019 08:21:17 2.4 C 43 %
2068 11-12-2019 08:31:18 2.3 C 43 %
2069 11-12-2019 08:41:18 2.3 C 43 %
2070 11-12-2019 08:51:17 2.3 C 43 %
2071 11-12-2019 09:01:18 2.3 C 43 %
2072 11-12-2019 09:11:18 2.4 C 43 %
2073 11-12-2019 09:21:17 2.5 C 43 %
2074 11-12-2019 09:31:17 2.5 C 43 %
2075 11-12-2019 09:41:17 2.5 C 43 %
Sensor: Nr:Datum:Temp:Feuchte:
Aussen-T/F 2076 11-12-2019 09:51:17 2.5 C 43 %
2077 11-12-2019 10:01:17 2.6 C 43 %
2078 11-12-2019 10:11:17 2.7 C 43 %
2079 11-12-2019 10:21:17 2.7 C 42 %
2080 11-12-2019 10:31:17 2.7 C 42 %
2081 11-12-2019 10:41:17 2.8 C 41 %
2082 11-12-2019 10:51:17 3.1 C 40 %
2083 11-12-2019 11:01:17 3 C 39 %
2084 11-12-2019 11:11:17 3.1 C 39 %
2085 11-12-2019 11:21:17 3.2 C 39 %
2086 11-12-2019 11:31:17 3.1 C 38 %
2087 11-12-2019 11:41:17 3.1 C 38 %
2088 11-12-2019 11:51:17 3.2 C 39 %
2089 11-12-2019 12:01:18 3.2 C 39 %
2090 11-12-2019 12:11:18 3.1 C 39 %
2091 11-12-2019 12:21:17 3.1 C 39 %
2092 11-12-2019 12:31:17 3.1 C 40 %
2093 11-12-2019 12:41:17 3.1 C 40 %
2094 11-12-2019 12:51:17 3.1 C 40 %
2095 11-12-2019 13:01:18 3.2 C 40 %
2096 11-12-2019 13:11:18 3.2 C 40 %
2097 11-12-2019 13:21:17 3.2 C 40 %
2098 11-12-2019 13:31:17 3.2 C 40 %
2099 11-12-2019 13:41:17 3.2 C 40 %
2100 11-12-2019 13:51:17 3.2 C 40 %
Sensor: Nr:Datum:Temp:Feuchte:
Aussen-T/F 2101 11-12-2019 14:01:17 3.2 C 41 %
2102 11-12-2019 14:11:18 3.2 C 41 %
2103 11-12-2019 14:21:17 3.2 C 41 %
2104 11-12-2019 14:31:17 3.3 C 41 %
2105 11-12-2019 14:41:17 3.3 C 42 %
2106 11-12-2019 14:51:17 3.3 C 42 %
2107 11-12-2019 15:01:17 3.3 C 42 %
2108 11-12-2019 15:11:17 3.4 C 42 %
2109 11-12-2019 15:21:17 3.3 C 42 %
2110 11-12-2019 15:31:18 3.3 C 42 %
2111 11-12-2019 15:41:18 3.3 C 42 %
2112 11-12-2019 15:51:17 3.3 C 42 %
2113 11-12-2019 16:01:17 3.2 C 42 %
2114 11-12-2019 16:11:17 3.2 C 42 %
2115 11-12-2019 16:21:17 3.2 C 42 %
2116 11-12-2019 16:31:17 3.2 C 42 %
2117 11-12-2019 16:41:17 3.1 C 42 %
2118 11-12-2019 16:51:17 3.1 C 42 %
2119 11-12-2019 17:01:17 3.1 C 43 %
2120 11-12-2019 17:11:17 3.1 C 42 %
2121 11-12-2019 17:21:17 3.1 C 42 %
2122 11-12-2019 17:31:17 3.1 C 42 %
2123 11-12-2019 17:41:17 3.1 C 42 %
2124 11-12-2019 17:51:18 3.2 C 43 %
2125 11-12-2019 18:01:17 3.2 C 43 %
Sensor: Nr:Datum:Temp:Feuchte:
Aussen-T/F 2126 11-12-2019 18:11:17 3.3 C 43 %
2127 11-12-2019 18:21:17 3.3 C 43 %
2128 11-12-2019 18:31:18 3.4 C 43 %
2129 11-12-2019 18:41:18 3.4 C 43 %
2130 11-12-2019 18:51:17 3.5 C 43 %
2131 11-12-2019 19:01:17 3.5 C 42 %
2132 11-12-2019 19:11:17 3.5 C 42 %
2133 11-12-2019 19:21:18 3.5 C 42 %
2134 11-12-2019 19:31:17 3.5 C 42 %
2135 11-12-2019 19:41:17 3.6 C 42 %
2136 11-12-2019 19:51:18 3.6 C 42 %
2137 11-12-2019 20:01:17 3.6 C 42 %
2138 11-12-2019 20:11:17 3.7 C 42 %
2139 11-12-2019 20:21:17 3.8 C 42 %
2140 11-12-2019 20:31:18 3.8 C 42 %
2141 11-12-2019 20:41:18 3.9 C 42 %
2142 11-12-2019 20:51:17 4.1 C 41 %
2143 11-12-2019 21:01:17 4.1 C 40 %
2144 11-12-2019 21:11:17 4.3 C 39 %
2145 11-12-2019 21:21:17 4.4 C 37 %
2146 11-12-2019 21:31:17 4.1 C 37 %
2147 11-12-2019 21:41:17 4.3 C 37 %
2148 11-12-2019 21:51:17 4.3 C 36 %
2149 11-12-2019 22:01:17 4.5 C 35 %
2150 11-12-2019 22:11:17 4.1 C 35 %
Sensor: Nr:Datum:Temp:Feuchte:
Aussen-T/F 2151 11-12-2019 22:21:17 3.9 C 37 %
2152 11-12-2019 22:31:17 3.6 C 39 %
2153 11-12-2019 22:41:17 3.8 C 39 %
2154 11-12-2019 22:51:18 3.5 C 40 %
2155 11-12-2019 23:01:17 3.8 C 40 %
2156 11-12-2019 23:11:17 3.8 C 40 %
2157 11-12-2019 23:21:17 3.4 C 40 %
2158 11-12-2019 23:31:17 3 C 41 %
2159 11-12-2019 23:41:17 3.4 C 43 %
2160 11-12-2019 23:51:18 3.2 C 42 %
2161 12-12-2019 00:01:17 3 C 42 %
2162 12-12-2019 00:11:17 2.9 C 43 %
2163 12-12-2019 00:21:17 2.8 C 43 %
2164 12-12-2019 00:31:17 2.5 C 43 %
2165 12-12-2019 00:41:17 2.4 C 43 %
2166 12-12-2019 00:51:17 2.3 C 43 %
2167 12-12-2019 01:01:17 2.7 C 44 %
2168 12-12-2019 01:11:17 2.8 C 44 %
2169 12-12-2019 01:21:18 2.6 C 43 %
2170 12-12-2019 01:31:17 2.2 C 43 %
2171 12-12-2019 01:41:17 2.5 C 43 %
2172 12-12-2019 01:51:18 2.1 C 43 %
2173 12-12-2019 02:01:17 1.8 C 44 %
2174 12-12-2019 02:11:17 1.6 C 44 %
2175 12-12-2019 02:21:17 1.7 C 44 %
Sensor: Nr:Datum:Temp:Feuchte:
Aussen-T/F 2176 12-12-2019 02:31:18 1.6 C 44 %
2177 12-12-2019 02:41:18 2 C 43 %
2178 12-12-2019 02:51:17 2 C 43 %
2179 12-12-2019 03:01:17 2.3 C 43 %
2180 12-12-2019 03:11:17 2.4 C 43 %
2181 12-12-2019 03:21:17 2.5 C 43 %
2182 12-12-2019 03:31:17 2.4 C 43 %
2183 12-12-2019 03:41:17 2.5 C 43 %
2184 12-12-2019 03:51:17 2.7 C 43 %
2185 12-12-2019 04:01:17 2.6 C 43 %
2186 12-12-2019 04:11:17 2.7 C 43 %
2187 12-12-2019 04:21:17 2.8 C 43 %
2188 12-12-2019 04:31:17 2.8 C 43 %
2189 12-12-2019 04:41:17 2.9 C 43 %
2190 12-12-2019 04:51:17 2.4 C 42 %
2191 12-12-2019 05:01:17 2 C 42 %
2192 12-12-2019 05:11:17 2.1 C 42 %
2193 12-12-2019 05:21:17 2.2 C 42 %
2194 12-12-2019 05:31:18 2.1 C 42 %
2195 12-12-2019 05:41:18 2.1 C 42 %
2196 12-12-2019 05:51:17 2.1 C 42 %
2197 12-12-2019 06:01:17 1.9 C 43 %
2198 12-12-2019 06:11:17 2 C 42 %
2199 12-12-2019 06:21:17 2.1 C 42 %
2200 12-12-2019 06:31:17 2.1 C 42 %
Sensor: Nr:Datum:Temp:Feuchte:
Aussen-T/F 2201 12-12-2019 06:41:17 2.3 C 42 %
2202 12-12-2019 06:51:17 2.7 C 43 %
2203 12-12-2019 07:01:17 3 C 42 %
2204 12-12-2019 07:11:17 3 C 42 %
2205 12-12-2019 07:21:17 3 C 42 %
2206 12-12-2019 07:31:17 3 C 42 %
2207 12-12-2019 07:41:17 2.8 C 42 %
2208 12-12-2019 07:51:17 2.9 C 42 %
2209 12-12-2019 08:01:17 2.9 C 42 %
2210 12-12-2019 08:11:17 3.1 C 42 %
2211 12-12-2019 08:21:17 3.2 C 42 %
2212 12-12-2019 08:31:18 3.3 C 42 %
2213 12-12-2019 08:41:18 3.5 C 42 %
2214 12-12-2019 08:51:17 3.5 C 42 %
2215 12-12-2019 09:01:18 3.5 C 42 %
2216 12-12-2019 09:11:18 3.6 C 42 %
2217 12-12-2019 09:21:17 3.9 C 42 %
2218 12-12-2019 09:31:17 3.9 C 42 %
2219 12-12-2019 09:41:17 3.7 C 41 %
2220 12-12-2019 09:51:17 3.5 C 41 %
2221 12-12-2019 10:01:17 3.9 C 41 %
2222 12-12-2019 10:11:17 4 C 40 %
2223 12-12-2019 10:21:18 4.4 C 37 %
2224 12-12-2019 10:31:17 4.6 C 35 %
2225 12-12-2019 10:41:17 4.7 C 32 %
Sensor: Nr:Datum:Temp:Feuchte:
Aussen-T/F 2226 12-12-2019 10:51:17 4.8 C 31 %
2227 12-12-2019 11:01:18 4.7 C 32 %
2228 12-12-2019 11:11:18 4.6 C 31 %
2229 12-12-2019 11:21:17 4.4 C 31 %
2230 12-12-2019 11:31:17 4.4 C 32 %
2231 12-12-2019 11:41:17 4.7 C 31 %
2232 12-12-2019 11:51:18 4.9 C 29 %
2233 12-12-2019 12:01:17 5.1 C 29 %
2234 12-12-2019 12:11:17 5.1 C 27 %
2235 12-12-2019 12:21:17 5 C 26 %
2236 12-12-2019 12:31:18 4.7 C 27 %
2237 12-12-2019 12:41:18 4.7 C 28 %
2238 12-12-2019 12:51:17 4.7 C 27 %
2239 12-12-2019 13:01:17 4.6 C 28 %
2240 12-12-2019 13:11:18 5 C 26 %
2241 12-12-2019 13:21:17 4.8 C 27 %
2242 12-12-2019 13:31:17 4.6 C 26 %
2243 12-12-2019 13:41:17 4.2 C 26 %
2244 12-12-2019 13:51:17 4.6 C 25 %
2245 12-12-2019 14:01:17 4.6 C 25 %
2246 12-12-2019 14:11:17 4.3 C 25 %
2247 12-12-2019 14:21:17 4 C 27 %
2248 12-12-2019 14:31:18 4.5 C 25 %
2249 12-12-2019 14:41:18 4.8 C 25 %
2250 12-12-2019 14:51:17 4.7 C 25 %
Sensor: Nr:Datum:Temp:Feuchte:
Aussen-T/F 2251 12-12-2019 15:01:18 4 C 26 %
2252 12-12-2019 15:11:18 4.2 C 26 %
2253 12-12-2019 15:21:17 3.6 C 29 %
2254 12-12-2019 15:31:17 3.5 C 29 %
2255 12-12-2019 15:41:17 3.8 C 28 %
2256 12-12-2019 15:51:17 3.7 C 28 %
2257 12-12-2019 16:01:17 3.6 C 28 %
2258 12-12-2019 16:11:17 3.7 C 26 %
2259 12-12-2019 16:21:18 3.5 C 27 %
2260 12-12-2019 16:31:17 3.4 C 26 %
2261 12-12-2019 16:41:17 3.3 C 28 %
2262 12-12-2019 16:51:17 3.1 C 30 %
2263 12-12-2019 17:01:17 2.6 C 30 %
2264 12-12-2019 17:11:17 1.7 C 35 %
2265 12-12-2019 17:21:17 1.2 C 36 %
2266 12-12-2019 17:31:17 1.1 C 38 %
2267 12-12-2019 17:41:17 0.9 C 41 %
2268 12-12-2019 17:51:17 1 C 40 %
2269 12-12-2019 18:01:17 1.1 C 40 %
2270 12-12-2019 18:11:17 1.1 C 40 %
2271 12-12-2019 18:21:17 1.1 C 40 %
2272 12-12-2019 18:31:17 1 C 40 %
2273 12-12-2019 18:41:17 0.9 C 41 %
2274 12-12-2019 18:51:17 0.7 C 41 %
2275 12-12-2019 19:01:17 0.7 C 41 %
Sensor: Nr:Datum:Temp:Feuchte:
Aussen-T/F 2276 12-12-2019 19:11:17 0.6 C 41 %
2277 12-12-2019 19:21:17 0.6 C 42 %
2278 12-12-2019 19:31:17 0.6 C 42 %
2279 12-12-2019 19:41:17 0.7 C 42 %
2280 12-12-2019 19:51:17 0.7 C 41 %
2281 12-12-2019 20:01:17 0.6 C 41 %
2282 12-12-2019 20:11:17 0.6 C 41 %
2283 12-12-2019 20:21:17 0.6 C 41 %
2284 12-12-2019 20:31:17 0.6 C 41 %
2285 12-12-2019 20:41:17 0.6 C 41 %
2286 12-12-2019 20:51:17 1.3 C 42 %
2287 12-12-2019 21:01:17 1.6 C 38 %
2288 12-12-2019 21:11:17 1.6 C 36 %
2289 12-12-2019 21:21:17 1.3 C 36 %
2290 12-12-2019 21:31:17 1.3 C 35 %
2291 12-12-2019 21:41:17 1 C 35 %
2292 12-12-2019 21:51:17 0.7 C 37 %
2293 12-12-2019 22:01:17 1.2 C 37 %
2294 12-12-2019 22:11:17 0.9 C 37 %
2295 12-12-2019 22:21:18 0.4 C 38 %
2296 12-12-2019 22:31:17 0.3 C 39 %
2297 12-12-2019 22:41:17 0.2 C 40 %
2298 12-12-2019 22:51:17 0.4 C 39 %
2299 12-12-2019 23:01:18 1.1 C 37 %
2300 12-12-2019 23:11:18 1.5 C 35 %
Sensor: Nr:Datum:Temp:Feuchte:
Aussen-T/F 2301 12-12-2019 23:21:17 1.9 C 32 %
2302 12-12-2019 23:31:17 1.6 C 31 %
2303 12-12-2019 23:41:17 1.4 C 32 %
2304 12-12-2019 23:51:17 1.5 C 31 %
2305 13-12-2019 00:01:17 0.9 C 33 %
2306 13-12-2019 00:11:17 0.6 C 35 %
2307 13-12-2019 00:21:17 1 C 33 %
2308 13-12-2019 00:31:18 0.7 C 34 %
2309 13-12-2019 00:41:18 0.9 C 35 %
2310 13-12-2019 00:51:17 1.3 C 32 %
2311 13-12-2019 01:01:18 1.7 C 30 %
2312 13-12-2019 01:11:18 1.8 C 29 %
2313 13-12-2019 01:21:17 2 C 27 %
2314 13-12-2019 01:31:17 1.9 C 28 %
2315 13-12-2019 01:41:17 2 C 27 %
2316 13-12-2019 01:51:17 2 C 27 %
2317 13-12-2019 02:01:18 1.9 C 29 %
2318 13-12-2019 02:11:18 2 C 27 %
2319 13-12-2019 02:21:17 2 C 27 %
2320 13-12-2019 02:31:17 2 C 27 %
2321 13-12-2019 02:41:17 2 C 27 %
2322 13-12-2019 02:51:17 2 C 27 %
2323 13-12-2019 03:01:17 1.8 C 29 %
2324 13-12-2019 03:11:17 1.8 C 30 %
2325 13-12-2019 03:21:17 1.7 C 30 %
Sensor: Nr:Datum:Temp:Feuchte:
Aussen-T/F 2326 13-12-2019 03:31:17 1.6 C 30 %
2327 13-12-2019 03:41:17 1.7 C 30 %
2328 13-12-2019 03:51:17 1.6 C 31 %
2329 13-12-2019 04:01:17 1.4 C 32 %
2330 13-12-2019 04:11:17 1.5 C 32 %
2331 13-12-2019 04:21:17 1.6 C 32 %
2332 13-12-2019 04:31:17 1.6 C 32 %
2333 13-12-2019 04:41:17 1.6 C 32 %
2334 13-12-2019 04:51:17 1.4 C 34 %
2335 13-12-2019 05:01:17 1.4 C 35 %
2336 13-12-2019 05:11:17 1.5 C 34 %
2337 13-12-2019 05:21:17 1.5 C 34 %
2338 13-12-2019 05:31:18 1.7 C 33 %
2339 13-12-2019 05:41:18 1.7 C 32 %
2340 13-12-2019 05:51:17 1.8 C 33 %
2341 13-12-2019 06:01:17 1.9 C 32 %
2342 13-12-2019 06:11:17 2 C 31 %
2343 13-12-2019 06:21:17 2 C 31 %
2344 13-12-2019 06:31:17 2 C 32 %
2345 13-12-2019 06:41:17 1.7 C 35 %
2346 13-12-2019 06:51:17 1.8 C 37 %
2347 13-12-2019 07:01:17 1.8 C 37 %
2348 13-12-2019 07:11:18 1.7 C 39 %
2349 13-12-2019 07:21:17 1.8 C 38 %
2350 13-12-2019 07:31:17 1.8 C 40 %
Sensor: Nr:Datum:Temp:Feuchte:
Aussen-T/F 2351 13-12-2019 07:41:17 1.8 C 39 %
2352 13-12-2019 07:51:17 1.9 C 38 %
2353 13-12-2019 08:01:17 1.8 C 38 %
2354 13-12-2019 08:11:17 1.8 C 39 %
2355 13-12-2019 08:21:17 1.7 C 40 %
2356 13-12-2019 08:31:17 1.7 C 41 %
2357 13-12-2019 08:41:17 1.6 C 41 %
2358 13-12-2019 08:51:17 1.7 C 41 %
2359 13-12-2019 09:01:17 1.9 C 40 %
2360 13-12-2019 09:11:17 1.9 C 40 %
2361 13-12-2019 09:21:17 1.9 C 40 %
2362 13-12-2019 09:31:17 1.7 C 42 %
2363 13-12-2019 09:41:17 1.7 C 42 %
2364 13-12-2019 09:51:18 1.9 C 43 %
2365 13-12-2019 10:01:17 1.8 C 43 %
2366 13-12-2019 10:11:17 1.9 C 43 %
2367 13-12-2019 10:21:18 2 C 41 %
2368 13-12-2019 10:31:17 2.2 C 41 %
2369 13-12-2019 10:41:17 2.3 C 41 %
2370 13-12-2019 10:51:18 2.3 C 41 %
2371 13-12-2019 11:01:17 2.4 C 41 %
2372 13-12-2019 11:11:17 2.3 C 40 %
2373 13-12-2019 11:21:17 2.3 C 40 %
2374 13-12-2019 11:31:17 2.4 C 41 %
2375 13-12-2019 11:41:17 2.5 C 41 %
Sensor: Nr:Datum:Temp:Feuchte:
Aussen-T/F 2376 13-12-2019 11:51:18 2.8 C 42 %
2377 13-12-2019 12:01:17 3 C 41 %
2378 13-12-2019 12:11:17 3.1 C 39 %
2379 13-12-2019 12:21:17 3.2 C 38 %
2380 13-12-2019 12:31:17 3.5 C 38 %
2381 13-12-2019 12:41:17 3.5 C 38 %
2382 13-12-2019 12:51:18 3.6 C 38 %
2383 13-12-2019 13:01:18 3.8 C 39 %
2384 13-12-2019 13:11:18 4.1 C 37 %
2385 13-12-2019 13:21:17 4.6 C 38 %
2386 13-12-2019 13:31:17 5.2 C 35 %
2387 13-12-2019 13:41:17 5.7 C 35 %
2388 13-12-2019 13:51:17 6.4 C 31 %
2389 13-12-2019 14:01:17 6.7 C 30 %
2390 13-12-2019 14:11:17 7 C 28 %
2391 13-12-2019 14:21:17 6.8 C 29 %
2392 13-12-2019 14:31:17 6.8 C 28 %
2393 13-12-2019 14:41:17 6.7 C 28 %
2394 13-12-2019 14:51:18 6.4 C 29 %
2395 13-12-2019 15:01:18 6.3 C 29 %
2396 13-12-2019 15:11:18 6.3 C 29 %
2397 13-12-2019 15:21:17 6.2 C 30 %
2398 13-12-2019 15:31:17 5.9 C 30 %
2399 13-12-2019 15:41:17 5.8 C 31 %
2400 13-12-2019 15:51:17 5.5 C 31 %
Sensor: Nr:Datum:Temp:Feuchte:
Aussen-T/F 2401 13-12-2019 16:01:18 5.3 C 30 %
2402 13-12-2019 16:11:18 5.4 C 30 %
2403 13-12-2019 16:21:17 5.3 C 30 %
2404 13-12-2019 16:31:17 5.1 C 30 %
2405 13-12-2019 16:41:17 4.8 C 31 %
2406 13-12-2019 16:51:17 4.5 C 31 %
2407 13-12-2019 17:01:17 4.6 C 31 %
2408 13-12-2019 17:11:17 4.5 C 31 %
2409 13-12-2019 17:21:17 4.3 C 34 %
2410 13-12-2019 17:31:18 4.3 C 34 %
2411 13-12-2019 17:41:18 4.2 C 33 %
2412 13-12-2019 17:51:17 4 C 33 %
2413 13-12-2019 18:01:17 3.8 C 36 %
2414 13-12-2019 18:11:17 3.7 C 40 %
2415 13-12-2019 18:21:17 3.8 C 39 %
2416 13-12-2019 18:31:17 3.8 C 40 %
2417 13-12-2019 18:41:18 3.8 C 39 %
2418 13-12-2019 18:51:17 3.9 C 36 %
2419 13-12-2019 19:01:17 3.9 C 36 %
2420 13-12-2019 19:11:17 3.9 C 35 %
2421 13-12-2019 19:21:17 4 C 34 %
2422 13-12-2019 19:31:17 4.1 C 35 %
2423 13-12-2019 19:41:17 4 C 36 %
2424 13-12-2019 19:51:17 4.6 C 32 %
2425 13-12-2019 20:01:17 4.6 C 32 %
Sensor: Nr:Datum:Temp:Feuchte:
Aussen-T/F 2426 13-12-2019 20:11:17 4.8 C 31 %
2427 13-12-2019 20:21:17 4.7 C 31 %
2428 13-12-2019 20:31:17 4.7 C 31 %
2429 13-12-2019 20:41:17 4.7 C 32 %
2430 13-12-2019 20:51:17 4.5 C 32 %
2431 13-12-2019 21:01:17 4.3 C 34 %
2432 13-12-2019 21:11:17 4 C 36 %
2433 13-12-2019 21:21:17 4.5 C 35 %
2434 13-12-2019 21:31:18 4.4 C 33 %
2435 13-12-2019 21:41:18 4.4 C 35 %
2436 13-12-2019 21:51:17 4.6 C 32 %
2437 13-12-2019 22:01:17 4.6 C 31 %
2438 13-12-2019 22:11:17 4.6 C 30 %
2439 13-12-2019 22:21:17 4.7 C 30 %
2440 13-12-2019 22:31:18 4.7 C 30 %
2441 13-12-2019 22:41:18 3.8 C 34 %
2442 13-12-2019 22:51:17 3.8 C 36 %
2443 13-12-2019 23:01:17 4.5 C 32 %
2444 13-12-2019 23:11:17 5.1 C 29 %
2445 13-12-2019 23:21:17 5.2 C 28 %
2446 13-12-2019 23:31:17 5.2 C 28 %
2447 13-12-2019 23:41:17 5 C 30 %
2448 13-12-2019 23:51:17 5 C 30 %
2449 14-12-2019 00:01:17 4.4 C 32 %
2450 14-12-2019 00:11:17 4.5 C 30 %
Sensor: Nr:Datum:Temp:Feuchte:
Aussen-T/F 2451 14-12-2019 00:21:17 4.6 C 30 %
2452 14-12-2019 00:31:18 4.3 C 33 %
2453 14-12-2019 00:41:18 4.7 C 32 %
2454 14-12-2019 00:51:17 5.1 C 28 %
2455 14-12-2019 01:01:17 5.4 C 27 %
2456 14-12-2019 01:11:17 5.3 C 27 %
2457 14-12-2019 01:21:17 5.2 C 26 %
2458 14-12-2019 01:31:17 5.1 C 26 %
2459 14-12-2019 01:41:17 5.3 C 25 %
2460 14-12-2019 01:51:17 5.2 C 25 %
2461 14-12-2019 02:01:17 5 C 26 %
2462 14-12-2019 02:11:17 4.5 C 30 %
2463 14-12-2019 02:21:17 4.6 C 29 %
2464 14-12-2019 02:31:18 4.7 C 29 %
2465 14-12-2019 02:41:18 4.8 C 28 %
2466 14-12-2019 02:51:17 4.5 C 30 %
2467 14-12-2019 03:01:18 4.2 C 33 %
2468 14-12-2019 03:11:18 4.1 C 36 %
2469 14-12-2019 03:21:17 3.9 C 38 %
2470 14-12-2019 03:31:17 3.9 C 39 %
2471 14-12-2019 03:41:17 3.9 C 36 %
2472 14-12-2019 03:51:18 3.8 C 36 %
2473 14-12-2019 04:01:17 3.8 C 40 %
2474 14-12-2019 04:11:17 3.8 C 41 %
2475 14-12-2019 04:21:17 3.7 C 42 %
Sensor: Nr:Datum:Temp:Feuchte:
Aussen-T/F 2476 14-12-2019 04:31:18 3.5 C 42 %
2477 14-12-2019 04:41:18 3.5 C 42 %
2478 14-12-2019 04:51:17 3.4 C 42 %
2479 14-12-2019 05:01:17 3.4 C 41 %
2480 14-12-2019 05:11:17 3.4 C 41 %
2481 14-12-2019 05:21:17 3.4 C 42 %
2482 14-12-2019 05:31:18 3.4 C 42 %
2483 14-12-2019 05:41:18 3.4 C 43 %
2484 14-12-2019 05:51:17 3.4 C 43 %
2485 14-12-2019 06:01:18 3.4 C 42 %
2486 14-12-2019 06:11:18 3.7 C 43 %
2487 14-12-2019 06:21:17 4 C 42 %
2488 14-12-2019 06:31:17 5 C 40 %
2489 14-12-2019 06:41:17 5.2 C 39 %
2490 14-12-2019 06:51:18 5.6 C 36 %
2491 14-12-2019 07:01:17 5.6 C 36 %
2492 14-12-2019 07:11:18 5.7 C 36 %
2493 14-12-2019 07:21:17 5.8 C 36 %
2494 14-12-2019 07:31:17 5.8 C 36 %
2495 14-12-2019 07:41:17 6.3 C 37 %
2496 14-12-2019 07:51:17 6.5 C 36 %
2497 14-12-2019 08:01:17 6.8 C 35 %
2498 14-12-2019 08:11:17 7 C 28 %
2499 14-12-2019 08:21:17 7.2 C 26 %
2500 14-12-2019 08:31:18 7.1 C 25 %
Sensor: Nr:Datum:Temp:Feuchte:
Aussen-T/F 2501 14-12-2019 08:41:18 6.9 C 25 %
2502 14-12-2019 08:51:17 6.7 C 25 %
2503 14-12-2019 09:01:17 6.9 C 23 %
2504 14-12-2019 09:11:17 6.7 C 23 %
2505 14-12-2019 09:21:18 6.5 C 23 %
2506 14-12-2019 09:31:18 6.7 C 20 %
2507 14-12-2019 09:41:18 6.5 C 21 %
2508 14-12-2019 09:51:17 6.7 C 21 %
2509 14-12-2019 10:01:17 6.7 C 21 %
2510 14-12-2019 10:11:17 6.6 C 23 %
2511 14-12-2019 10:21:17 6.6 C 25 %
2512 14-12-2019 10:31:17 6.7 C 25 %
2513 14-12-2019 10:41:17 6.4 C 26 %
2514 14-12-2019 10:51:17 5.9 C 29 %
2515 14-12-2019 11:01:18 5.9 C 29 %
2516 14-12-2019 11:11:18 6.4 C 27 %
2517 14-12-2019 11:21:17 6.7 C 26 %
2518 14-12-2019 11:31:17 6.3 C 26 %
2519 14-12-2019 11:41:17 6.4 C 25 %
2520 14-12-2019 11:51:17 6.9 C 20 %
2521 14-12-2019 12:01:17 7 C 20 %
2522 14-12-2019 12:11:17 7.2 C 20 %
2523 14-12-2019 12:21:18 7 C 20 %
2524 14-12-2019 12:31:17 7.3 C 20 %
2525 14-12-2019 12:41:17 7.6 C 20 %
Sensor: Nr:Datum:Temp:Feuchte:
Aussen-T/F 2526 14-12-2019 12:51:17 7.8 C 20 %
2527 14-12-2019 13:01:17 7.9 C 20 %
2528 14-12-2019 13:11:17 8 C 20 %
2529 14-12-2019 13:21:17 8.4 C 20 %
2530 14-12-2019 13:31:17 8.4 C 20 %
2531 14-12-2019 13:41:17 8.3 C 20 %
2532 14-12-2019 13:51:17 8.4 C 20 %
2533 14-12-2019 14:01:18 8.5 C 20 %
2534 14-12-2019 14:11:18 8.4 C 20 %
2535 14-12-2019 14:21:17 8.4 C 20 %
2536 14-12-2019 14:31:18 8.7 C 20 %
2537 14-12-2019 14:41:18 8.8 C 20 %
2538 14-12-2019 14:51:18 8.6 C 20 %
2539 14-12-2019 15:01:17 7.3 C 23 %
2540 14-12-2019 15:11:17 6.8 C 28 %
2541 14-12-2019 15:21:17 6.6 C 30 %
2542 14-12-2019 15:31:17 6.7 C 28 %
2543 14-12-2019 15:41:18 6.8 C 28 %
2544 14-12-2019 15:51:17 7.1 C 26 %
2545 14-12-2019 16:01:17 7 C 26 %
2546 14-12-2019 16:11:17 6.9 C 26 %
2547 14-12-2019 16:21:17 6.9 C 27 %
2548 14-12-2019 16:31:18 7.2 C 25 %
2549 14-12-2019 16:41:18 7.6 C 25 %
2550 14-12-2019 16:51:17 7.5 C 25 %
Sensor: Nr:Datum:Temp:Feuchte:
Aussen-T/F 2551 14-12-2019 17:01:17 7.6 C 25 %
2552 14-12-2019 17:11:17 7.6 C 25 %
2553 14-12-2019 17:21:17 7.4 C 25 %
2554 14-12-2019 17:31:18 7.2 C 26 %
2555 14-12-2019 17:41:18 6.9 C 27 %
2556 14-12-2019 17:51:17 7.1 C 26 %
2557 14-12-2019 18:01:17 7.1 C 26 %
2558 14-12-2019 18:11:17 7.3 C 26 %
2559 14-12-2019 18:22:17 7.6 C 25 %
2560 14-12-2019 18:31:17 7.8 C 25 %
2561 14-12-2019 18:41:17 7.4 C 25 %
2562 14-12-2019 18:52:17 7 C 26 %
2563 14-12-2019 19:01:18 6.7 C 27 %
2564 14-12-2019 19:11:18 6.2 C 28 %
2565 14-12-2019 19:21:17 6.4 C 26 %
2566 14-12-2019 19:31:17 6.1 C 26 %
2567 14-12-2019 19:41:17 6.4 C 25 %
2568 14-12-2019 19:52:17 6.4 C 25 %
2569 14-12-2019 20:01:18 6.6 C 25 %
2570 14-12-2019 20:11:18 6.7 C 25 %
2571 14-12-2019 20:21:17 6.9 C 25 %
2572 14-12-2019 20:31:17 5.8 C 27 %
2573 14-12-2019 20:41:17 5.9 C 27 %
2574 14-12-2019 20:52:17 7 C 25 %
2575 14-12-2019 21:01:17 7.2 C 25 %
Sensor: Nr:Datum:Temp:Feuchte:
Aussen-T/F 2576 14-12-2019 21:11:17 7 C 25 %
2577 14-12-2019 21:22:17 7.1 C 25 %
2578 14-12-2019 21:31:18 6.7 C 26 %
2579 14-12-2019 21:41:18 6.8 C 26 %
2580 14-12-2019 21:52:17 6.9 C 26 %
2581 14-12-2019 22:02:17 7.1 C 25 %
2582 14-12-2019 22:11:17 6.8 C 26 %
2583 14-12-2019 22:22:17 6.9 C 26 %
2584 14-12-2019 22:31:17 7.3 C 25 %
2585 14-12-2019 22:41:17 7 C 26 %
2586 14-12-2019 22:52:17 7.3 C 25 %
2587 14-12-2019 23:02:17 7.1 C 25 %
2588 14-12-2019 23:12:17 7.3 C 25 %
2589 14-12-2019 23:22:17 7 C 26 %
2590 14-12-2019 23:31:18 7 C 26 %
2591 14-12-2019 23:41:18 7.4 C 25 %
2592 14-12-2019 23:51:18 7 C 25 %
2593 15-12-2019 00:02:17 6.4 C 27 %
2594 15-12-2019 00:11:17 6 C 28 %
2595 15-12-2019 00:22:17 5.6 C 30 %
2596 15-12-2019 00:31:18 5.3 C 31 %
2597 15-12-2019 00:41:18 5.1 C 32 %
2598 15-12-2019 00:52:17 5.2 C 32 %
2599 15-12-2019 01:02:17 5.2 C 32 %
2600 15-12-2019 01:12:17 5.3 C 33 %
Sensor: Nr:Datum:Temp:Feuchte:
Aussen-T/F 2601 15-12-2019 01:22:17 5.5 C 33 %
2602 15-12-2019 01:31:18 5.7 C 31 %
2603 15-12-2019 01:41:18 5.6 C 31 %
2604 15-12-2019 01:52:17 5.6 C 31 %
2605 15-12-2019 02:02:17 5.9 C 31 %
2606 15-12-2019 02:12:17 5.8 C 32 %
2607 15-12-2019 02:22:17 5.9 C 32 %
2608 15-12-2019 02:32:18 5.7 C 35 %
2609 15-12-2019 02:42:18 5.8 C 37 %
2610 15-12-2019 02:52:17 5.9 C 39 %
2611 15-12-2019 03:02:18 5.9 C 40 %
2612 15-12-2019 03:12:18 5.9 C 41 %
2613 15-12-2019 03:22:17 6 C 41 %
2614 15-12-2019 03:32:17 6 C 42 %
2615 15-12-2019 03:42:17 6.3 C 42 %
2616 15-12-2019 03:52:17 6.4 C 42 %
2617 15-12-2019 04:02:17 6.8 C 42 %
2618 15-12-2019 04:12:17 7.3 C 41 %
2619 15-12-2019 04:22:17 7.3 C 41 %
2620 15-12-2019 04:32:17 7.5 C 41 %
2621 15-12-2019 04:42:17 7.9 C 40 %
2622 15-12-2019 04:52:17 8 C 39 %
2623 15-12-2019 05:02:17 8.2 C 38 %
2624 15-12-2019 05:12:17 8.2 C 37 %
2625 15-12-2019 05:22:17 8.4 C 37 %
Sensor: Nr:Datum:Temp:Feuchte:
Aussen-T/F 2626 15-12-2019 05:32:18 9 C 34 %
2627 15-12-2019 05:42:18 10 C 30 %
2628 15-12-2019 05:52:17 10.2 C 30 %
2629 15-12-2019 06:02:17 10.3 C 29 %
2630 15-12-2019 06:12:17 10.3 C 29 %
2631 15-12-2019 06:22:17 10.1 C 29 %
2632 15-12-2019 06:32:17 10.5 C 28 %
2633 15-12-2019 06:42:17 10.8 C 27 %
2634 15-12-2019 06:52:17 10.7 C 27 %
2635 15-12-2019 07:02:17 10.5 C 27 %
2636 15-12-2019 07:12:17 10.9 C 27 %
2637 15-12-2019 07:22:17 10.3 C 27 %
2638 15-12-2019 07:32:17 10.6 C 27 %
2639 15-12-2019 07:42:17 10.5 C 27 %
2640 15-12-2019 07:52:17 10.7 C 27 %
2641 15-12-2019 08:02:17 10.7 C 27 %
2642 15-12-2019 08:12:17 11 C 26 %
2643 15-12-2019 08:22:17 10.9 C 27 %
2644 15-12-2019 08:32:18 10.6 C 27 %
2645 15-12-2019 08:42:18 10.2 C 28 %
2646 15-12-2019 08:52:17 9.5 C 34 %
2647 15-12-2019 09:02:17 9.2 C 34 %
2648 15-12-2019 09:12:17 8.9 C 35 %
2649 15-12-2019 09:22:17 8.7 C 33 %
2650 15-12-2019 09:32:17 8.5 C 34 %
Sensor: Nr:Datum:Temp:Feuchte:
Aussen-T/F 2651 15-12-2019 09:42:17 8.2 C 35 %
2652 15-12-2019 09:52:18 8 C 36 %
2653 15-12-2019 10:02:18 8.1 C 34 %
2654 15-12-2019 10:12:18 8.2 C 32 %
2655 15-12-2019 10:22:18 8.2 C 34 %
2656 15-12-2019 10:32:17 8.1 C 33 %
2657 15-12-2019 10:42:17 8.5 C 31 %
2658 15-12-2019 10:52:17 8.7 C 30 %
2659 15-12-2019 11:02:17 8.4 C 30 %
2660 15-12-2019 11:12:17 8.5 C 30 %
2661 15-12-2019 11:22:17 8.5 C 28 %
2662 15-12-2019 11:32:17 8.6 C 28 %
2663 15-12-2019 11:42:17 8.6 C 28 %
2664 15-12-2019 11:52:17 8.3 C 27 %
2665 15-12-2019 12:02:17 8.3 C 27 %
2666 15-12-2019 12:12:17 8.1 C 27 %
2667 15-12-2019 12:22:17 8.1 C 28 %
2668 15-12-2019 12:32:17 7.9 C 29 %
2669 15-12-2019 12:42:17 8.2 C 28 %
2670 15-12-2019 12:52:18 8.4 C 28 %
2671 15-12-2019 13:02:18 8.7 C 27 %
2672 15-12-2019 13:12:18 9.1 C 25 %
2673 15-12-2019 13:22:17 9.3 C 23 %
2674 15-12-2019 13:32:17 9.2 C 21 %
2675 15-12-2019 13:42:17 9.2 C 20 %
Sensor: Nr:Datum:Temp:Feuchte:
Aussen-T/F 2676 15-12-2019 13:52:18 9.2 C 20 %
2677 15-12-2019 14:02:17 9.2 C 20 %
2678 15-12-2019 14:12:17 9.3 C 20 %
2679 15-12-2019 14:22:17 9.3 C 20 %
2680 15-12-2019 14:32:17 9.1 C 20 %
2681 15-12-2019 14:42:17 9.1 C 20 %
2682 15-12-2019 14:52:17 9 C 20 %
2683 15-12-2019 15:02:17 9 C 20 %
2684 15-12-2019 15:12:17 8.9 C 20 %
2685 15-12-2019 15:22:17 8.9 C 20 %
2686 15-12-2019 15:32:17 8.8 C 20 %
2687 15-12-2019 15:42:17 8.7 C 20 %
2688 15-12-2019 15:52:17 8.7 C 20 %
2689 15-12-2019 16:02:17 8.4 C 20 %
2690 15-12-2019 16:12:17 8.2 C 20 %
2691 15-12-2019 16:22:18 8.4 C 20 %
2692 15-12-2019 16:32:17 7.9 C 20 %
2693 15-12-2019 16:42:17 7.6 C 20 %
2694 15-12-2019 16:52:17 8 C 20 %
2695 15-12-2019 17:02:17 7.4 C 20 %
2696 15-12-2019 17:12:17 7.4 C 20 %
2697 15-12-2019 17:22:17 7.8 C 20 %
2698 15-12-2019 17:32:17 7.2 C 21 %
2699 15-12-2019 17:42:17 7.6 C 20 %
2700 15-12-2019 17:52:17 7.7 C 20 %
Sensor: Nr:Datum:Temp:Feuchte:
Aussen-T/F 2701 15-12-2019 18:02:17 7.5 C 20 %
2702 15-12-2019 18:12:17 8.2 C 20 %
2703 15-12-2019 18:22:17 7.5 C 20 %
2704 15-12-2019 18:32:17 6.9 C 25 %
2705 15-12-2019 18:42:17 6.2 C 27 %
2706 15-12-2019 18:52:18 5.9 C 29 %
2707 15-12-2019 19:02:17 5.4 C 30 %
2708 15-12-2019 19:12:17 5.3 C 31 %
2709 15-12-2019 19:22:17 4.9 C 32 %
2710 15-12-2019 19:32:18 5.3 C 32 %
2711 15-12-2019 19:42:18 5 C 33 %
2712 15-12-2019 19:52:17 5.4 C 33 %
2713 15-12-2019 20:02:17 5.2 C 33 %
2714 15-12-2019 20:12:17 4.7 C 35 %
2715 15-12-2019 20:22:17 4.4 C 36 %
2716 15-12-2019 20:32:17 4.3 C 37 %
2717 15-12-2019 20:42:17 3.9 C 39 %
2718 15-12-2019 20:52:17 3.7 C 40 %
2719 15-12-2019 21:02:17 3.5 C 41 %
2720 15-12-2019 21:12:17 3.3 C 41 %
2721 15-12-2019 21:22:17 3.1 C 41 %
2722 15-12-2019 21:32:18 2.8 C 42 %
2723 15-12-2019 21:42:18 2.9 C 43 %
2724 15-12-2019 21:52:17 3.3 C 43 %
2725 15-12-2019 22:02:17 3.3 C 44 %
Sensor: Nr:Datum:Temp:Feuchte:
Aussen-T/F 2726 15-12-2019 22:12:17 3.3 C 43 %
2727 15-12-2019 22:22:17 3.5 C 43 %
2728 15-12-2019 22:32:17 3.5 C 43 %
2729 15-12-2019 22:42:17 3.4 C 43 %
2730 15-12-2019 22:52:18 3.3 C 43 %
2731 15-12-2019 23:02:17 3.5 C 43 %
2732 15-12-2019 23:12:18 3.6 C 43 %
2733 15-12-2019 23:22:17 3.7 C 43 %
2734 15-12-2019 23:32:18 3.5 C 42 %
2735 15-12-2019 23:42:18 3.3 C 42 %
2736 15-12-2019 23:52:17 3.8 C 43 %
2737 16-12-2019 00:02:17 4 C 42 %
2738 16-12-2019 00:12:17 4.4 C 42 %
2739 16-12-2019 00:22:17 4.4 C 42 %
2740 16-12-2019 00:32:17 4.5 C 42 %
2741 16-12-2019 00:42:17 4.5 C 42 %
2742 16-12-2019 00:52:18 4.7 C 42 %
2743 16-12-2019 01:02:17 5.1 C 41 %
2744 16-12-2019 01:12:17 5 C 41 %
2745 16-12-2019 01:22:17 5.2 C 42 %
2746 16-12-2019 01:32:17 5.2 C 41 %
2747 16-12-2019 01:42:18 5.3 C 42 %
2748 16-12-2019 01:52:17 5.5 C 42 %
2749 16-12-2019 02:02:18 5.4 C 42 %
2750 16-12-2019 02:12:18 5.5 C 42 %
Sensor: Nr:Datum:Temp:Feuchte:
Aussen-T/F 2751 16-12-2019 02:22:17 5.7 C 42 %
2752 16-12-2019 02:32:17 5.7 C 42 %
2753 16-12-2019 02:42:17 5.9 C 42 %
2754 16-12-2019 02:52:18 5.8 C 41 %
2755 16-12-2019 03:02:17 5.8 C 41 %
2756 16-12-2019 03:12:17 5.9 C 41 %
2757 16-12-2019 03:22:17 5.9 C 41 %
2758 16-12-2019 03:32:18 5.9 C 41 %
2759 16-12-2019 03:42:18 5.8 C 41 %
2760 16-12-2019 03:52:17 6 C 41 %
2761 16-12-2019 04:02:17 6 C 41 %
2762 16-12-2019 04:12:17 6 C 41 %
2763 16-12-2019 04:22:17 5.9 C 41 %
2764 16-12-2019 04:32:17 6.1 C 41 %
2765 16-12-2019 04:42:17 6.2 C 41 %
2766 16-12-2019 04:52:17 6.3 C 41 %
2767 16-12-2019 05:02:17 6.4 C 41 %
2768 16-12-2019 05:12:17 6.4 C 41 %
2769 16-12-2019 05:22:17 6.5 C 41 %
2770 16-12-2019 05:32:17 6.6 C 41 %
2771 16-12-2019 05:42:17 6.6 C 41 %
2772 16-12-2019 05:52:17 6.8 C 41 %
2773 16-12-2019 06:02:17 6.9 C 41 %
2774 16-12-2019 06:12:17 6.9 C 41 %
2775 16-12-2019 06:22:17 6.8 C 40 %
Sensor: Nr:Datum:Temp:Feuchte:
Aussen-T/F 2776 16-12-2019 06:32:17 6.7 C 40 %
2777 16-12-2019 06:42:17 6.8 C 40 %
2778 16-12-2019 06:52:17 6.8 C 40 %
2779 16-12-2019 07:02:17 6.8 C 40 %
2780 16-12-2019 07:12:17 6.7 C 40 %
2781 16-12-2019 07:22:17 6.8 C 40 %
2782 16-12-2019 07:32:18 6.9 C 41 %
2783 16-12-2019 07:42:18 6.9 C 41 %
2784 16-12-2019 07:52:17 7 C 40 %
2785 16-12-2019 08:02:17 7.1 C 40 %
2786 16-12-2019 08:12:17 7 C 40 %
2787 16-12-2019 08:22:17 7.1 C 40 %
2788 16-12-2019 08:32:17 7.1 C 40 %
2789 16-12-2019 08:42:17 7.1 C 40 %
2790 16-12-2019 08:52:17 7.2 C 40 %
2791 16-12-2019 09:02:17 7.3 C 40 %
2792 16-12-2019 09:12:17 7.5 C 40 %
2793 16-12-2019 09:22:18 7.4 C 40 %
2794 16-12-2019 09:32:17 7.5 C 40 %
2795 16-12-2019 09:42:17 7.5 C 40 %
2796 16-12-2019 09:52:17 7.6 C 40 %
2797 16-12-2019 10:02:18 7.6 C 40 %
2798 16-12-2019 10:12:18 7.7 C 40 %
2799 16-12-2019 10:22:17 7.8 C 40 %
2800 16-12-2019 10:32:17 7.9 C 40 %
Sensor: Nr:Datum:Temp:Feuchte:
Aussen-T/F 2801 16-12-2019 10:42:17 8.1 C 40 %
2802 16-12-2019 10:52:17 8.2 C 40 %
2803 16-12-2019 11:02:17 8.3 C 40 %
2804 16-12-2019 11:12:17 8.5 C 40 %
2805 16-12-2019 11:22:17 8.9 C 40 %
2806 16-12-2019 11:32:18 8.8 C 39 %
2807 16-12-2019 11:42:18 9.1 C 39 %
2808 16-12-2019 11:52:17 9.4 C 39 %
2809 16-12-2019 12:02:17 9.3 C 38 %
2810 16-12-2019 12:12:17 9.3 C 37 %
2811 16-12-2019 12:22:17 9.3 C 37 %
2812 16-12-2019 12:32:17 9.4 C 37 %
2813 16-12-2019 12:42:17 9.4 C 38 %
2814 16-12-2019 12:52:17 9.8 C 38 %
2815 16-12-2019 13:02:17 9.9 C 36 %
2816 16-12-2019 13:12:17 9.9 C 36 %
2817 16-12-2019 13:22:17 10 C 35 %
2818 16-12-2019 13:32:17 10.2 C 34 %
2819 16-12-2019 13:42:17 10.2 C 35 %
2820 16-12-2019 13:52:18 10.3 C 34 %
2821 16-12-2019 14:02:17 10.1 C 34 %
2822 16-12-2019 14:12:17 10.2 C 34 %
2823 16-12-2019 14:22:17 10.3 C 34 %
2824 16-12-2019 14:32:17 10.2 C 33 %
2825 16-12-2019 14:42:17 10.1 C 34 %
Sensor: Nr:Datum:Temp:Feuchte:
Aussen-T/F 2826 16-12-2019 14:52:18 10.1 C 34 %
2827 16-12-2019 15:02:17 9.9 C 35 %
2828 16-12-2019 15:12:17 9.8 C 35 %
2829 16-12-2019 15:22:17 9.6 C 36 %
2830 16-12-2019 15:32:18 9.3 C 37 %
2831 16-12-2019 15:42:18 9.1 C 39 %
2832 16-12-2019 15:52:17 9 C 40 %
2833 16-12-2019 16:02:17 8.7 C 40 %
2834 16-12-2019 16:12:17 8.5 C 40 %
2835 16-12-2019 16:22:17 8.4 C 40 %
2836 16-12-2019 16:32:18 8.2 C 41 %
2837 16-12-2019 16:42:18 8 C 40 %
2838 16-12-2019 16:52:17 7.7 C 41 %
2839 16-12-2019 17:02:17 7.4 C 41 %
2840 16-12-2019 17:12:17 7.3 C 41 %
2841 16-12-2019 17:22:17 7.5 C 41 %
2842 16-12-2019 17:32:17 7.3 C 41 %
2843 16-12-2019 17:42:17 7.2 C 41 %
2844 16-12-2019 17:52:17 7 C 41 %
2845 16-12-2019 18:02:17 7.1 C 41 %
2846 16-12-2019 18:12:17 7.4 C 41 %
2847 16-12-2019 18:22:17 7.5 C 41 %
2848 16-12-2019 18:32:17 8.2 C 40 %
2849 16-12-2019 18:42:17 8.1 C 38 %
2850 16-12-2019 18:52:17 8.7 C 37 %
Sensor: Nr:Datum:Temp:Feuchte:
Aussen-T/F 2851 16-12-2019 19:02:18 8.5 C 35 %
2852 16-12-2019 19:12:18 7.9 C 36 %
2853 16-12-2019 19:22:17 7.7 C 37 %
2854 16-12-2019 19:32:17 8.5 C 40 %
2855 16-12-2019 19:42:17 7.9 C 37 %
2856 16-12-2019 19:52:18 8 C 37 %
2857 16-12-2019 20:02:17 7.9 C 37 %
2858 16-12-2019 20:12:17 8.1 C 36 %
2859 16-12-2019 20:22:17 7.7 C 37 %
2860 16-12-2019 20:32:17 8 C 39 %
2861 16-12-2019 20:42:17 7.9 C 36 %
2862 16-12-2019 20:52:17 7.8 C 36 %
2863 16-12-2019 21:02:17 7.3 C 37 %
2864 16-12-2019 21:12:17 7.2 C 40 %
2865 16-12-2019 21:22:17 7.5 C 39 %
2866 16-12-2019 21:32:17 7.2 C 38 %
2867 16-12-2019 21:42:17 7 C 40 %
2868 16-12-2019 21:52:17 6.7 C 41 %
2869 16-12-2019 22:02:17 6.9 C 41 %
2870 16-12-2019 22:12:17 7.5 C 40 %
2871 16-12-2019 22:22:17 7.4 C 38 %
2872 16-12-2019 22:32:17 7.9 C 37 %
2873 16-12-2019 22:42:17 7.8 C 36 %
2874 16-12-2019 22:52:18 7.3 C 37 %
2875 16-12-2019 23:02:17 7.3 C 39 %
Sensor: Nr:Datum:Temp:Feuchte:
Aussen-T/F 2876 16-12-2019 23:12:17 7.3 C 39 %
2877 16-12-2019 23:22:17 7.5 C 40 %
2878 16-12-2019 23:32:17 7.6 C 39 %
2879 16-12-2019 23:42:17 7.6 C 39 %
2880 16-12-2019 23:52:18 7.8 C 39 %
2881 17-12-2019 00:02:17 7.6 C 37 %
2882 17-12-2019 00:12:17 7.5 C 38 %
2883 17-12-2019 00:22:17 7.6 C 38 %
2884 17-12-2019 00:32:18 7.3 C 39 %
2885 17-12-2019 00:42:18 7.2 C 40 %
2886 17-12-2019 00:52:17 7.4 C 39 %
2887 17-12-2019 01:02:17 7.2 C 39 %
2888 17-12-2019 01:12:17 7.4 C 40 %
2889 17-12-2019 01:22:17 7.8 C 39 %
2890 17-12-2019 01:32:17 7.3 C 37 %
2891 17-12-2019 01:42:17 7.4 C 38 %
2892 17-12-2019 01:52:17 7.4 C 37 %
2893 17-12-2019 02:02:18 7.4 C 37 %
2894 17-12-2019 02:12:18 7.6 C 37 %
2895 17-12-2019 02:22:17 7.3 C 37 %
2896 17-12-2019 02:32:17 7.1 C 37 %
2897 17-12-2019 02:42:17 7.5 C 36 %
2898 17-12-2019 02:52:18 7.6 C 36 %
2899 17-12-2019 03:02:17 8 C 35 %
2900 17-12-2019 03:12:17 8.1 C 35 %
Sensor: Nr:Datum:Temp:Feuchte:
Aussen-T/F 2901 17-12-2019 03:22:17 8.4 C 35 %
2902 17-12-2019 03:32:17 8.8 C 32 %
2903 17-12-2019 03:42:17 8.9 C 32 %
2904 17-12-2019 03:52:18 8.8 C 32 %
2905 17-12-2019 04:02:17 8.5 C 32 %
2906 17-12-2019 04:12:17 8.5 C 32 %
2907 17-12-2019 04:22:17 8.4 C 32 %
2908 17-12-2019 04:32:17 8.4 C 32 %
2909 17-12-2019 04:42:17 8 C 32 %
2910 17-12-2019 04:52:18 8.3 C 33 %
2911 17-12-2019 05:02:17 8.5 C 33 %
2912 17-12-2019 05:12:17 8.5 C 33 %
2913 17-12-2019 05:22:17 8.2 C 33 %
2914 17-12-2019 05:32:17 8.1 C 34 %
2915 17-12-2019 05:42:17 7.9 C 35 %
2916 17-12-2019 05:52:17 7.9 C 36 %
2917 17-12-2019 06:02:17 7.8 C 36 %
2918 17-12-2019 06:12:17 7.3 C 36 %
2919 17-12-2019 06:22:18 7.3 C 38 %
2920 17-12-2019 06:32:17 7.5 C 38 %
2921 17-12-2019 06:42:17 7.6 C 36 %
2922 17-12-2019 06:52:17 7.6 C 38 %
2923 17-12-2019 07:02:17 7.7 C 36 %
2924 17-12-2019 07:12:17 7.6 C 37 %
2925 17-12-2019 07:22:17 7.5 C 36 %
Sensor: Nr:Datum:Temp:Feuchte:
Aussen-T/F 2926 17-12-2019 07:32:18 7 C 37 %
2927 17-12-2019 07:42:18 7.4 C 38 %
2928 17-12-2019 07:52:17 7.2 C 36 %
2929 17-12-2019 08:02:17 7.2 C 36 %
2930 17-12-2019 08:12:17 6.9 C 37 %
2931 17-12-2019 08:22:17 6.9 C 38 %
2932 17-12-2019 08:32:17 7 C 38 %
2933 17-12-2019 08:42:18 6.9 C 37 %
2934 17-12-2019 08:52:17 6.9 C 37 %
2935 17-12-2019 09:02:17 6.5 C 38 %
2936 17-12-2019 09:12:17 6.4 C 39 %
2937 17-12-2019 09:22:18 6.5 C 40 %
2938 17-12-2019 09:32:17 6.4 C 40 %
2939 17-12-2019 09:42:17 6.6 C 40 %
2940 17-12-2019 09:52:17 6.3 C 39 %
2941 17-12-2019 10:02:18 6.4 C 40 %
2942 17-12-2019 10:12:18 6.4 C 40 %
2943 17-12-2019 10:22:17 6.4 C 39 %
2944 17-12-2019 10:32:17 6.8 C 40 %
2945 17-12-2019 10:42:17 7.2 C 37 %
2946 17-12-2019 10:52:17 8 C 36 %
2947 17-12-2019 11:02:17 8.6 C 34 %
2948 17-12-2019 11:12:17 8.5 C 32 %
2949 17-12-2019 11:22:17 8.7 C 32 %
2950 17-12-2019 11:32:17 9 C 32 %
Sensor: Nr:Datum:Temp:Feuchte:
Aussen-T/F 2951 17-12-2019 11:42:17 9.1 C 32 %
2952 17-12-2019 11:52:17 9 C 32 %
2953 17-12-2019 12:02:17 9 C 34 %
2954 17-12-2019 12:12:17 9.2 C 34 %
2955 17-12-2019 12:22:17 9.5 C 33 %
2956 17-12-2019 12:32:17 9.7 C 32 %
2957 17-12-2019 12:42:17 9.8 C 32 %
2958 17-12-2019 12:52:17 9.6 C 32 %
2959 17-12-2019 13:02:17 10.1 C 31 %
2960 17-12-2019 13:12:17 10.4 C 30 %
2961 17-12-2019 13:22:17 10.6 C 30 %
2962 17-12-2019 13:32:17 11 C 29 %
2963 17-12-2019 13:42:17 11.6 C 28 %
2964 17-12-2019 13:52:18 12.3 C 26 %
2965 17-12-2019 14:02:17 12.5 C 26 %
2966 17-12-2019 14:12:17 12.4 C 26 %
2967 17-12-2019 14:22:17 11.6 C 27 %
2968 17-12-2019 14:32:17 11.4 C 27 %
2969 17-12-2019 14:42:17 11.5 C 27 %
2970 17-12-2019 14:52:17 11.8 C 27 %
2971 17-12-2019 15:02:17 12 C 26 %
2972 17-12-2019 15:12:17 12 C 26 %
2973 17-12-2019 15:22:17 11.8 C 27 %
2974 17-12-2019 15:32:17 11.8 C 27 %
2975 17-12-2019 15:42:17 12.3 C 25 %
Sensor: Nr:Datum:Temp:Feuchte:
Aussen-T/F 2976 17-12-2019 15:52:18 12.2 C 25 %
2977 17-12-2019 16:02:17 12.4 C 25 %
2978 17-12-2019 16:12:17 12.4 C 25 %
2979 17-12-2019 16:22:17 12.5 C 25 %
2980 17-12-2019 16:32:18 12.6 C 25 %
2981 17-12-2019 16:42:18 12.2 C 25 %
2982 17-12-2019 16:52:17 11.8 C 25 %
2983 17-12-2019 17:02:17 11.2 C 26 %
2984 17-12-2019 17:12:18 11.5 C 25 %
2985 17-12-2019 17:22:17 12 C 24 %
2986 17-12-2019 17:32:18 13.1 C 20 %
2987 17-12-2019 17:42:18 13.4 C 20 %
2988 17-12-2019 17:52:17 13.8 C 20 %
2989 17-12-2019 18:02:17 13.4 C 20 %
2990 17-12-2019 18:12:17 13.2 C 20 %
2991 17-12-2019 18:22:17 13.6 C 20 %
2992 17-12-2019 18:32:17 13.7 C 20 %
2993 17-12-2019 18:42:17 13.1 C 21 %
2994 17-12-2019 18:52:17 12.7 C 25 %
2995 17-12-2019 19:02:17 12.8 C 25 %
2996 17-12-2019 19:12:17 13.1 C 22 %
2997 17-12-2019 19:22:17 12.8 C 25 %
2998 17-12-2019 19:32:18 11.7 C 29 %
2999 17-12-2019 19:42:18 11.6 C 29 %
3000 17-12-2019 19:52:17 11.6 C 30 %
Sensor: Nr:Datum:Temp:Feuchte:
Aussen-T/F 3001 17-12-2019 20:02:18 11.6 C 30 %
3002 17-12-2019 20:12:18 11.5 C 31 %
3003 17-12-2019 20:22:17 11.6 C 31 %
3004 17-12-2019 20:32:17 11.3 C 33 %
3005 17-12-2019 20:42:17 11.2 C 35 %
3006 17-12-2019 20:52:17 11 C 36 %
3007 17-12-2019 21:02:17 10.9 C 36 %
3008 17-12-2019 21:12:17 10.5 C 38 %
3009 17-12-2019 21:22:17 10.3 C 39 %
3010 17-12-2019 21:32:17 10.4 C 38 %
3011 17-12-2019 21:42:17 11.5 C 31 %
3012 17-12-2019 21:52:17 11.3 C 31 %
3013 17-12-2019 22:02:17 13 C 25 %
3014 17-12-2019 22:12:17 12.5 C 26 %
3015 17-12-2019 22:22:17 13.1 C 25 %
3016 17-12-2019 22:32:17 13.4 C 25 %
3017 17-12-2019 22:42:17 13.2 C 25 %
3018 17-12-2019 22:52:17 13.1 C 25 %
3019 17-12-2019 23:02:17 12.4 C 26 %
3020 17-12-2019 23:12:17 11.9 C 29 %
3021 17-12-2019 23:22:17 11.3 C 30 %
3022 17-12-2019 23:32:17 11.1 C 31 %
3023 17-12-2019 23:42:17 11 C 30 %
3024 17-12-2019 23:52:17 10.8 C 33 %
3025 18-12-2019 00:02:17 10.4 C 35 %
Sensor: Nr:Datum:Temp:Feuchte:
Aussen-T/F 3026 18-12-2019 00:12:17 10.4 C 34 %
3027 18-12-2019 00:22:17 10.5 C 34 %
3028 18-12-2019 00:32:18 10.9 C 31 %
3029 18-12-2019 00:42:18 11 C 30 %
3030 18-12-2019 00:52:17 11 C 30 %
3031 18-12-2019 01:02:17 10.8 C 30 %
3032 18-12-2019 01:12:17 11 C 29 %
3033 18-12-2019 01:22:17 11.1 C 29 %
3034 18-12-2019 01:32:18 10.9 C 30 %
3035 18-12-2019 01:42:18 10.4 C 30 %
3036 18-12-2019 01:52:17 10.8 C 30 %
3037 18-12-2019 02:02:17 11.1 C 30 %
3038 18-12-2019 02:12:17 11.1 C 29 %
3039 18-12-2019 02:22:17 11.2 C 30 %
3040 18-12-2019 02:32:17 11.3 C 29 %
3041 18-12-2019 02:42:18 10.9 C 30 %
3042 18-12-2019 02:52:17 10.9 C 31 %
3043 18-12-2019 03:02:17 10.6 C 33 %
3044 18-12-2019 03:12:17 10.3 C 35 %
3045 18-12-2019 03:22:18 10.3 C 37 %
3046 18-12-2019 03:32:17 10.1 C 37 %
3047 18-12-2019 03:42:17 10 C 38 %
3048 18-12-2019 03:52:18 10.1 C 38 %
3049 18-12-2019 04:02:18 10 C 38 %
3050 18-12-2019 04:12:18 9.9 C 38 %
Sensor: Nr:Datum:Temp:Feuchte:
Aussen-T/F 3051 18-12-2019 04:22:17 9.8 C 35 %
3052 18-12-2019 04:32:18 9.6 C 34 %
3053 18-12-2019 04:42:18 9.5 C 33 %
3054 18-12-2019 04:52:17 9.3 C 33 %
3055 18-12-2019 05:02:18 9.2 C 33 %
3056 18-12-2019 05:12:18 9.1 C 33 %
3057 18-12-2019 05:22:17 8.8 C 35 %
3058 18-12-2019 05:32:17 8.7 C 36 %
3059 18-12-2019 05:42:17 8.2 C 36 %
3060 18-12-2019 05:52:17 8.2 C 39 %
3061 18-12-2019 06:02:18 8.1 C 39 %
3062 18-12-2019 06:12:18 8 C 37 %
3063 18-12-2019 06:22:17 8 C 37 %
3064 18-12-2019 06:32:18 7.9 C 37 %
3065 18-12-2019 06:42:18 7.5 C 37 %
3066 18-12-2019 06:52:17 7.4 C 39 %
3067 18-12-2019 07:02:17 7.2 C 40 %
3068 18-12-2019 07:12:17 7.3 C 40 %
3069 18-12-2019 07:22:17 7.3 C 40 %
3070 18-12-2019 07:32:17 7.1 C 39 %
3071 18-12-2019 07:42:17 6.8 C 40 %
3072 18-12-2019 07:52:17 6.9 C 41 %
3073 18-12-2019 08:02:17 6.7 C 41 %
3074 18-12-2019 08:12:17 6.5 C 41 %
3075 18-12-2019 08:22:17 6.5 C 41 %
Sensor: Nr:Datum:Temp:Feuchte:
Aussen-T/F 3076 18-12-2019 08:32:17 6.3 C 41 %
3077 18-12-2019 08:42:17 6.4 C 42 %
3078 18-12-2019 08:52:17 6.6 C 42 %
3079 18-12-2019 09:02:17 6.5 C 41 %
3080 18-12-2019 09:12:17 6.1 C 40 %
3081 18-12-2019 09:22:17 6 C 41 %
3082 18-12-2019 09:32:17 6.5 C 42 %
3083 18-12-2019 09:42:17 6.7 C 42 %
3084 18-12-2019 09:52:17 6.9 C 41 %
3085 18-12-2019 10:02:17 7 C 40 %
3086 18-12-2019 10:12:18 7.1 C 40 %
3087 18-12-2019 10:22:17 7.5 C 38 %
3088 18-12-2019 10:32:17 7.5 C 36 %
3089 18-12-2019 10:42:17 7.4 C 36 %
3090 18-12-2019 10:52:17 6.9 C 38 %
3091 18-12-2019 11:02:17 6.8 C 38 %
3092 18-12-2019 11:12:17 6.8 C 38 %
3093 18-12-2019 11:22:17 6.6 C 38 %
3094 18-12-2019 11:32:18 6.7 C 39 %
3095 18-12-2019 11:42:18 6.9 C 38 %
3096 18-12-2019 11:52:17 7.6 C 35 %
3097 18-12-2019 12:02:17 8.1 C 33 %
3098 18-12-2019 12:12:17 8 C 32 %
3099 18-12-2019 12:22:17 8.3 C 31 %
3100 18-12-2019 12:32:17 8.6 C 30 %
Sensor: Nr:Datum:Temp:Feuchte:
Aussen-T/F 3101 18-12-2019 12:42:17 8.8 C 29 %
3102 18-12-2019 12:52:17 8.7 C 29 %
3103 18-12-2019 13:02:17 8.4 C 30 %
3104 18-12-2019 13:12:17 8.2 C 30 %
3105 18-12-2019 13:22:17 7.9 C 31 %
3106 18-12-2019 13:32:18 7.8 C 32 %
3107 18-12-2019 13:42:18 7.7 C 33 %
3108 18-12-2019 13:52:17 7.8 C 32 %
3109 18-12-2019 14:02:18 7.8 C 33 %
3110 18-12-2019 14:12:18 7.7 C 33 %
3111 18-12-2019 14:22:17 7.5 C 34 %
3112 18-12-2019 14:32:17 7.3 C 35 %
3113 18-12-2019 14:42:17 7.2 C 35 %
3114 18-12-2019 14:52:17 7.2 C 35 %
3115 18-12-2019 15:02:17 7.2 C 35 %
3116 18-12-2019 15:12:17 7 C 36 %
3117 18-12-2019 15:22:17 7 C 36 %
3118 18-12-2019 15:32:17 6.7 C 37 %
3119 18-12-2019 15:42:17 6.8 C 37 %
3120 18-12-2019 15:52:17 6.7 C 36 %
3121 18-12-2019 16:02:17 6.6 C 36 %
3122 18-12-2019 16:12:17 6.5 C 36 %
3123 18-12-2019 16:22:17 6.4 C 36 %
3124 18-12-2019 16:32:17 6 C 36 %
3125 18-12-2019 16:42:17 5.8 C 37 %
Sensor: Nr:Datum:Temp:Feuchte:
Aussen-T/F 3126 18-12-2019 16:52:17 5.7 C 39 %
3127 18-12-2019 17:02:17 5.3 C 38 %
3128 18-12-2019 17:12:17 4.9 C 40 %
3129 18-12-2019 17:22:17 5 C 42 %
3130 18-12-2019 17:32:17 4.4 C 41 %
3131 18-12-2019 17:42:17 4.2 C 42 %
3132 18-12-2019 17:52:18 4.1 C 42 %
3133 18-12-2019 18:02:17 4.1 C 43 %
3134 18-12-2019 18:12:17 4.1 C 43 %
3135 18-12-2019 18:22:17 4.4 C 43 %
3136 18-12-2019 18:32:17 4.5 C 43 %
3137 18-12-2019 18:42:17 4.3 C 42 %
3138 18-12-2019 18:52:17 4.6 C 43 %
3139 18-12-2019 19:02:17 5 C 42 %
3140 18-12-2019 19:12:17 4.7 C 42 %
3141 18-12-2019 19:22:17 4.3 C 42 %
3142 18-12-2019 19:32:18 4.9 C 43 %
3143 18-12-2019 19:42:18 4.7 C 42 %
3144 18-12-2019 19:52:17 4.6 C 42 %
3145 18-12-2019 20:02:17 5 C 42 %
3146 18-12-2019 20:12:17 5 C 41 %
3147 18-12-2019 20:22:17 4.5 C 41 %
3148 18-12-2019 20:32:17 4.5 C 41 %
3149 18-12-2019 20:42:18 4.1 C 41 %
3150 18-12-2019 20:52:17 3.9 C 42 %
Sensor: Nr:Datum:Temp:Feuchte:
Aussen-T/F 3151 18-12-2019 21:02:17 3.7 C 43 %
3152 18-12-2019 21:12:17 3.6 C 42 %
3153 18-12-2019 21:22:17 3.6 C 43 %
3154 18-12-2019 21:32:17 3.7 C 43 %
3155 18-12-2019 21:42:17 3.6 C 43 %
3156 18-12-2019 21:52:17 3.4 C 43 %
3157 18-12-2019 22:02:17 3.1 C 43 %
3158 18-12-2019 22:12:17 3.1 C 43 %
3159 18-12-2019 22:22:17 2.7 C 43 %
3160 18-12-2019 22:32:17 2.6 C 43 %
3161 18-12-2019 22:42:17 2.5 C 43 %
3162 18-12-2019 22:52:17 2.4 C 43 %
3163 18-12-2019 23:02:17 2.4 C 43 %
3164 18-12-2019 23:12:17 2.3 C 43 %
3165 18-12-2019 23:22:18 2.3 C 43 %
3166 18-12-2019 23:32:17 2 C 43 %
3167 18-12-2019 23:42:17 2 C 43 %
3168 18-12-2019 23:52:17 2 C 43 %
3169 19-12-2019 00:02:18 2.3 C 44 %
3170 19-12-2019 00:12:18 2 C 43 %
3171 19-12-2019 00:22:17 2 C 43 %
3172 19-12-2019 00:32:17 2.1 C 43 %
3173 19-12-2019 00:42:17 2.4 C 44 %
3174 19-12-2019 00:52:18 2.3 C 43 %
3175 19-12-2019 01:02:17 2.1 C 43 %
Sensor: Nr:Datum:Temp:Feuchte:
Aussen-T/F 3176 19-12-2019 01:12:17 2 C 43 %
3177 19-12-2019 01:22:17 2 C 43 %
3178 19-12-2019 01:32:18 1.6 C 44 %
3179 19-12-2019 01:42:18 1.9 C 44 %
3180 19-12-2019 01:52:17 2.3 C 43 %
3181 19-12-2019 02:02:17 2.2 C 43 %
3182 19-12-2019 02:12:17 2 C 43 %
3183 19-12-2019 02:22:17 2 C 43 %
3184 19-12-2019 02:32:18 2 C 43 %
3185 19-12-2019 02:42:18 1.8 C 44 %
3186 19-12-2019 02:52:17 2.1 C 43 %
3187 19-12-2019 03:02:18 1.5 C 44 %
3188 19-12-2019 03:12:18 1.6 C 44 %
3189 19-12-2019 03:22:17 1.6 C 44 %
3190 19-12-2019 03:32:17 1.8 C 44 %
3191 19-12-2019 03:42:17 1.7 C 44 %
3192 19-12-2019 03:52:17 1.7 C 44 %
3193 19-12-2019 04:02:17 1.6 C 44 %
3194 19-12-2019 04:12:17 1.5 C 44 %
3195 19-12-2019 04:22:18 1.5 C 44 %
3196 19-12-2019 04:32:17 1.5 C 44 %
3197 19-12-2019 04:42:17 1.4 C 44 %
3198 19-12-2019 04:52:18 1.6 C 44 %
3199 19-12-2019 05:02:17 1.4 C 44 %
3200 19-12-2019 05:12:17 1.5 C 44 %
Sensor: Nr:Datum:Temp:Feuchte:
Aussen-T/F 3201 19-12-2019 05:22:17 1.4 C 44 %
3202 19-12-2019 05:32:17 1.3 C 44 %
3203 19-12-2019 05:42:17 1.3 C 44 %
3204 19-12-2019 05:52:17 1.1 C 44 %
3205 19-12-2019 06:02:17 1.1 C 44 %
3206 19-12-2019 06:12:17 1.2 C 44 %
3207 19-12-2019 06:22:17 1 C 44 %
3208 19-12-2019 06:32:17 1.1 C 44 %
3209 19-12-2019 06:42:18 1 C 43 %
3210 19-12-2019 06:52:17 0.7 C 45 %
3211 19-12-2019 07:02:17 1 C 44 %
3212 19-12-2019 07:12:17 0.9 C 45 %
3213 19-12-2019 07:22:17 1.7 C 44 %
3214 19-12-2019 07:32:17 3.5 C 43 %
3215 19-12-2019 07:42:18 3.2 C 42 %
3216 19-12-2019 07:52:17 3.1 C 42 %
3217 19-12-2019 08:02:18 4.6 C 42 %
3218 19-12-2019 08:12:18 3.8 C 42 %
3219 19-12-2019 08:22:17 3.7 C 42 %
3220 19-12-2019 08:32:18 4.6 C 41 %
3221 19-12-2019 08:42:18 4 C 41 %
3222 19-12-2019 08:52:17 3.3 C 41 %
3223 19-12-2019 09:02:17 4 C 41 %
3224 19-12-2019 09:12:17 4.4 C 41 %
3225 19-12-2019 09:22:17 4.1 C 41 %
Sensor: Nr:Datum:Temp:Feuchte:
Aussen-T/F 3226 19-12-2019 09:32:17 4.6 C 41 %
3227 19-12-2019 09:42:17 4.4 C 41 %
3228 19-12-2019 09:52:17 4.5 C 41 %
3229 19-12-2019 10:02:17 4.7 C 41 %
3230 19-12-2019 10:12:17 4.9 C 41 %
3231 19-12-2019 10:22:17 5.2 C 41 %
3232 19-12-2019 10:32:17 7 C 40 %
3233 19-12-2019 10:42:17 7.2 C 40 %
3234 19-12-2019 10:52:18 6.7 C 40 %
3235 19-12-2019 11:02:17 6.4 C 39 %
3236 19-12-2019 11:12:17 6.3 C 39 %
3237 19-12-2019 11:22:17 6.3 C 40 %
3238 19-12-2019 11:32:17 6.4 C 40 %
3239 19-12-2019 11:42:17 6.6 C 40 %
3240 19-12-2019 11:52:18 6.7 C 40 %
3241 19-12-2019 12:02:17 6.6 C 40 %
3242 19-12-2019 12:12:17 6.7 C 40 %
3243 19-12-2019 12:22:17 6.7 C 40 %
3244 19-12-2019 12:32:17 7 C 39 %
3245 19-12-2019 12:42:17 7 C 39 %
3246 19-12-2019 12:52:17 7.1 C 39 %
3247 19-12-2019 13:02:17 7.3 C 39 %
3248 19-12-2019 13:12:17 7.1 C 38 %
3249 19-12-2019 13:22:17 7.2 C 39 %
3250 19-12-2019 13:32:17 7.2 C 39 %
Sensor: Nr:Datum:Temp:Feuchte:
Aussen-T/F 3251 19-12-2019 13:42:17 7.3 C 38 %
3252 19-12-2019 13:52:17 7.3 C 38 %
3253 19-12-2019 14:02:17 7.3 C 38 %
3254 19-12-2019 14:12:17 7.1 C 38 %
3255 19-12-2019 14:22:17 7.1 C 38 %
3256 19-12-2019 14:32:17 7.2 C 38 %
3257 19-12-2019 14:42:17 7.3 C 37 %
3258 19-12-2019 14:52:17 7.9 C 36 %
3259 19-12-2019 15:02:17 8.1 C 34 %
3260 19-12-2019 15:12:17 8.1 C 33 %
3261 19-12-2019 15:22:17 8.4 C 32 %
3262 19-12-2019 15:32:18 8.6 C 32 %
3263 19-12-2019 15:42:18 8.7 C 31 %
3264 19-12-2019 15:52:17 8.8 C 31 %
3265 19-12-2019 16:02:17 8.7 C 30 %
3266 19-12-2019 16:12:17 8.3 C 31 %
3267 19-12-2019 16:22:18 8.1 C 31 %
3268 19-12-2019 16:32:17 7.9 C 32 %
3269 19-12-2019 16:42:17 7.9 C 31 %
3270 19-12-2019 16:52:17 7.6 C 32 %
3271 19-12-2019 17:02:17 7.4 C 32 %
3272 19-12-2019 17:12:17 6 C 35 %
3273 19-12-2019 17:22:17 5.7 C 37 %
3274 19-12-2019 17:32:17 5.5 C 39 %
3275 19-12-2019 17:42:17 5 C 39 %
Sensor: Nr:Datum:Temp:Feuchte:
Aussen-T/F 3276 19-12-2019 17:52:17 4.9 C 41 %
3277 19-12-2019 18:02:17 5.2 C 42 %
3278 19-12-2019 18:12:18 4.9 C 42 %
3279 19-12-2019 18:22:17 5.2 C 42 %
3280 19-12-2019 18:32:17 5 C 41 %
3281 19-12-2019 18:42:17 5 C 41 %
3282 19-12-2019 18:52:18 5.8 C 42 %
3283 19-12-2019 19:02:17 5.7 C 41 %
3284 19-12-2019 19:12:17 5.2 C 39 %
3285 19-12-2019 19:22:18 4.7 C 40 %
3286 19-12-2019 19:32:17 4.9 C 42 %
3287 19-12-2019 19:42:17 4.7 C 42 %
3288 19-12-2019 19:52:17 4.8 C 42 %
3289 19-12-2019 20:02:17 5 C 42 %
3290 19-12-2019 20:12:17 5 C 41 %
3291 19-12-2019 20:22:17 4.8 C 42 %
3292 19-12-2019 20:32:17 5.1 C 42 %
3293 19-12-2019 20:42:17 6 C 41 %
3294 19-12-2019 20:52:17 6 C 38 %
3295 19-12-2019 21:02:17 5.8 C 38 %
3296 19-12-2019 21:12:18 5.8 C 39 %
3297 19-12-2019 21:22:17 5.7 C 39 %
3298 19-12-2019 21:32:17 5.8 C 40 %
3299 19-12-2019 21:42:17 6 C 40 %
3300 19-12-2019 21:52:17 5.7 C 40 %
Sensor: Nr:Datum:Temp:Feuchte:
Aussen-T/F 3301 19-12-2019 22:02:17 5.6 C 40 %
3302 19-12-2019 22:12:17 5.8 C 41 %
3303 19-12-2019 22:22:18 6.2 C 41 %
3304 19-12-2019 22:32:18 5.9 C 40 %
3305 19-12-2019 22:42:18 5.1 C 38 %
3306 19-12-2019 22:52:17 5 C 41 %
3307 19-12-2019 23:02:17 5.4 C 43 %
3308 19-12-2019 23:12:17 5.5 C 42 %
3309 19-12-2019 23:22:17 5.5 C 42 %
3310 19-12-2019 23:32:17 5.4 C 42 %
3311 19-12-2019 23:42:17 5.4 C 42 %
3312 19-12-2019 23:52:17 5.1 C 41 %
3313 20-12-2019 00:02:17 4.8 C 42 %
3314 20-12-2019 00:12:17 4.3 C 41 %
3315 20-12-2019 00:22:17 4 C 41 %
3316 20-12-2019 00:32:17 3.9 C 43 %
3317 20-12-2019 00:42:17 3.7 C 42 %
3318 20-12-2019 00:52:17 3.4 C 43 %
3319 20-12-2019 01:02:17 3.1 C 42 %
3320 20-12-2019 01:12:17 3 C 43 %
3321 20-12-2019 01:22:17 3.3 C 44 %
3322 20-12-2019 01:32:17 3.1 C 43 %
3323 20-12-2019 01:42:17 3.1 C 43 %
3324 20-12-2019 01:52:17 2.8 C 44 %
3325 20-12-2019 02:02:17 2.8 C 44 %
Sensor: Nr:Datum:Temp:Feuchte:
Aussen-T/F 3326 20-12-2019 02:12:17 2.6 C 44 %
3327 20-12-2019 02:22:17 2.5 C 44 %
3328 20-12-2019 02:32:18 3.2 C 44 %
3329 20-12-2019 02:42:18 3.4 C 44 %
3330 20-12-2019 02:52:17 3.8 C 44 %
3331 20-12-2019 03:02:17 4.7 C 42 %
3332 20-12-2019 03:12:17 4.2 C 41 %
3333 20-12-2019 03:22:17 4.6 C 41 %
3334 20-12-2019 03:32:17 4.4 C 40 %
3335 20-12-2019 03:42:17 4.4 C 40 %
3336 20-12-2019 03:52:17 4.6 C 41 %
3337 20-12-2019 04:02:17 4.4 C 40 %
3338 20-12-2019 04:12:17 4.2 C 40 %
3339 20-12-2019 04:22:17 4 C 41 %
3340 20-12-2019 04:32:18 4.8 C 42 %
3341 20-12-2019 04:42:18 4.5 C 41 %
3342 20-12-2019 04:52:17 4.7 C 40 %
3343 20-12-2019 05:02:17 4.7 C 40 %
3344 20-12-2019 05:12:17 5.3 C 38 %
3345 20-12-2019 05:22:17 5.2 C 36 %
3346 20-12-2019 05:32:17 5.3 C 36 %
3347 20-12-2019 05:42:17 5.4 C 35 %
3348 20-12-2019 05:52:18 5.5 C 35 %
3349 20-12-2019 06:02:18 5.2 C 35 %
3350 20-12-2019 06:12:18 5.3 C 35 %
Sensor: Nr:Datum:Temp:Feuchte:
Aussen-T/F 3351 20-12-2019 06:22:17 5.6 C 35 %
3352 20-12-2019 06:32:17 6 C 32 %
3353 20-12-2019 06:42:17 6 C 31 %
3354 20-12-2019 06:52:17 5.7 C 32 %
3355 20-12-2019 07:02:17 5.8 C 31 %
3356 20-12-2019 07:12:17 5.9 C 31 %
3357 20-12-2019 07:22:17 6.1 C 31 %
3358 20-12-2019 07:32:17 5.9 C 33 %
3359 20-12-2019 07:42:17 6.4 C 31 %
3360 20-12-2019 07:52:17 6.8 C 30 %
3361 20-12-2019 08:02:17 7.1 C 27 %
3362 20-12-2019 08:12:17 6.4 C 31 %
3363 20-12-2019 08:22:17 6.4 C 32 %
3364 20-12-2019 08:32:18 6.5 C 32 %
3365 20-12-2019 08:42:18 6.3 C 32 %
3366 20-12-2019 08:52:17 6.3 C 33 %
3367 20-12-2019 09:02:17 6.5 C 33 %
3368 20-12-2019 09:12:17 6.7 C 31 %
3369 20-12-2019 09:22:17 6.5 C 33 %
3370 20-12-2019 09:32:17 6.4 C 35 %
3371 20-12-2019 09:42:17 6.5 C 35 %
3372 20-12-2019 09:52:17 6.5 C 34 %
3373 20-12-2019 10:02:17 6.2 C 31 %
3374 20-12-2019 10:12:17 6 C 33 %
3375 20-12-2019 10:22:17 5.7 C 35 %
Sensor: Nr:Datum:Temp:Feuchte:
Aussen-T/F 3376 20-12-2019 10:32:17 5.8 C 40 %
3377 20-12-2019 10:42:17 5.9 C 42 %
3378 20-12-2019 10:52:17 6 C 42 %
3379 20-12-2019 11:02:17 6.1 C 42 %
3380 20-12-2019 11:12:17 6 C 42 %
3381 20-12-2019 11:22:17 6.3 C 42 %
3382 20-12-2019 11:32:17 6.5 C 42 %
3383 20-12-2019 11:42:17 6.7 C 41 %
3384 20-12-2019 11:52:17 6.8 C 40 %
3385 20-12-2019 12:02:18 7 C 39 %
3386 20-12-2019 12:12:18 7.3 C 39 %
3387 20-12-2019 12:22:18 7.5 C 39 %
3388 20-12-2019 12:32:17 7.7 C 39 %
3389 20-12-2019 12:42:18 8 C 39 %
3390 20-12-2019 12:52:17 8.1 C 38 %
3391 20-12-2019 13:02:18 8.1 C 39 %
3392 20-12-2019 13:12:18 8.2 C 39 %
3393 20-12-2019 13:22:17 8.3 C 37 %
3394 20-12-2019 13:32:17 8.4 C 36 %
3395 20-12-2019 13:42:17 8.6 C 37 %
3396 20-12-2019 13:52:17 8.5 C 36 %
3397 20-12-2019 14:02:17 8.6 C 36 %
3398 20-12-2019 14:12:17 8.6 C 35 %
3399 20-12-2019 14:22:17 8.7 C 36 %
3400 20-12-2019 14:32:17 8.7 C 36 %
Sensor: Nr:Datum:Temp:Feuchte:
Aussen-T/F 3401 20-12-2019 14:42:17 8.5 C 35 %
3402 20-12-2019 14:52:18 8.3 C 36 %
3403 20-12-2019 15:02:17 8.2 C 37 %
3404 20-12-2019 15:12:17 8.3 C 38 %
3405 20-12-2019 15:22:17 8.3 C 39 %
3406 20-12-2019 15:32:17 8.2 C 40 %
3407 20-12-2019 15:42:17 8.3 C 41 %
3408 20-12-2019 15:52:17 8.2 C 40 %
3409 20-12-2019 16:02:17 8.2 C 40 %
3410 20-12-2019 16:12:18 8.3 C 40 %
3411 20-12-2019 16:22:17 8.3 C 41 %
3412 20-12-2019 16:32:17 8.4 C 41 %
3413 20-12-2019 16:42:17 8.4 C 41 %
3414 20-12-2019 16:52:18 8.6 C 41 %
3415 20-12-2019 17:02:17 9 C 41 %
3416 20-12-2019 17:12:18 9 C 40 %
3417 20-12-2019 17:22:17 9.1 C 36 %
3418 20-12-2019 17:32:17 8.7 C 38 %
3419 20-12-2019 17:42:17 8.8 C 37 %
3420 20-12-2019 17:52:18 8.7 C 38 %
3421 20-12-2019 18:02:17 8.9 C 37 %
3422 20-12-2019 18:12:17 8.9 C 36 %
3423 20-12-2019 18:22:17 8.9 C 37 %
3424 20-12-2019 18:32:17 8.9 C 37 %
3425 20-12-2019 18:42:17 9.7 C 33 %
Sensor: Nr:Datum:Temp:Feuchte:
Aussen-T/F 3426 20-12-2019 18:52:18 9.5 C 31 %
3427 20-12-2019 19:02:17 9.8 C 30 %
3428 20-12-2019 19:12:17 10.1 C 28 %
3429 20-12-2019 19:22:17 9.9 C 29 %
3430 20-12-2019 19:32:17 9.8 C 29 %
3431 20-12-2019 19:42:17 10 C 27 %
3432 20-12-2019 19:52:18 9.7 C 29 %
3433 20-12-2019 20:02:18 9.6 C 28 %
3434 20-12-2019 20:12:18 9.5 C 28 %
3435 20-12-2019 20:22:17 9.5 C 27 %
3436 20-12-2019 20:32:18 9 C 28 %
3437 20-12-2019 20:42:18 9 C 27 %
3438 20-12-2019 20:52:17 8.9 C 28 %
3439 20-12-2019 21:02:18 8.5 C 28 %
3440 20-12-2019 21:12:18 8.6 C 28 %
3441 20-12-2019 21:22:17 8.9 C 27 %
3442 20-12-2019 21:32:17 8.7 C 27 %
3443 20-12-2019 21:42:17 8.3 C 28 %
3444 20-12-2019 21:52:17 8.3 C 28 %
3445 20-12-2019 22:02:17 8.3 C 28 %
3446 20-12-2019 22:12:17 8.1 C 28 %
3447 20-12-2019 22:22:17 8.7 C 27 %
3448 20-12-2019 22:32:17 8.9 C 26 %
3449 20-12-2019 22:42:17 8.7 C 27 %
3450 20-12-2019 22:52:17 8.7 C 27 %
Sensor: Nr:Datum:Temp:Feuchte:
Aussen-T/F 3451 20-12-2019 23:02:17 8.5 C 27 %
3452 20-12-2019 23:12:17 8.4 C 27 %
3453 20-12-2019 23:22:17 8.2 C 28 %
3454 20-12-2019 23:32:17 8 C 28 %
3455 20-12-2019 23:42:17 8.3 C 27 %
3456 20-12-2019 23:52:18 8.1 C 27 %
3457 21-12-2019 00:02:17 7.9 C 28 %
3458 21-12-2019 00:12:17 7.7 C 28 %
3459 21-12-2019 00:22:17 7.5 C 30 %
3460 21-12-2019 00:32:17 7.5 C 30 %
3461 21-12-2019 00:42:17 7.2 C 30 %
3462 21-12-2019 00:52:18 7 C 30 %
3463 21-12-2019 01:02:17 6.9 C 32 %
3464 21-12-2019 01:12:17 7.3 C 31 %
3465 21-12-2019 01:22:17 7.4 C 31 %
3466 21-12-2019 01:32:17 7.3 C 32 %
3467 21-12-2019 01:42:17 7.5 C 31 %
3468 21-12-2019 01:52:17 7.5 C 32 %
3469 21-12-2019 02:02:17 7.9 C 30 %
3470 21-12-2019 02:12:17 8 C 29 %
3471 21-12-2019 02:22:17 8.2 C 28 %
3472 21-12-2019 02:32:18 7.8 C 30 %
3473 21-12-2019 02:42:18 7.8 C 30 %
3474 21-12-2019 02:52:17 7.8 C 30 %
3475 21-12-2019 03:02:17 7.5 C 30 %
Sensor: Nr:Datum:Temp:Feuchte:
Aussen-T/F 3476 21-12-2019 03:12:17 7.5 C 31 %
3477 21-12-2019 03:22:17 7.4 C 31 %
3478 21-12-2019 03:32:18 7.3 C 31 %
3479 21-12-2019 03:42:18 7.1 C 31 %
3480 21-12-2019 03:52:17 7.1 C 32 %
3481 21-12-2019 04:02:17 6.9 C 33 %
3482 21-12-2019 04:12:17 6.7 C 36 %
3483 21-12-2019 04:22:17 6.4 C 37 %
3484 21-12-2019 04:32:18 6 C 38 %
3485 21-12-2019 04:42:18 5.9 C 38 %
3486 21-12-2019 04:52:17 5.7 C 40 %
3487 21-12-2019 05:02:17 6 C 40 %
3488 21-12-2019 05:12:17 5.6 C 39 %
3489 21-12-2019 05:22:17 5.4 C 38 %
3490 21-12-2019 05:32:18 5.4 C 38 %
3491 21-12-2019 05:42:18 5.1 C 38 %
3492 21-12-2019 05:52:17 5.3 C 40 %
3493 21-12-2019 06:02:17 4.9 C 41 %
3494 21-12-2019 06:12:17 4.8 C 41 %
3495 21-12-2019 06:22:18 4.3 C 40 %
3496 21-12-2019 06:32:17 4.3 C 42 %
3497 21-12-2019 06:42:17 5 C 40 %
3498 21-12-2019 06:52:18 3.8 C 41 %
3499 21-12-2019 07:02:17 3.8 C 43 %
3500 21-12-2019 07:12:18 3.5 C 42 %
Sensor: Nr:Datum:Temp:Feuchte:
Aussen-T/F 3501 21-12-2019 07:22:17 3.4 C 43 %
3502 21-12-2019 07:32:17 3.3 C 43 %
3503 21-12-2019 07:42:17 3 C 42 %
3504 21-12-2019 07:52:17 3 C 43 %
3505 21-12-2019 08:02:17 3.1 C 44 %
3506 21-12-2019 08:12:17 3.6 C 44 %
3507 21-12-2019 08:22:17 3.7 C 44 %
3508 21-12-2019 08:32:17 3.9 C 43 %
3509 21-12-2019 08:42:17 4.6 C 43 %
3510 21-12-2019 08:52:17 4.9 C 42 %
3511 21-12-2019 09:02:17 5 C 39 %
3512 21-12-2019 09:12:17 4.5 C 38 %
3513 21-12-2019 09:22:17 4.4 C 38 %
3514 21-12-2019 09:32:17 4.4 C 39 %
3515 21-12-2019 09:42:17 4.6 C 40 %
3516 21-12-2019 09:52:17 4.6 C 38 %
3517 21-12-2019 10:02:17 4.8 C 38 %
3518 21-12-2019 10:12:17 4.8 C 37 %
3519 21-12-2019 10:22:17 5.1 C 37 %
3520 21-12-2019 10:32:17 5.2 C 36 %
3521 21-12-2019 10:42:17 5.1 C 37 %
3522 21-12-2019 10:52:17 5.2 C 37 %
3523 21-12-2019 11:02:17 5.3 C 37 %
3524 21-12-2019 11:12:17 5.3 C 37 %
3525 21-12-2019 11:22:17 5.4 C 37 %
Sensor: Nr:Datum:Temp:Feuchte:
Aussen-T/F 3526 21-12-2019 11:32:17 5.8 C 37 %
3527 21-12-2019 11:42:17 5.9 C 37 %
3528 21-12-2019 11:52:17 5.8 C 37 %
3529 21-12-2019 12:02:17 5.8 C 36 %
3530 21-12-2019 12:12:17 6.2 C 36 %
3531 21-12-2019 12:22:17 6.2 C 35 %
3532 21-12-2019 12:32:17 7 C 32 %
3533 21-12-2019 12:42:17 6.8 C 33 %
3534 21-12-2019 12:52:17 8 C 30 %
3535 21-12-2019 13:02:17 7.8 C 30 %
3536 21-12-2019 13:12:17 7.1 C 30 %
3537 21-12-2019 13:22:17 6.9 C 31 %
3538 21-12-2019 13:32:17 7.2 C 30 %
3539 21-12-2019 13:42:17 8 C 28 %
3540 21-12-2019 13:52:18 7.7 C 28 %
3541 21-12-2019 14:02:17 8.3 C 27 %
3542 21-12-2019 14:12:17 8.8 C 26 %
3543 21-12-2019 14:22:17 8.2 C 27 %
3544 21-12-2019 14:32:18 8.2 C 27 %
3545 21-12-2019 14:42:18 8.5 C 27 %
3546 21-12-2019 14:52:17 8.8 C 26 %
3547 21-12-2019 15:02:18 9 C 25 %
3548 21-12-2019 15:12:18 8.7 C 26 %
3549 21-12-2019 15:22:18 8.8 C 25 %
3550 21-12-2019 15:32:17 8.7 C 25 %
Sensor: Nr:Datum:Temp:Feuchte:
Aussen-T/F 3551 21-12-2019 15:42:17 8 C 26 %
3552 21-12-2019 15:52:17 7.5 C 28 %
3553 21-12-2019 16:02:17 7.7 C 27 %
3554 21-12-2019 16:12:17 7.6 C 29 %
3555 21-12-2019 16:22:17 7.4 C 30 %
3556 21-12-2019 16:32:17 7.4 C 30 %
3557 21-12-2019 16:42:17 7.7 C 28 %
3558 21-12-2019 16:52:17 7.9 C 27 %
3559 21-12-2019 17:02:17 7.6 C 29 %
3560 21-12-2019 17:12:17 7.3 C 30 %
3561 21-12-2019 17:22:17 7.2 C 30 %
3562 21-12-2019 17:32:17 7.3 C 30 %
3563 21-12-2019 17:42:17 7.3 C 29 %
3564 21-12-2019 17:52:17 7.2 C 29 %
3565 21-12-2019 18:02:17 7.6 C 27 %
3566 21-12-2019 18:12:17 7.6 C 27 %
3567 21-12-2019 18:22:17 7.6 C 26 %
3568 21-12-2019 18:32:18 7.9 C 25 %
3569 21-12-2019 18:42:18 7.7 C 26 %
3570 21-12-2019 18:52:17 7.5 C 26 %
3571 21-12-2019 19:02:17 7.3 C 27 %
3572 21-12-2019 19:12:17 7 C 27 %
3573 21-12-2019 19:22:17 7 C 27 %
3574 21-12-2019 19:32:17 6.9 C 30 %
3575 21-12-2019 19:42:17 6.8 C 30 %
Sensor: Nr:Datum:Temp:Feuchte:
Aussen-T/F 3576 21-12-2019 19:52:17 7 C 27 %
3577 21-12-2019 20:02:17 7.1 C 26 %
3578 21-12-2019 20:12:17 7.1 C 26 %
3579 21-12-2019 20:22:17 7.1 C 26 %
3580 21-12-2019 20:32:17 6.9 C 28 %
3581 21-12-2019 20:42:17 7 C 27 %
3582 21-12-2019 20:52:17 6.8 C 27 %
3583 21-12-2019 21:02:18 6.4 C 29 %
3584 21-12-2019 21:12:18 6.1 C 30 %
3585 21-12-2019 21:22:17 6.1 C 31 %
3586 21-12-2019 21:32:17 6.3 C 31 %
3587 21-12-2019 21:42:17 5.9 C 31 %
3588 21-12-2019 21:52:18 5.1 C 34 %
3589 21-12-2019 22:02:18 4.9 C 36 %
3590 21-12-2019 22:12:18 5.2 C 34 %
3591 21-12-2019 22:22:17 5.7 C 30 %
3592 21-12-2019 22:32:17 6.1 C 27 %
3593 21-12-2019 22:42:17 6.1 C 27 %
3594 21-12-2019 22:52:17 6 C 27 %
3595 21-12-2019 23:02:17 5.8 C 27 %
3596 21-12-2019 23:12:17 5.8 C 27 %
3597 21-12-2019 23:22:17 6.3 C 26 %
3598 21-12-2019 23:32:18 6.5 C 25 %
3599 21-12-2019 23:42:18 6.7 C 25 %
3600 21-12-2019 23:52:17 6.3 C 26 %
Sensor: Nr:Datum:Temp:Feuchte:
Aussen-T/F 3601 22-12-2019 00:02:17 6.8 C 26 %
3602 22-12-2019 00:12:17 6.9 C 26 %
3603 22-12-2019 00:22:17 6.8 C 26 %
3604 22-12-2019 00:32:17 6.8 C 26 %
3605 22-12-2019 00:42:17 6.7 C 27 %
3606 22-12-2019 00:52:17 6.3 C 30 %
3607 22-12-2019 01:02:17 6.2 C 30 %
3608 22-12-2019 01:12:18 5.8 C 35 %
3609 22-12-2019 01:22:17 5.8 C 36 %
3610 22-12-2019 01:32:17 5.8 C 39 %
3611 22-12-2019 01:42:17 5.7 C 40 %
3612 22-12-2019 01:52:17 5.7 C 40 %
3613 22-12-2019 02:02:17 5.7 C 38 %
3614 22-12-2019 02:12:18 5.7 C 38 %
3615 22-12-2019 02:22:17 5.8 C 38 %
3616 22-12-2019 02:32:17 5.9 C 37 %
3617 22-12-2019 02:42:17 5.9 C 36 %
3618 22-12-2019 02:52:18 6 C 35 %
3619 22-12-2019 03:02:17 6.1 C 35 %
3620 22-12-2019 03:12:17 6.2 C 34 %
3621 22-12-2019 03:22:17 6.2 C 35 %
3622 22-12-2019 03:32:17 6.2 C 34 %
3623 22-12-2019 03:42:17 6.1 C 35 %
3624 22-12-2019 03:52:17 6.2 C 35 %
3625 22-12-2019 04:02:18 6.2 C 35 %
Sensor: Nr:Datum:Temp:Feuchte:
Aussen-T/F 3626 22-12-2019 04:12:18 6 C 35 %
3627 22-12-2019 04:22:17 6.2 C 34 %
3628 22-12-2019 04:32:17 6.2 C 34 %
3629 22-12-2019 04:42:17 6.3 C 33 %
3630 22-12-2019 04:52:17 6.3 C 33 %
3631 22-12-2019 05:02:17 6.2 C 34 %
3632 22-12-2019 05:12:17 5.8 C 34 %
3633 22-12-2019 05:22:17 5.4 C 36 %
3634 22-12-2019 05:32:17 5.7 C 40 %
3635 22-12-2019 05:42:17 6.1 C 38 %
3636 22-12-2019 05:52:17 5.5 C 35 %
3637 22-12-2019 06:02:17 5.1 C 39 %
3638 22-12-2019 06:12:17 5.3 C 41 %
3639 22-12-2019 06:22:17 4.9 C 41 %
3640 22-12-2019 06:32:17 5.4 C 42 %
3641 22-12-2019 06:42:17 5.9 C 41 %
3642 22-12-2019 06:52:17 6.2 C 39 %
3643 22-12-2019 07:02:17 6.2 C 38 %
3644 22-12-2019 07:12:17 6 C 38 %
3645 22-12-2019 07:22:17 5.7 C 38 %
3646 22-12-2019 07:32:17 5.4 C 39 %
3647 22-12-2019 07:42:17 6 C 42 %
3648 22-12-2019 07:52:17 6.1 C 41 %
3649 22-12-2019 08:02:18 6.3 C 41 %
3650 22-12-2019 08:12:18 6.2 C 40 %
Sensor: Nr:Datum:Temp:Feuchte:
Aussen-T/F 3651 22-12-2019 08:22:17 5.9 C 40 %
3652 22-12-2019 08:32:17 5.8 C 41 %
3653 22-12-2019 08:42:17 6.3 C 41 %
3654 22-12-2019 08:52:18 6.2 C 39 %
3655 22-12-2019 09:02:17 6 C 39 %
3656 22-12-2019 09:12:17 6.2 C 40 %
3657 22-12-2019 09:22:17 6.4 C 39 %
3658 22-12-2019 09:32:17 6.3 C 39 %
3659 22-12-2019 09:42:17 6.8 C 39 %
3660 22-12-2019 09:52:17 7 C 37 %
3661 22-12-2019 10:02:17 7.1 C 37 %
3662 22-12-2019 10:12:17 7.9 C 33 %
3663 22-12-2019 10:22:17 8.1 C 33 %
3664 22-12-2019 10:32:17 8.8 C 30 %
3665 22-12-2019 10:42:17 9 C 29 %
3666 22-12-2019 10:52:17 9.3 C 28 %
3667 22-12-2019 11:02:17 9.5 C 28 %
3668 22-12-2019 11:12:17 10 C 26 %
3669 22-12-2019 11:22:17 10 C 26 %
3670 22-12-2019 11:32:18 10.4 C 26 %
3671 22-12-2019 11:42:18 10.2 C 26 %
3672 22-12-2019 11:52:17 10.4 C 26 %
3673 22-12-2019 12:02:17 10.5 C 25 %
3674 22-12-2019 12:12:17 10.5 C 26 %
3675 22-12-2019 12:22:17 10.5 C 25 %
Sensor: Nr:Datum:Temp:Feuchte:
Aussen-T/F 3676 22-12-2019 12:32:17 10.7 C 26 %
3677 22-12-2019 12:42:17 10.8 C 26 %
3678 22-12-2019 12:52:17 11.2 C 25 %
3679 22-12-2019 13:02:17 11.1 C 25 %
3680 22-12-2019 13:12:17 10.8 C 25 %
3681 22-12-2019 13:22:17 10.7 C 25 %
3682 22-12-2019 13:32:17 10.7 C 25 %
3683 22-12-2019 13:42:17 10.7 C 25 %
3684 22-12-2019 13:52:17 10.8 C 25 %
3685 22-12-2019 14:02:17 11.1 C 23 %
3686 22-12-2019 14:12:17 11 C 23 %
3687 22-12-2019 14:22:17 10.8 C 23 %
3688 22-12-2019 14:32:17 10.9 C 23 %
3689 22-12-2019 14:42:17 10.8 C 23 %
3690 22-12-2019 14:52:17 10.7 C 25 %
3691 22-12-2019 15:02:17 10.6 C 25 %
3692 22-12-2019 15:12:17 10.3 C 25 %
3693 22-12-2019 15:22:17 10.1 C 25 %
3694 22-12-2019 15:32:17 9.9 C 26 %
3695 22-12-2019 15:42:17 9.7 C 26 %
3696 22-12-2019 15:52:18 9.6 C 25 %
3697 22-12-2019 16:02:18 9.6 C 25 %
3698 22-12-2019 16:12:18 9.3 C 25 %
3699 22-12-2019 16:22:17 8.9 C 26 %
3700 22-12-2019 16:32:17 8.3 C 26 %
Sensor: Nr:Datum:Temp:Feuchte:
Aussen-T/F 3701 22-12-2019 16:42:17 8.4 C 27 %
3702 22-12-2019 16:52:17 7.9 C 28 %
3703 22-12-2019 17:02:18 7.5 C 30 %
3704 22-12-2019 17:12:18 7.5 C 30 %
3705 22-12-2019 17:22:17 7.4 C 30 %
3706 22-12-2019 17:32:17 7.5 C 29 %
3707 22-12-2019 17:42:17 7.5 C 28 %
3708 22-12-2019 17:52:17 7.2 C 28 %
3709 22-12-2019 18:02:17 7.2 C 30 %
3710 22-12-2019 18:12:17 7.1 C 30 %
3711 22-12-2019 18:22:17 7.3 C 30 %
3712 22-12-2019 18:32:17 7.4 C 29 %
3713 22-12-2019 18:42:17 7.5 C 29 %
3714 22-12-2019 18:52:17 7.2 C 29 %
3715 22-12-2019 19:02:17 7.1 C 30 %
3716 22-12-2019 19:12:17 7 C 31 %
3717 22-12-2019 19:22:17 7 C 32 %
3718 22-12-2019 19:32:17 7.1 C 31 %
3719 22-12-2019 19:42:17 7.5 C 30 %
3720 22-12-2019 19:52:17 8 C 27 %
3721 22-12-2019 20:02:17 7.9 C 27 %
3722 22-12-2019 20:12:17 8.1 C 26 %
3723 22-12-2019 20:22:17 8.3 C 25 %
3724 22-12-2019 20:32:17 8.2 C 25 %
3725 22-12-2019 20:42:17 8 C 25 %
Sensor: Nr:Datum:Temp:Feuchte:
Aussen-T/F 3726 22-12-2019 20:52:17 8 C 25 %
3727 22-12-2019 21:02:17 8.1 C 25 %
3728 22-12-2019 21:12:17 8.1 C 25 %
3729 22-12-2019 21:22:17 7.8 C 25 %
3730 22-12-2019 21:32:17 8.1 C 25 %
3731 22-12-2019 21:42:17 7.8 C 26 %
3732 22-12-2019 21:52:17 7.7 C 26 %
3733 22-12-2019 22:02:17 7.9 C 26 %
3734 22-12-2019 22:12:17 7.6 C 26 %
3735 22-12-2019 22:22:17 7.5 C 26 %
3736 22-12-2019 22:32:17 7.1 C 27 %
3737 22-12-2019 22:42:17 6.9 C 28 %
3738 22-12-2019 22:52:17 6.7 C 29 %
3739 22-12-2019 23:02:17 6.2 C 31 %
3740 22-12-2019 23:12:17 6.4 C 31 %
3741 22-12-2019 23:22:17 6.6 C 31 %
3742 22-12-2019 23:32:17 6.6 C 31 %
3743 22-12-2019 23:42:17 6.7 C 31 %
3744 22-12-2019 23:52:17 6.7 C 31 %
3745 23-12-2019 00:02:17 6.6 C 32 %
3746 23-12-2019 00:12:17 6.5 C 31 %
3747 23-12-2019 00:22:17 6.4 C 32 %
3748 23-12-2019 00:32:17 6.6 C 31 %
3749 23-12-2019 00:42:17 7 C 30 %
3750 23-12-2019 00:52:17 6.9 C 30 %
Sensor: Nr:Datum:Temp:Feuchte:
Aussen-T/F 3751 23-12-2019 01:02:17 6.8 C 30 %
3752 23-12-2019 01:12:17 7.1 C 28 %
3753 23-12-2019 01:22:17 7 C 28 %
3754 23-12-2019 01:32:17 7.1 C 28 %
3755 23-12-2019 01:42:17 7.4 C 27 %
3756 23-12-2019 01:52:17 7.4 C 27 %
3757 23-12-2019 02:02:17 6.8 C 29 %
3758 23-12-2019 02:12:17 6.5 C 30 %
3759 23-12-2019 02:22:17 6.8 C 29 %
3760 23-12-2019 02:32:17 6.9 C 29 %
3761 23-12-2019 02:42:17 7.3 C 28 %
3762 23-12-2019 02:52:17 6.9 C 30 %
3763 23-12-2019 03:02:17 6.8 C 31 %
3764 23-12-2019 03:12:17 6.4 C 31 %
3765 23-12-2019 03:22:17 6.5 C 30 %
3766 23-12-2019 03:32:17 7 C 28 %
3767 23-12-2019 03:42:17 6.6 C 29 %
3768 23-12-2019 03:52:17 7 C 28 %
3769 23-12-2019 04:02:17 6.9 C 30 %
3770 23-12-2019 04:12:17 7.1 C 28 %
3771 23-12-2019 04:22:17 6.8 C 30 %
3772 23-12-2019 04:32:17 6.9 C 31 %
3773 23-12-2019 04:42:17 6.5 C 31 %
3774 23-12-2019 04:52:17 6.1 C 31 %
3775 23-12-2019 05:02:17 6.4 C 32 %
Sensor: Nr:Datum:Temp:Feuchte:
Aussen-T/F 3776 23-12-2019 05:12:17 7 C 30 %
3777 23-12-2019 05:22:17 7.1 C 30 %
3778 23-12-2019 05:32:17 7 C 30 %
3779 23-12-2019 05:42:17 6.8 C 31 %
3780 23-12-2019 05:52:17 6.3 C 32 %
3781 23-12-2019 06:02:18 6.3 C 34 %
3782 23-12-2019 06:12:18 6.6 C 33 %
3783 23-12-2019 06:22:17 6.9 C 31 %
3784 23-12-2019 06:32:18 7.1 C 30 %
3785 23-12-2019 06:42:18 6.9 C 31 %
3786 23-12-2019 06:52:17 6.9 C 31 %
3787 23-12-2019 07:02:17 6.8 C 32 %
3788 23-12-2019 07:12:17 6.8 C 34 %
3789 23-12-2019 07:22:17 6.8 C 32 %
3790 23-12-2019 07:32:17 7.1 C 30 %
3791 23-12-2019 07:42:17 7.4 C 29 %
3792 23-12-2019 07:52:17 7.1 C 30 %
3793 23-12-2019 08:02:17 7.3 C 30 %
3794 23-12-2019 08:12:17 7.4 C 28 %
3795 23-12-2019 08:22:17 7.5 C 28 %
3796 23-12-2019 08:32:18 7.5 C 28 %
3797 23-12-2019 08:42:18 7.6 C 28 %
3798 23-12-2019 08:52:17 7.6 C 27 %
3799 23-12-2019 09:02:17 7.6 C 27 %
3800 23-12-2019 09:12:18 7.7 C 27 %
Sensor: Nr:Datum:Temp:Feuchte:
Aussen-T/F 3801 23-12-2019 09:22:17 7.8 C 27 %
3802 23-12-2019 09:32:18 7.8 C 27 %
3803 23-12-2019 09:42:18 7.8 C 27 %
3804 23-12-2019 09:52:18 7.9 C 26 %
3805 23-12-2019 10:02:17 7.3 C 30 %
3806 23-12-2019 10:12:18 7 C 33 %
3807 23-12-2019 10:22:17 7 C 35 %
3808 23-12-2019 10:32:18 6.8 C 35 %
3809 23-12-2019 10:42:18 6.9 C 34 %
3810 23-12-2019 10:52:17 7.4 C 30 %
3811 23-12-2019 11:02:18 7.8 C 28 %
3812 23-12-2019 11:12:18 8.1 C 28 %
3813 23-12-2019 11:22:17 8.4 C 26 %
3814 23-12-2019 11:32:18 8.3 C 26 %
3815 23-12-2019 11:42:18 8.6 C 26 %
3816 23-12-2019 11:52:17 8.9 C 25 %
3817 23-12-2019 12:02:18 9.1 C 25 %
3818 23-12-2019 12:12:18 9.1 C 25 %
3819 23-12-2019 12:22:17 8.9 C 25 %
3820 23-12-2019 12:32:17 9 C 25 %
3821 23-12-2019 12:42:17 9.3 C 25 %
3822 23-12-2019 12:52:17 8.4 C 26 %
3823 23-12-2019 13:02:17 8.4 C 26 %
3824 23-12-2019 13:12:17 8.3 C 27 %
3825 23-12-2019 13:22:17 8.2 C 27 %
Sensor: Nr:Datum:Temp:Feuchte:
Aussen-T/F 3826 23-12-2019 13:32:18 8.1 C 29 %
3827 23-12-2019 13:42:18 8.2 C 28 %
3828 23-12-2019 13:52:17 8.5 C 28 %
3829 23-12-2019 14:02:17 8.9 C 27 %
3830 23-12-2019 14:12:17 8.9 C 26 %
3831 23-12-2019 14:22:18 9 C 25 %
3832 23-12-2019 14:32:17 9.1 C 25 %
3833 23-12-2019 14:42:17 9.1 C 25 %
3834 23-12-2019 14:52:17 8.9 C 25 %
3835 23-12-2019 15:02:18 8.7 C 26 %
3836 23-12-2019 15:12:18 9.1 C 25 %
3837 23-12-2019 15:22:17 9.1 C 25 %
3838 23-12-2019 15:32:17 9 C 25 %
3839 23-12-2019 15:42:17 9 C 25 %
3840 23-12-2019 15:52:17 8.8 C 25 %
3841 23-12-2019 16:02:17 8.8 C 25 %
3842 23-12-2019 16:12:17 8.6 C 26 %
3843 23-12-2019 16:22:18 8.5 C 25 %
3844 23-12-2019 16:32:17 8.4 C 25 %
3845 23-12-2019 16:42:17 8.5 C 25 %
3846 23-12-2019 16:52:18 8.5 C 25 %
3847 23-12-2019 17:02:17 8.2 C 25 %
3848 23-12-2019 17:12:17 8.4 C 25 %
3849 23-12-2019 17:22:17 8 C 25 %
3850 23-12-2019 17:32:17 7.9 C 25 %
Sensor: Nr:Datum:Temp:Feuchte:
Aussen-T/F 3851 23-12-2019 17:42:18 7.8 C 25 %
3852 23-12-2019 17:52:17 7.8 C 25 %
3853 23-12-2019 18:02:17 7.9 C 25 %
3854 23-12-2019 18:12:17 8 C 23 %
3855 23-12-2019 18:22:17 7.9 C 23 %
3856 23-12-2019 18:32:17 7.9 C 25 %
3857 23-12-2019 18:42:17 7.6 C 25 %
3858 23-12-2019 18:52:17 7.5 C 26 %
3859 23-12-2019 19:02:17 7.3 C 26 %
3860 23-12-2019 19:12:17 6.7 C 29 %
3861 23-12-2019 19:22:17 6.4 C 30 %
3862 23-12-2019 19:32:17 7.4 C 26 %
3863 23-12-2019 19:42:17 7 C 26 %
3864 23-12-2019 19:52:17 7 C 27 %
3865 23-12-2019 20:02:17 7 C 28 %
3866 23-12-2019 20:12:17 6.5 C 30 %
3867 23-12-2019 20:22:17 6.8 C 30 %
3868 23-12-2019 20:32:18 6.8 C 30 %
3869 23-12-2019 20:42:18 6.9 C 30 %
3870 23-12-2019 20:52:17 6.9 C 30 %
3871 23-12-2019 21:02:18 6.7 C 30 %
3872 23-12-2019 21:12:18 7.1 C 28 %
3873 23-12-2019 21:22:17 7 C 28 %
3874 23-12-2019 21:32:17 6.7 C 31 %
3875 23-12-2019 21:42:17 6.5 C 31 %
Sensor: Nr:Datum:Temp:Feuchte:
Aussen-T/F 3876 23-12-2019 21:52:17 6.5 C 32 %
3877 23-12-2019 22:02:18 6.4 C 31 %
3878 23-12-2019 22:12:18 5.8 C 32 %
3879 23-12-2019 22:22:17 5.4 C 37 %
3880 23-12-2019 22:32:17 5.7 C 33 %
3881 23-12-2019 22:42:17 5.3 C 34 %
3882 23-12-2019 22:52:17 5.5 C 34 %
3883 23-12-2019 23:02:17 5.4 C 33 %
3884 23-12-2019 23:12:17 5.5 C 32 %
3885 23-12-2019 23:22:18 5.4 C 30 %
3886 23-12-2019 23:32:17 5.8 C 30 %
3887 23-12-2019 23:42:17 4.8 C 33 %
3888 23-12-2019 23:52:17 4.8 C 36 %
3889 24-12-2019 00:02:17 5.6 C 35 %
3890 24-12-2019 00:12:17 5.8 C 32 %
3891 24-12-2019 00:22:17 5.7 C 32 %
3892 24-12-2019 00:32:18 6 C 32 %
3893 24-12-2019 00:42:18 6.1 C 31 %
3894 24-12-2019 00:52:17 6.3 C 31 %
3895 24-12-2019 01:02:17 5.6 C 32 %
3896 24-12-2019 01:12:17 5.9 C 32 %
3897 24-12-2019 01:22:17 6.1 C 30 %
3898 24-12-2019 01:32:17 6.3 C 30 %
3899 24-12-2019 01:42:17 5.9 C 31 %
3900 24-12-2019 01:52:17 5.7 C 33 %
Sensor: Nr:Datum:Temp:Feuchte:
Aussen-T/F 3901 24-12-2019 02:02:17 5.7 C 35 %
3902 24-12-2019 02:12:17 5.8 C 35 %
3903 24-12-2019 02:22:17 5.6 C 35 %
3904 24-12-2019 02:32:18 5.5 C 36 %
3905 24-12-2019 02:42:18 5.5 C 36 %
3906 24-12-2019 02:52:17 6.6 C 30 %
3907 24-12-2019 03:02:18 6.7 C 29 %
3908 24-12-2019 03:12:18 6.3 C 30 %
3909 24-12-2019 03:22:17 5.7 C 31 %
3910 24-12-2019 03:32:17 5.5 C 31 %
3911 24-12-2019 03:42:17 5.7 C 31 %
3912 24-12-2019 03:52:17 5 C 32 %
3913 24-12-2019 04:02:17 5 C 38 %
3914 24-12-2019 04:12:17 5.2 C 37 %
3915 24-12-2019 04:22:17 5.2 C 36 %
3916 24-12-2019 04:32:17 4.8 C 37 %
3917 24-12-2019 04:42:17 4.8 C 39 %
3918 24-12-2019 04:52:17 5.3 C 38 %
3919 24-12-2019 05:02:18 5.4 C 35 %
3920 24-12-2019 05:12:18 5.2 C 35 %
3921 24-12-2019 05:22:17 4.7 C 37 %
3922 24-12-2019 05:32:18 5 C 37 %
3923 24-12-2019 05:42:18 4.6 C 36 %
3924 24-12-2019 05:52:17 4.9 C 37 %
3925 24-12-2019 06:02:18 4.3 C 36 %
Sensor: Nr:Datum:Temp:Feuchte:
Aussen-T/F 3926 24-12-2019 06:12:18 4.6 C 39 %
3927 24-12-2019 06:22:17 4.6 C 38 %
3928 24-12-2019 06:32:17 4.6 C 39 %
3929 24-12-2019 06:42:17 4.5 C 38 %
3930 24-12-2019 06:52:17 4.5 C 39 %
3931 24-12-2019 07:02:17 4.8 C 37 %
3932 24-12-2019 07:12:17 5 C 36 %
3933 24-12-2019 07:22:17 5.4 C 34 %
3934 24-12-2019 07:32:17 5.6 C 33 %
3935 24-12-2019 07:42:17 5.6 C 32 %
3936 24-12-2019 07:52:17 5.8 C 32 %
3937 24-12-2019 08:02:17 5.8 C 31 %
3938 24-12-2019 08:12:17 6 C 30 %
3939 24-12-2019 08:22:17 6.2 C 29 %
3940 24-12-2019 08:32:17 6.2 C 30 %
3941 24-12-2019 08:42:17 6.3 C 30 %
3942 24-12-2019 08:52:18 6.4 C 30 %
3943 24-12-2019 09:02:17 6.5 C 29 %
3944 24-12-2019 09:12:17 6.8 C 29 %
3945 24-12-2019 09:22:17 6.8 C 28 %
3946 24-12-2019 09:32:17 6.8 C 29 %
3947 24-12-2019 09:42:17 6.8 C 28 %
3948 24-12-2019 09:52:17 6.5 C 30 %
3949 24-12-2019 10:02:17 6.4 C 30 %
3950 24-12-2019 10:12:17 6.2 C 31 %
Sensor: Nr:Datum:Temp:Feuchte:
Aussen-T/F 3951 24-12-2019 10:22:17 6.2 C 33 %
3952 24-12-2019 10:32:17 6.3 C 37 %
3953 24-12-2019 10:42:17 6.8 C 37 %
3954 24-12-2019 10:52:17 6.7 C 33 %
3955 24-12-2019 11:02:17 6.8 C 35 %
3956 24-12-2019 11:12:17 6.9 C 34 %
3957 24-12-2019 11:22:17 7.5 C 32 %
3958 24-12-2019 11:32:17 8 C 30 %
3959 24-12-2019 11:42:17 8.2 C 29 %
3960 24-12-2019 11:52:18 8 C 29 %
3961 24-12-2019 12:02:17 7.8 C 30 %
3962 24-12-2019 12:12:17 7.6 C 30 %
3963 24-12-2019 12:22:17 8 C 28 %
3964 24-12-2019 12:32:17 8.2 C 27 %
3965 24-12-2019 12:42:17 8.4 C 27 %
3966 24-12-2019 12:52:18 8.9 C 27 %
3967 24-12-2019 13:02:17 9.2 C 25 %
3968 24-12-2019 13:12:17 9.3 C 25 %
3969 24-12-2019 13:22:17 9.3 C 25 %
3970 24-12-2019 13:32:17 9.2 C 26 %
3971 24-12-2019 13:42:17 9.3 C 26 %
3972 24-12-2019 13:52:17 9.3 C 26 %
3973 24-12-2019 14:02:18 9.4 C 25 %
3974 24-12-2019 14:12:18 9.5 C 25 %
3975 24-12-2019 14:22:17 9.6 C 25 %
Sensor: Nr:Datum:Temp:Feuchte:
Aussen-T/F 3976 24-12-2019 14:32:18 9.7 C 25 %
3977 24-12-2019 14:42:18 9.3 C 26 %
3978 24-12-2019 14:52:17 9.2 C 27 %
3979 24-12-2019 15:02:18 9.1 C 27 %
3980 24-12-2019 15:12:18 9.5 C 26 %
3981 24-12-2019 15:22:17 9.8 C 25 %
3982 24-12-2019 15:32:17 10 C 22 %
3983 24-12-2019 15:42:17 10.1 C 20 %
3984 24-12-2019 15:52:17 10.5 C 20 %
3985 24-12-2019 16:02:17 10.1 C 20 %
3986 24-12-2019 16:12:17 10 C 20 %
3987 24-12-2019 16:22:17 10.2 C 20 %
3988 24-12-2019 16:32:17 9.8 C 20 %
3989 24-12-2019 16:42:17 9.7 C 21 %
3990 24-12-2019 16:52:17 10.1 C 20 %
3991 24-12-2019 17:02:17 9.8 C 20 %
3992 24-12-2019 17:12:17 9.4 C 20 %
3993 24-12-2019 17:22:18 9.6 C 20 %
3994 24-12-2019 17:32:17 8.8 C 20 %
3995 24-12-2019 17:42:17 9.1 C 20 %
3996 24-12-2019 17:52:17 9.3 C 20 %
3997 24-12-2019 18:02:17 9 C 20 %
3998 24-12-2019 18:12:17 8.5 C 26 %
3999 24-12-2019 18:22:17 8.9 C 25 %
4000 24-12-2019 18:32:17 8.2 C 28 %
Sensor: Nr:Datum:Temp:Feuchte:
Aussen-T/F 4001 24-12-2019 18:42:17 7.8 C 31 %
4002 24-12-2019 18:52:17 7.5 C 35 %
4003 24-12-2019 19:02:17 7.6 C 31 %
4004 24-12-2019 19:12:17 7.3 C 31 %
4005 24-12-2019 19:22:17 6.7 C 35 %
4006 24-12-2019 19:32:17 6.5 C 40 %
4007 24-12-2019 19:42:17 6.5 C 36 %
4008 24-12-2019 19:52:17 6.2 C 36 %
4009 24-12-2019 20:02:17 6.7 C 35 %
4010 24-12-2019 20:12:17 7.3 C 30 %
4011 24-12-2019 20:22:17 7.2 C 32 %
4012 24-12-2019 20:32:18 7.1 C 30 %
4013 24-12-2019 20:42:18 7.3 C 31 %
4014 24-12-2019 20:52:17 7.3 C 30 %
4015 24-12-2019 21:02:17 7.1 C 31 %
4016 24-12-2019 21:12:17 7.7 C 30 %
4017 24-12-2019 21:22:17 7.4 C 30 %
4018 24-12-2019 21:32:17 7.6 C 30 %
4019 24-12-2019 21:42:17 7.9 C 29 %
4020 24-12-2019 21:52:17 8.1 C 28 %
4021 24-12-2019 22:02:17 8.6 C 26 %
4022 24-12-2019 22:12:17 8.5 C 26 %
4023 24-12-2019 22:22:17 8.3 C 26 %
4024 24-12-2019 22:32:17 8.4 C 26 %
4025 24-12-2019 22:42:17 8.2 C 27 %
Sensor: Nr:Datum:Temp:Feuchte:
Aussen-T/F 4026 24-12-2019 22:52:17 8 C 28 %
4027 24-12-2019 23:02:17 8.4 C 27 %
4028 24-12-2019 23:12:17 8.4 C 27 %
4029 24-12-2019 23:22:17 8.4 C 27 %
4030 24-12-2019 23:32:17 8.5 C 27 %
4031 24-12-2019 23:42:17 8.5 C 27 %
4032 24-12-2019 23:52:17 8.4 C 27 %
4033 25-12-2019 00:02:17 8.4 C 27 %
4034 25-12-2019 00:12:17 8.4 C 27 %
4035 25-12-2019 00:22:17 8.4 C 28 %
4036 25-12-2019 00:32:17 8.3 C 28 %
4037 25-12-2019 00:42:18 8.2 C 29 %
4038 25-12-2019 00:52:17 8.2 C 29 %
4039 25-12-2019 01:02:17 7.8 C 32 %
4040 25-12-2019 01:12:17 7.7 C 33 %
4041 25-12-2019 01:22:17 7.5 C 35 %
4042 25-12-2019 01:32:18 7.3 C 35 %
4043 25-12-2019 01:42:18 7.5 C 35 %
4044 25-12-2019 01:52:17 7.6 C 33 %
4045 25-12-2019 02:02:17 7.7 C 32 %
4046 25-12-2019 02:12:17 8 C 31 %
4047 25-12-2019 02:22:17 7.9 C 31 %
4048 25-12-2019 02:32:18 7.9 C 31 %
4049 25-12-2019 02:42:18 7.9 C 31 %
4050 25-12-2019 02:52:17 7.9 C 31 %
Sensor: Nr:Datum:Temp:Feuchte:
Aussen-T/F 4051 25-12-2019 03:02:17 7.8 C 31 %
4052 25-12-2019 03:12:17 7.9 C 32 %
4053 25-12-2019 03:22:17 8.1 C 31 %
4054 25-12-2019 03:32:17 8.3 C 30 %
4055 25-12-2019 03:42:17 8.2 C 30 %
4056 25-12-2019 03:52:18 8.2 C 30 %
4057 25-12-2019 04:02:17 7.9 C 34 %
4058 25-12-2019 04:12:17 8 C 34 %
4059 25-12-2019 04:22:18 7.9 C 35 %
4060 25-12-2019 04:32:17 7.9 C 36 %
4061 25-12-2019 04:42:17 7.9 C 38 %
4062 25-12-2019 04:52:17 7.9 C 36 %
4063 25-12-2019 05:02:17 7.9 C 37 %
4064 25-12-2019 05:12:17 7.8 C 37 %
4065 25-12-2019 05:22:18 7.6 C 38 %
4066 25-12-2019 05:32:17 8 C 36 %
4067 25-12-2019 05:42:17 7.9 C 35 %
4068 25-12-2019 05:52:17 7.5 C 35 %
4069 25-12-2019 06:02:18 7.5 C 35 %
4070 25-12-2019 06:12:18 7.2 C 36 %
4071 25-12-2019 06:22:17 7.2 C 37 %
4072 25-12-2019 06:32:18 7.3 C 37 %
4073 25-12-2019 06:42:18 7.3 C 36 %
4074 25-12-2019 06:52:17 7.1 C 39 %
4075 25-12-2019 07:02:18 7.3 C 33 %
Sensor: Nr:Datum:Temp:Feuchte:
Aussen-T/F 4076 25-12-2019 07:12:18 7.1 C 32 %
4077 25-12-2019 07:22:17 6.9 C 35 %
4078 25-12-2019 07:32:18 6.8 C 38 %
4079 25-12-2019 07:42:18 6.9 C 38 %
4080 25-12-2019 07:52:17 7 C 35 %
4081 25-12-2019 08:02:18 6.8 C 32 %
4082 25-12-2019 08:12:18 6.4 C 32 %
4083 25-12-2019 08:22:17 6.2 C 33 %
4084 25-12-2019 08:32:17 6.2 C 32 %
4085 25-12-2019 08:42:17 6.5 C 32 %
4086 25-12-2019 08:52:17 6.7 C 31 %
4087 25-12-2019 09:02:17 6.9 C 30 %
4088 25-12-2019 09:12:17 6.9 C 30 %
4089 25-12-2019 09:22:18 6.8 C 30 %
4090 25-12-2019 09:32:17 7.3 C 28 %
4091 25-12-2019 09:42:17 7.3 C 27 %
4092 25-12-2019 09:52:17 7.3 C 27 %
4093 25-12-2019 10:02:17 7.1 C 29 %
4094 25-12-2019 10:12:17 7.3 C 27 %
4095 25-12-2019 10:22:18 7.6 C 26 %
4096 25-12-2019 10:32:17 7.7 C 26 %
4097 25-12-2019 10:42:17 7.8 C 25 %
4098 25-12-2019 10:52:17 7.5 C 26 %
4099 25-12-2019 11:02:17 7.5 C 26 %
4100 25-12-2019 11:12:17 7.5 C 26 %
Sensor: Nr:Datum:Temp:Feuchte:
Aussen-T/F 4101 25-12-2019 11:22:17 7.7 C 26 %
4102 25-12-2019 11:32:17 7.4 C 26 %
4103 25-12-2019 11:42:17 7.4 C 27 %
4104 25-12-2019 11:52:18 7.1 C 28 %
4105 25-12-2019 12:02:17 7.1 C 29 %
4106 25-12-2019 12:12:17 7.6 C 27 %
4107 25-12-2019 12:22:17 7.6 C 27 %
4108 25-12-2019 12:32:17 7.7 C 27 %
4109 25-12-2019 12:42:17 7.8 C 27 %
4110 25-12-2019 12:52:18 7.6 C 27 %
4111 25-12-2019 13:02:17 7.1 C 29 %
4112 25-12-2019 13:12:17 7 C 31 %
4113 25-12-2019 13:22:18 6.9 C 31 %
4114 25-12-2019 13:32:17 7.1 C 30 %
4115 25-12-2019 13:42:17 7 C 30 %
4116 25-12-2019 13:52:17 6.9 C 30 %
4117 25-12-2019 14:02:17 7.1 C 30 %
4118 25-12-2019 14:12:17 7.4 C 29 %
4119 25-12-2019 14:22:18 7.6 C 28 %
4120 25-12-2019 14:32:17 7.7 C 29 %
4121 25-12-2019 14:42:17 7.6 C 29 %
4122 25-12-2019 14:52:17 7.1 C 31 %
4123 25-12-2019 15:02:17 7.1 C 32 %
4124 25-12-2019 15:12:17 7.1 C 30 %
4125 25-12-2019 15:22:18 7.1 C 31 %
Sensor: Nr:Datum:Temp:Feuchte:
Aussen-T/F 4126 25-12-2019 15:32:17 7.4 C 30 %
4127 25-12-2019 15:42:17 7.3 C 31 %
4128 25-12-2019 15:52:17 7.2 C 30 %
4129 25-12-2019 16:02:17 7.2 C 30 %
4130 25-12-2019 16:12:17 6.9 C 31 %
4131 25-12-2019 16:22:17 6.8 C 32 %
4132 25-12-2019 16:32:17 6.7 C 35 %
4133 25-12-2019 16:42:17 6.9 C 32 %
4134 25-12-2019 16:52:17 6.9 C 31 %
4135 25-12-2019 17:02:17 6.8 C 30 %
4136 25-12-2019 17:12:17 6.7 C 30 %
4137 25-12-2019 17:22:18 6.6 C 31 %
4138 25-12-2019 17:32:17 6.2 C 31 %
4139 25-12-2019 17:42:17 5.7 C 35 %
4140 25-12-2019 17:52:18 5.9 C 35 %
4141 25-12-2019 18:02:17 6 C 33 %
4142 25-12-2019 18:12:17 6.1 C 32 %
4143 25-12-2019 18:22:17 6.2 C 33 %
4144 25-12-2019 18:32:17 6.2 C 33 %
4145 25-12-2019 18:42:17 6.2 C 32 %
4146 25-12-2019 18:52:17 6.2 C 32 %
4147 25-12-2019 19:02:17 6 C 33 %
4148 25-12-2019 19:12:17 5.9 C 33 %
4149 25-12-2019 19:22:17 6.1 C 32 %
4150 25-12-2019 19:32:18 6.1 C 32 %
Sensor: Nr:Datum:Temp:Feuchte:
Aussen-T/F 4151 25-12-2019 19:42:18 6 C 33 %
4152 25-12-2019 19:52:17 5.9 C 33 %
4153 25-12-2019 20:02:17 5.8 C 35 %
4154 25-12-2019 20:12:17 5.9 C 35 %
4155 25-12-2019 20:22:18 5.9 C 34 %
4156 25-12-2019 20:32:17 5.8 C 34 %
4157 25-12-2019 20:42:17 5.6 C 37 %
4158 25-12-2019 20:52:17 5.5 C 38 %
4159 25-12-2019 21:02:18 5.5 C 38 %
4160 25-12-2019 21:12:18 5.4 C 40 %
4161 25-12-2019 21:22:17 5.3 C 41 %
4162 25-12-2019 21:32:17 5.3 C 43 %
4163 25-12-2019 21:42:17 5.3 C 42 %
4164 25-12-2019 21:52:17 5.2 C 42 %
4165 25-12-2019 22:02:18 5.2 C 42 %
4166 25-12-2019 22:12:18 5.1 C 43 %
4167 25-12-2019 22:22:17 5.2 C 42 %
4168 25-12-2019 22:32:18 5.1 C 41 %
4169 25-12-2019 22:42:18 5.1 C 42 %
4170 25-12-2019 22:52:17 5.2 C 42 %
4171 25-12-2019 23:02:18 5.2 C 42 %
4172 25-12-2019 23:12:18 5.2 C 42 %
4173 25-12-2019 23:22:17 5.2 C 42 %
4174 25-12-2019 23:32:17 5.1 C 42 %
4175 25-12-2019 23:42:17 4.7 C 42 %
Sensor: Nr:Datum:Temp:Feuchte:
Aussen-T/F 4176 25-12-2019 23:52:17 4.5 C 42 %
Sensor: Nr:Datum:Temp:Feuchte:
G-T/H 1 27-11-2019 00:00:17 10.5 C 76 %
2 27-11-2019 00:10:17 10.5 C 76 %
3 27-11-2019 00:20:17 10.6 C 76 %
4 27-11-2019 00:30:17 10.5 C 76 %
5 27-11-2019 00:40:17 10.6 C 76 %
6 27-11-2019 00:50:17 10.6 C 76 %
7 27-11-2019 01:00:17 10.6 C 76 %
8 27-11-2019 01:10:17 10.6 C 76 %
9 27-11-2019 01:20:17 10.6 C 76 %
10 27-11-2019 01:30:17 10.6 C 76 %
11 27-11-2019 01:40:17 10.6 C 76 %
12 27-11-2019 01:50:17 10.6 C 76 %
13 27-11-2019 02:00:17 10.6 C 76 %
14 27-11-2019 02:10:17 10.6 C 76 %
15 27-11-2019 02:20:17 10.6 C 76 %
16 27-11-2019 02:30:17 10.6 C 76 %
17 27-11-2019 02:40:17 10.6 C 76 %
18 27-11-2019 02:50:17 10.6 C 76 %
19 27-11-2019 03:00:17 10.6 C 76 %
20 27-11-2019 03:10:17 10.6 C 76 %
21 27-11-2019 03:20:17 10.6 C 76 %
22 27-11-2019 03:30:17 10.6 C 76 %
23 27-11-2019 03:40:17 10.6 C 76 %
24 27-11-2019 03:50:17 10.6 C 76 %
25 27-11-2019 04:00:17 10.6 C 76 %
Sensor: Nr:Datum:Temp:Feuchte:
G-T/H 26 27-11-2019 04:10:17 10.6 C 76 %
27 27-11-2019 04:20:17 10.6 C 76 %
28 27-11-2019 04:30:17 10.6 C 76 %
29 27-11-2019 04:40:17 10.6 C 76 %
30 27-11-2019 04:50:17 10.6 C 76 %
31 27-11-2019 05:00:17 10.6 C 76 %
32 27-11-2019 05:10:17 10.7 C 76 %
33 27-11-2019 05:20:17 10.7 C 76 %
34 27-11-2019 05:30:17 10.6 C 76 %
35 27-11-2019 05:40:17 10.6 C 76 %
36 27-11-2019 05:50:17 10.6 C 76 %
37 27-11-2019 06:00:18 10.7 C 76 %
38 27-11-2019 06:10:18 10.7 C 76 %
39 27-11-2019 06:20:17 10.7 C 76 %
40 27-11-2019 06:30:17 10.6 C 76 %
41 27-11-2019 06:40:17 10.6 C 76 %
42 27-11-2019 06:50:17 10.7 C 76 %
43 27-11-2019 07:00:17 10.7 C 76 %
44 27-11-2019 07:10:17 10.6 C 76 %
45 27-11-2019 07:20:17 10.6 C 76 %
46 27-11-2019 07:30:17 10.7 C 76 %
47 27-11-2019 07:40:17 10.7 C 76 %
48 27-11-2019 07:50:17 10.7 C 76 %
49 27-11-2019 08:00:17 10.7 C 76 %
50 27-11-2019 08:10:17 10.7 C 76 %
Sensor: Nr:Datum:Temp:Feuchte:
G-T/H 51 27-11-2019 08:20:17 10.7 C 76 %
52 27-11-2019 08:30:17 10.7 C 76 %
53 27-11-2019 08:40:17 10.7 C 76 %
54 27-11-2019 08:50:17 10.6 C 76 %
55 27-11-2019 09:00:17 10.7 C 76 %
56 27-11-2019 09:10:17 10.7 C 76 %
57 27-11-2019 09:20:17 10.7 C 76 %
58 27-11-2019 09:30:17 10.7 C 76 %
59 27-11-2019 09:40:17 10.7 C 76 %
60 27-11-2019 09:50:17 10.7 C 76 %
61 27-11-2019 10:00:17 10.7 C 76 %
62 27-11-2019 10:10:17 10.7 C 76 %
63 27-11-2019 10:20:17 10.7 C 76 %
64 27-11-2019 10:30:17 10.7 C 76 %
65 27-11-2019 10:40:17 10.7 C 76 %
66 27-11-2019 10:50:17 10.7 C 76 %
67 27-11-2019 11:00:17 10.7 C 76 %
68 27-11-2019 11:10:17 10.8 C 76 %
69 27-11-2019 11:20:17 10.8 C 76 %
70 27-11-2019 11:30:17 10.7 C 76 %
71 27-11-2019 11:40:17 10.7 C 76 %
72 27-11-2019 11:50:17 10.8 C 76 %
73 27-11-2019 12:00:17 10.8 C 76 %
74 27-11-2019 12:10:17 10.8 C 76 %
75 27-11-2019 12:20:18 10.8 C 76 %
Sensor: Nr:Datum:Temp:Feuchte:
G-T/H 76 27-11-2019 12:30:17 10.8 C 76 %
77 27-11-2019 12:40:17 10.8 C 76 %
78 27-11-2019 12:50:17 10.8 C 76 %
79 27-11-2019 13:00:17 10.8 C 76 %
80 27-11-2019 13:10:17 10.8 C 76 %
81 27-11-2019 13:20:17 10.9 C 76 %
82 27-11-2019 13:30:17 10.9 C 76 %
83 27-11-2019 13:40:17 10.8 C 76 %
84 27-11-2019 13:50:17 10.9 C 76 %
85 27-11-2019 14:00:17 10.9 C 76 %
86 27-11-2019 14:10:17 10.9 C 76 %
87 27-11-2019 14:20:17 11 C 75 %
88 27-11-2019 14:30:17 11 C 75 %
89 27-11-2019 14:40:17 11 C 75 %
90 27-11-2019 14:50:17 11 C 75 %
91 27-11-2019 15:00:17 11 C 75 %
92 27-11-2019 15:10:17 11 C 75 %
93 27-11-2019 15:20:17 11 C 75 %
94 27-11-2019 15:30:17 11 C 75 %
95 27-11-2019 15:40:17 11 C 75 %
96 27-11-2019 15:50:17 11 C 75 %
97 27-11-2019 16:00:17 11.1 C 75 %
98 27-11-2019 16:10:17 11.1 C 76 %
99 27-11-2019 16:20:17 11.1 C 76 %
100 27-11-2019 16:30:17 11.1 C 76 %
Sensor: Nr:Datum:Temp:Feuchte:
G-T/H 101 27-11-2019 16:40:17 11.1 C 76 %
102 27-11-2019 16:50:18 11.1 C 76 %
103 27-11-2019 17:00:17 11.1 C 76 %
104 27-11-2019 17:10:17 11.1 C 76 %
105 27-11-2019 17:20:17 11.1 C 76 %
106 27-11-2019 17:30:17 11.1 C 76 %
107 27-11-2019 17:40:17 11.1 C 76 %
108 27-11-2019 17:50:17 11.1 C 76 %
109 27-11-2019 18:00:17 11.1 C 76 %
110 27-11-2019 18:10:17 11.1 C 76 %
111 27-11-2019 18:20:17 11.2 C 76 %
112 27-11-2019 18:30:17 11.1 C 76 %
113 27-11-2019 18:40:17 11.2 C 76 %
114 27-11-2019 18:50:17 11.2 C 76 %
115 27-11-2019 19:00:17 11.2 C 76 %
116 27-11-2019 19:10:17 11.2 C 76 %
117 27-11-2019 19:20:17 11.2 C 76 %
118 27-11-2019 19:30:17 11.2 C 76 %
119 27-11-2019 19:40:17 11.2 C 76 %
120 27-11-2019 19:50:17 11.2 C 76 %
121 27-11-2019 20:00:17 11.2 C 76 %
122 27-11-2019 20:10:17 11.2 C 76 %
123 27-11-2019 20:20:17 11.2 C 76 %
124 27-11-2019 20:30:17 11.3 C 76 %
125 27-11-2019 20:40:17 11.3 C 76 %
Sensor: Nr:Datum:Temp:Feuchte:
G-T/H 126 27-11-2019 20:50:17 11.2 C 76 %
127 27-11-2019 21:00:17 11.2 C 76 %
128 27-11-2019 21:10:17 11.3 C 76 %
129 27-11-2019 21:20:17 11.3 C 76 %
130 27-11-2019 21:30:17 11.3 C 76 %
131 27-11-2019 21:40:17 11.3 C 76 %
132 27-11-2019 21:50:17 11.3 C 76 %
133 27-11-2019 22:00:17 11.3 C 76 %
134 27-11-2019 22:10:17 11.3 C 76 %
135 27-11-2019 22:20:17 11.3 C 76 %
136 27-11-2019 22:30:17 11.3 C 76 %
137 27-11-2019 22:40:17 11.3 C 76 %
138 27-11-2019 22:50:17 11.3 C 76 %
139 27-11-2019 23:00:17 11.3 C 76 %
140 27-11-2019 23:10:17 11.3 C 76 %
141 27-11-2019 23:20:17 11.3 C 76 %
142 27-11-2019 23:30:17 11.4 C 76 %
143 27-11-2019 23:40:18 11.4 C 76 %
144 27-11-2019 23:50:17 11.4 C 76 %
145 28-11-2019 00:00:18 11.4 C 76 %
146 28-11-2019 00:10:18 11.4 C 76 %
147 28-11-2019 00:20:17 11.4 C 76 %
148 28-11-2019 00:30:17 11.4 C 76 %
149 28-11-2019 00:40:17 11.4 C 76 %
150 28-11-2019 00:50:17 11.4 C 76 %
Sensor: Nr:Datum:Temp:Feuchte:
G-T/H 151 28-11-2019 01:00:17 11.4 C 76 %
152 28-11-2019 01:10:17 11.4 C 76 %
153 28-11-2019 01:20:17 11.4 C 76 %
154 28-11-2019 01:30:17 11.4 C 76 %
155 28-11-2019 01:40:17 11.4 C 76 %
156 28-11-2019 01:50:17 11.4 C 76 %
157 28-11-2019 02:00:18 11.4 C 76 %
158 28-11-2019 02:10:18 11.4 C 76 %
159 28-11-2019 02:20:17 11.4 C 76 %
160 28-11-2019 02:30:17 11.4 C 76 %
161 28-11-2019 02:40:17 11.4 C 76 %
162 28-11-2019 02:50:17 11.4 C 76 %
163 28-11-2019 03:00:17 11.4 C 76 %
164 28-11-2019 03:10:17 11.4 C 76 %
165 28-11-2019 03:20:18 11.4 C 76 %
166 28-11-2019 03:30:18 11.4 C 76 %
167 28-11-2019 03:40:18 11.4 C 76 %
168 28-11-2019 03:50:18 11.4 C 75 %
169 28-11-2019 04:00:18 11.4 C 75 %
170 28-11-2019 04:10:18 11.4 C 75 %
171 28-11-2019 04:20:17 11.4 C 75 %
172 28-11-2019 04:30:17 11.4 C 75 %
173 28-11-2019 04:40:17 11.4 C 75 %
174 28-11-2019 04:50:17 11.4 C 75 %
175 28-11-2019 05:00:17 11.4 C 75 %
Sensor: Nr:Datum:Temp:Feuchte:
G-T/H 176 28-11-2019 05:10:17 11.4 C 75 %
177 28-11-2019 05:20:17 11.4 C 75 %
178 28-11-2019 05:30:17 11.4 C 75 %
179 28-11-2019 05:40:17 11.4 C 75 %
180 28-11-2019 05:50:17 11.4 C 75 %
181 28-11-2019 06:00:17 11.4 C 75 %
182 28-11-2019 06:10:17 11.4 C 75 %
183 28-11-2019 06:20:17 11.4 C 75 %
184 28-11-2019 06:30:17 11.4 C 75 %
185 28-11-2019 06:40:17 11.4 C 75 %
186 28-11-2019 06:50:17 11.4 C 75 %
187 28-11-2019 07:00:17 11.4 C 75 %
188 28-11-2019 07:10:17 11.4 C 75 %
189 28-11-2019 07:20:17 11.4 C 75 %
190 28-11-2019 07:30:17 11.4 C 75 %
191 28-11-2019 07:40:17 11.4 C 75 %
192 28-11-2019 07:50:17 11.4 C 75 %
193 28-11-2019 08:00:17 11.4 C 75 %
194 28-11-2019 08:10:17 11.4 C 75 %
195 28-11-2019 08:20:17 11.4 C 75 %
196 28-11-2019 08:30:17 11.4 C 75 %
197 28-11-2019 08:40:17 11.4 C 75 %
198 28-11-2019 08:50:17 11.4 C 75 %
199 28-11-2019 09:00:17 11.4 C 75 %
200 28-11-2019 09:10:17 11.4 C 75 %
Sensor: Nr:Datum:Temp:Feuchte:
G-T/H 201 28-11-2019 09:20:17 11.4 C 75 %
202 28-11-2019 09:30:17 11.4 C 75 %
203 28-11-2019 09:40:17 11.4 C 75 %
204 28-11-2019 09:50:17 11.4 C 75 %
205 28-11-2019 10:00:17 11.4 C 75 %
206 28-11-2019 10:10:17 11.4 C 75 %
207 28-11-2019 10:20:17 11.4 C 75 %
208 28-11-2019 10:30:17 11.4 C 75 %
209 28-11-2019 10:40:17 11.4 C 75 %
210 28-11-2019 10:50:17 11.4 C 75 %
211 28-11-2019 11:00:17 11.4 C 75 %
212 28-11-2019 11:10:17 11.4 C 75 %
213 28-11-2019 11:20:17 11.4 C 75 %
214 28-11-2019 11:30:17 11.4 C 75 %
215 28-11-2019 11:40:17 11.5 C 75 %
216 28-11-2019 11:50:17 11.4 C 75 %
217 28-11-2019 12:00:17 11.5 C 75 %
218 28-11-2019 12:10:17 11.5 C 75 %
219 28-11-2019 12:20:17 11.4 C 75 %
220 28-11-2019 12:30:17 11.4 C 75 %
221 28-11-2019 12:40:17 11.5 C 75 %
222 28-11-2019 12:50:17 11.4 C 75 %
223 28-11-2019 13:00:17 11.5 C 75 %
224 28-11-2019 13:10:17 11.5 C 75 %
225 28-11-2019 13:20:17 11.5 C 75 %
Sensor: Nr:Datum:Temp:Feuchte:
G-T/H 226 28-11-2019 13:30:17 11.5 C 75 %
227 28-11-2019 13:40:17 11.5 C 75 %
228 28-11-2019 13:50:17 11.5 C 75 %
229 28-11-2019 14:00:17 11.5 C 75 %
230 28-11-2019 14:10:17 11.5 C 75 %
231 28-11-2019 14:20:17 11.5 C 75 %
232 28-11-2019 14:30:17 11.6 C 75 %
233 28-11-2019 14:40:17 11.6 C 75 %
234 28-11-2019 14:50:17 11.5 C 75 %
235 28-11-2019 15:00:17 11.6 C 75 %
236 28-11-2019 15:10:17 11.5 C 75 %
237 28-11-2019 15:20:17 11.6 C 75 %
238 28-11-2019 15:30:17 11.6 C 76 %
239 28-11-2019 15:40:17 11.6 C 75 %
240 28-11-2019 15:50:17 11.6 C 76 %
241 28-11-2019 16:00:17 11.6 C 76 %
242 28-11-2019 16:10:17 11.6 C 76 %
243 28-11-2019 16:20:17 11.6 C 76 %
244 28-11-2019 16:30:17 11.6 C 76 %
245 28-11-2019 16:40:17 11.6 C 76 %
246 28-11-2019 16:50:17 11.6 C 76 %
247 28-11-2019 17:00:17 11.7 C 76 %
248 28-11-2019 17:10:17 11.6 C 76 %
249 28-11-2019 17:20:17 11.7 C 76 %
250 28-11-2019 17:30:17 11.7 C 76 %
Sensor: Nr:Datum:Temp:Feuchte:
G-T/H 251 28-11-2019 17:40:17 11.7 C 76 %
252 28-11-2019 17:50:17 11.7 C 76 %
253 28-11-2019 18:00:17 11.7 C 76 %
254 28-11-2019 18:10:17 11.7 C 76 %
255 28-11-2019 18:20:17 11.7 C 76 %
256 28-11-2019 18:30:17 11.7 C 76 %
257 28-11-2019 18:40:17 11.7 C 76 %
258 28-11-2019 18:50:17 11.7 C 76 %
259 28-11-2019 19:00:17 11.7 C 76 %
260 28-11-2019 19:10:17 11.7 C 76 %
261 28-11-2019 19:20:17 11.7 C 76 %
262 28-11-2019 19:30:17 11.7 C 76 %
263 28-11-2019 19:40:17 11.7 C 76 %
264 28-11-2019 19:50:17 11.7 C 76 %
265 28-11-2019 20:00:17 11.7 C 76 %
266 28-11-2019 20:10:17 11.7 C 76 %
267 28-11-2019 20:20:17 11.7 C 76 %
268 28-11-2019 20:30:17 11.7 C 76 %
269 28-11-2019 20:40:17 11.7 C 76 %
270 28-11-2019 20:50:17 11.7 C 76 %
271 28-11-2019 21:00:17 11.7 C 76 %
272 28-11-2019 21:10:17 11.7 C 76 %
273 28-11-2019 21:20:17 11.7 C 76 %
274 28-11-2019 21:30:17 11.7 C 76 %
275 28-11-2019 21:40:17 11.7 C 76 %
Sensor: Nr:Datum:Temp:Feuchte:
G-T/H 276 28-11-2019 21:50:17 11.7 C 76 %
277 28-11-2019 22:00:17 11.7 C 76 %
278 28-11-2019 22:10:17 11.7 C 76 %
279 28-11-2019 22:20:17 11.7 C 76 %
280 28-11-2019 22:30:17 11.7 C 76 %
281 28-11-2019 22:40:17 11.7 C 76 %
282 28-11-2019 22:50:17 11.7 C 76 %
283 28-11-2019 23:00:17 11.7 C 76 %
284 28-11-2019 23:10:17 11.7 C 76 %
285 28-11-2019 23:20:17 11.7 C 76 %
286 28-11-2019 23:30:17 11.7 C 76 %
287 28-11-2019 23:40:17 11.7 C 76 %
288 28-11-2019 23:50:17 11.8 C 76 %
289 29-11-2019 00:00:17 11.7 C 76 %
290 29-11-2019 00:10:17 11.7 C 76 %
291 29-11-2019 00:20:17 11.7 C 76 %
292 29-11-2019 00:30:17 11.7 C 76 %
293 29-11-2019 00:40:17 11.7 C 76 %
294 29-11-2019 00:50:17 11.7 C 76 %
295 29-11-2019 01:00:17 11.7 C 76 %
296 29-11-2019 01:10:17 11.7 C 76 %
297 29-11-2019 01:20:17 11.7 C 76 %
298 29-11-2019 01:30:17 11.7 C 76 %
299 29-11-2019 01:40:17 11.7 C 76 %
300 29-11-2019 01:50:17 11.7 C 76 %
Sensor: Nr:Datum:Temp:Feuchte:
G-T/H 301 29-11-2019 02:00:17 11.7 C 76 %
302 29-11-2019 02:10:17 11.7 C 76 %
303 29-11-2019 02:20:17 11.7 C 76 %
304 29-11-2019 02:30:17 11.7 C 76 %
305 29-11-2019 02:40:17 11.7 C 76 %
306 29-11-2019 02:50:17 11.7 C 76 %
307 29-11-2019 03:00:17 11.7 C 76 %
308 29-11-2019 03:10:17 11.7 C 76 %
309 29-11-2019 03:20:17 11.7 C 76 %
310 29-11-2019 03:30:17 11.7 C 76 %
311 29-11-2019 03:40:17 11.7 C 76 %
312 29-11-2019 03:50:17 11.7 C 76 %
313 29-11-2019 04:00:17 11.7 C 76 %
314 29-11-2019 04:10:17 11.7 C 76 %
315 29-11-2019 04:20:17 11.7 C 76 %
316 29-11-2019 04:30:17 11.7 C 76 %
317 29-11-2019 04:40:17 11.7 C 76 %
318 29-11-2019 04:50:17 11.7 C 76 %
319 29-11-2019 05:00:17 11.7 C 76 %
320 29-11-2019 05:10:17 11.7 C 76 %
321 29-11-2019 05:20:17 11.7 C 76 %
322 29-11-2019 05:30:17 11.7 C 76 %
323 29-11-2019 05:40:18 11.7 C 76 %
324 29-11-2019 05:50:17 11.6 C 76 %
325 29-11-2019 06:00:17 11.6 C 75 %
Sensor: Nr:Datum:Temp:Feuchte:
G-T/H 326 29-11-2019 06:10:17 11.6 C 75 %
327 29-11-2019 06:20:17 11.7 C 75 %
328 29-11-2019 06:30:17 11.6 C 75 %
329 29-11-2019 06:40:17 11.6 C 75 %
330 29-11-2019 06:50:17 11.6 C 75 %
331 29-11-2019 07:00:17 11.6 C 75 %
332 29-11-2019 07:10:17 11.6 C 75 %
333 29-11-2019 07:20:17 11.6 C 75 %
334 29-11-2019 07:30:17 11.6 C 75 %
335 29-11-2019 07:40:17 11.6 C 75 %
336 29-11-2019 07:50:17 11.6 C 75 %
337 29-11-2019 08:00:17 11.6 C 75 %
338 29-11-2019 08:10:17 11.6 C 75 %
339 29-11-2019 08:20:17 11.5 C 75 %
340 29-11-2019 08:30:17 11.6 C 75 %
341 29-11-2019 08:40:17 11.5 C 75 %
342 29-11-2019 08:50:17 11.5 C 75 %
343 29-11-2019 09:00:17 11.5 C 74 %
344 29-11-2019 09:10:17 11.5 C 74 %
345 29-11-2019 09:20:17 11.4 C 74 %
346 29-11-2019 09:30:17 11.5 C 74 %
347 29-11-2019 09:40:17 11.4 C 74 %
348 29-11-2019 09:50:17 11.4 C 74 %
349 29-11-2019 10:00:17 11.4 C 73 %
350 29-11-2019 10:10:17 11.3 C 73 %
Sensor: Nr:Datum:Temp:Feuchte:
G-T/H 351 29-11-2019 10:20:17 11.3 C 73 %
352 29-11-2019 10:30:17 11.4 C 73 %
353 29-11-2019 10:40:17 11.4 C 73 %
354 29-11-2019 10:50:17 11.4 C 73 %
355 29-11-2019 11:00:17 11.4 C 73 %
356 29-11-2019 11:10:17 11.4 C 73 %
357 29-11-2019 11:20:17 11.4 C 73 %
358 29-11-2019 11:30:17 11.4 C 73 %
359 29-11-2019 11:40:17 11.4 C 73 %
360 29-11-2019 11:50:17 11.4 C 73 %
361 29-11-2019 12:00:17 11.4 C 73 %
362 29-11-2019 12:10:17 11.4 C 73 %
363 29-11-2019 12:20:17 11.4 C 73 %
364 29-11-2019 12:30:17 11.4 C 73 %
365 29-11-2019 12:40:17 11.3 C 73 %
366 29-11-2019 12:50:17 11.3 C 73 %
367 29-11-2019 13:00:17 11.3 C 73 %
368 29-11-2019 13:10:17 11.3 C 73 %
369 29-11-2019 13:20:17 11.3 C 73 %
370 29-11-2019 13:30:17 11.3 C 73 %
371 29-11-2019 13:40:17 11.2 C 73 %
372 29-11-2019 13:50:17 11.2 C 73 %
373 29-11-2019 14:00:17 11.2 C 72 %
374 29-11-2019 14:10:17 11.2 C 72 %
375 29-11-2019 14:20:17 11.2 C 72 %
Sensor: Nr:Datum:Temp:Feuchte:
G-T/H 376 29-11-2019 14:30:17 11.2 C 71 %
377 29-11-2019 14:40:17 11.2 C 71 %
378 29-11-2019 14:50:17 11.2 C 71 %
379 29-11-2019 15:00:17 11.1 C 71 %
380 29-11-2019 15:10:17 11.1 C 70 %
381 29-11-2019 15:20:17 11.1 C 70 %
382 29-11-2019 15:30:17 11.1 C 70 %
383 29-11-2019 15:40:17 11.1 C 70 %
384 29-11-2019 15:50:17 11.1 C 69 %
385 29-11-2019 16:00:17 11.1 C 69 %
386 29-11-2019 16:10:17 11.1 C 69 %
387 29-11-2019 16:20:17 11 C 69 %
388 29-11-2019 16:30:17 11 C 69 %
389 29-11-2019 16:40:18 11 C 69 %
390 29-11-2019 16:50:17 11 C 69 %
391 29-11-2019 17:00:18 11 C 69 %
392 29-11-2019 17:10:18 11 C 69 %
393 29-11-2019 17:20:17 10.9 C 69 %
394 29-11-2019 17:30:18 11 C 69 %
395 29-11-2019 17:40:18 10.9 C 69 %
396 29-11-2019 17:50:17 10.9 C 69 %
397 29-11-2019 18:00:17 10.9 C 69 %
398 29-11-2019 18:10:18 10.8 C 69 %
399 29-11-2019 18:20:17 10.8 C 69 %
400 29-11-2019 18:30:17 10.9 C 69 %
Sensor: Nr:Datum:Temp:Feuchte:
G-T/H 401 29-11-2019 18:40:17 10.8 C 69 %
402 29-11-2019 18:50:17 10.8 C 69 %
403 29-11-2019 19:00:17 10.8 C 69 %
404 29-11-2019 19:10:17 10.8 C 69 %
405 29-11-2019 19:20:17 10.7 C 69 %
406 29-11-2019 19:30:17 10.8 C 69 %
407 29-11-2019 19:40:17 10.8 C 69 %
408 29-11-2019 19:50:17 10.8 C 69 %
409 29-11-2019 20:00:17 10.7 C 68 %
410 29-11-2019 20:10:17 10.7 C 68 %
411 29-11-2019 20:20:17 10.7 C 68 %
412 29-11-2019 20:30:17 10.7 C 68 %
413 29-11-2019 20:40:17 10.7 C 68 %
414 29-11-2019 20:50:17 10.7 C 68 %
415 29-11-2019 21:00:17 10.7 C 68 %
416 29-11-2019 21:10:17 10.7 C 68 %
417 29-11-2019 21:20:17 10.7 C 68 %
418 29-11-2019 21:30:17 10.7 C 68 %
419 29-11-2019 21:40:17 10.6 C 68 %
420 29-11-2019 21:50:17 10.6 C 68 %
421 29-11-2019 22:00:17 10.6 C 68 %
422 29-11-2019 22:10:17 10.6 C 68 %
423 29-11-2019 22:20:17 10.5 C 68 %
424 29-11-2019 22:30:17 10.5 C 68 %
425 29-11-2019 22:40:17 10.5 C 68 %
Sensor: Nr:Datum:Temp:Feuchte:
G-T/H 426 29-11-2019 22:50:17 10.5 C 68 %
427 29-11-2019 23:00:17 10.5 C 68 %
428 29-11-2019 23:10:17 10.5 C 68 %
429 29-11-2019 23:20:17 10.5 C 68 %
430 29-11-2019 23:30:17 10.4 C 68 %
431 29-11-2019 23:40:17 10.4 C 68 %
432 29-11-2019 23:50:17 10.4 C 68 %
433 30-11-2019 00:00:17 10.4 C 68 %
434 30-11-2019 00:10:17 10.4 C 67 %
435 30-11-2019 00:20:17 10.4 C 67 %
436 30-11-2019 00:30:17 10.4 C 67 %
437 30-11-2019 00:40:17 10.3 C 67 %
438 30-11-2019 00:50:17 10.3 C 67 %
439 30-11-2019 01:00:17 10.3 C 67 %
440 30-11-2019 01:10:17 10.3 C 67 %
441 30-11-2019 01:20:17 10.3 C 67 %
442 30-11-2019 01:30:17 10.2 C 67 %
443 30-11-2019 01:40:17 10.2 C 67 %
444 30-11-2019 01:50:17 10.2 C 67 %
445 30-11-2019 02:00:17 10.2 C 67 %
446 30-11-2019 02:10:17 10.2 C 67 %
447 30-11-2019 02:20:17 10.2 C 67 %
448 30-11-2019 02:30:17 10.1 C 67 %
449 30-11-2019 02:40:17 10.1 C 67 %
450 30-11-2019 02:50:17 10.1 C 67 %
Sensor: Nr:Datum:Temp:Feuchte:
G-T/H 451 30-11-2019 03:00:17 10.1 C 67 %
452 30-11-2019 03:10:17 10.1 C 67 %
453 30-11-2019 03:20:17 10.1 C 66 %
454 30-11-2019 03:30:17 10.1 C 66 %
455 30-11-2019 03:40:17 10 C 66 %
456 30-11-2019 03:50:17 10 C 66 %
457 30-11-2019 04:00:17 10 C 66 %
458 30-11-2019 04:10:17 10 C 66 %
459 30-11-2019 04:20:17 10 C 67 %
460 30-11-2019 04:30:17 10 C 67 %
461 30-11-2019 04:40:17 10 C 67 %
462 30-11-2019 04:50:17 10 C 67 %
463 30-11-2019 05:00:17 10 C 67 %
464 30-11-2019 05:10:17 10 C 67 %
465 30-11-2019 05:20:17 10 C 68 %
466 30-11-2019 05:30:17 10 C 68 %
467 30-11-2019 05:40:17 9.9 C 69 %
468 30-11-2019 05:50:17 9.9 C 69 %
469 30-11-2019 06:00:17 9.9 C 69 %
470 30-11-2019 06:10:17 9.9 C 69 %
471 30-11-2019 06:20:17 9.9 C 69 %
472 30-11-2019 06:30:17 9.9 C 69 %
473 30-11-2019 06:40:17 9.8 C 69 %
474 30-11-2019 06:50:17 9.8 C 69 %
475 30-11-2019 07:00:17 9.8 C 69 %
Sensor: Nr:Datum:Temp:Feuchte:
G-T/H 476 30-11-2019 07:10:17 9.8 C 69 %
477 30-11-2019 07:20:17 9.8 C 69 %
478 30-11-2019 07:30:17 9.8 C 69 %
479 30-11-2019 07:40:17 9.8 C 69 %
480 30-11-2019 07:50:17 9.7 C 69 %
481 30-11-2019 08:00:17 9.7 C 69 %
482 30-11-2019 08:10:17 9.8 C 69 %
483 30-11-2019 08:20:17 9.7 C 69 %
484 30-11-2019 08:30:17 9.7 C 69 %
485 30-11-2019 08:40:17 9.7 C 69 %
486 30-11-2019 08:50:17 9.7 C 69 %
487 30-11-2019 09:00:17 9.7 C 69 %
488 30-11-2019 09:10:17 9.7 C 69 %
489 30-11-2019 09:20:17 9.7 C 69 %
490 30-11-2019 09:30:17 9.6 C 69 %
491 30-11-2019 09:40:17 9.6 C 69 %
492 30-11-2019 09:50:17 9.6 C 69 %
493 30-11-2019 10:00:17 9.6 C 69 %
494 30-11-2019 10:10:17 9.6 C 69 %
495 30-11-2019 10:20:17 9.6 C 69 %
496 30-11-2019 10:30:17 9.6 C 69 %
497 30-11-2019 10:40:17 9.6 C 69 %
498 30-11-2019 10:50:17 9.6 C 69 %
499 30-11-2019 11:00:18 9.6 C 69 %
500 30-11-2019 11:10:18 9.6 C 69 %
Sensor: Nr:Datum:Temp:Feuchte:
G-T/H 501 30-11-2019 11:20:17 9.5 C 69 %
502 30-11-2019 11:30:17 9.5 C 69 %
503 30-11-2019 11:40:17 9.5 C 69 %